Wetterdaten: Freitag, 23.06.2017
Datum Zeit Temp. A. Pool Temp. Feuchte A. Luftdruck Regen Wind Richtung Richtung Sonnenschein ET UV Solar Taupunkt Windchill Windben Empfang
23.06.2017 00:00 23,0 C 27,2 C 66 % 1009,8 hPa 0,0 l/m 5,0 km/h (1 Bft) S-SW 204 0 min 0,000 mm 0,0 UV-I 0 W/m 16,3 C 23,0 C 8,0 km/h (2 Bft) 95,74 %
23.06.2017 00:02 23,0 C 27,2 C 66 % 1009,7 hPa 0,0 l/m 4,3 km/h (1 Bft) S 185 0 min 0,000 mm 0,0 UV-I 0 W/m 16,3 C 23,0 C 6,4 km/h (2 Bft) 95,24 %
23.06.2017 00:04 23,0 C 27,2 C 66 % 1009,7 hPa 0,0 l/m 5,2 km/h (1 Bft) S 182 0 min 0,000 mm 0,0 UV-I 0 W/m 16,3 C 23,0 C 8,0 km/h (2 Bft) 95,74 %
23.06.2017 00:06 23,0 C 27,2 C 66 % 1009,7 hPa 0,0 l/m 4,4 km/h (1 Bft) S-SW 192 0 min 0,000 mm 0,0 UV-I 0 W/m 16,3 C 23,0 C 8,0 km/h (2 Bft) 100,00 %
23.06.2017 00:08 23,0 C 27,2 C 66 % 1009,8 hPa 0,0 l/m 5,9 km/h (2 Bft) SW 217 0 min 0,000 mm 0,0 UV-I 0 W/m 16,3 C 23,0 C 8,0 km/h (2 Bft) 98,00 %
23.06.2017 00:10 23,0 C 27,2 C 66 % 1009,9 hPa 0,0 l/m 5,8 km/h (2 Bft) S-SW 194 0 min 0,000 mm 0,0 UV-I 0 W/m 16,3 C 23,0 C 9,7 km/h (2 Bft) 97,87 %
23.06.2017 00:12 22,9 C 27,2 C 67 % 1009,8 hPa 0,0 l/m 6,5 km/h (2 Bft) S-SW 200 0 min 0,000 mm 0,0 UV-I 0 W/m 16,4 C 22,9 C 9,7 km/h (2 Bft) 97,87 %
23.06.2017 00:14 22,8 C 27,2 C 67 % 1009,8 hPa 0,0 l/m 5,3 km/h (1 Bft) S-SW 211 0 min 0,000 mm 0,0 UV-I 0 W/m 16,3 C 22,8 C 6,4 km/h (2 Bft) 100,00 %
23.06.2017 00:16 22,8 C 27,2 C 67 % 1009,8 hPa 0,0 l/m 6,4 km/h (2 Bft) S-SW 199 0 min 0,000 mm 0,0 UV-I 0 W/m 16,3 C 22,8 C 9,7 km/h (2 Bft) 91,49 %
23.06.2017 00:18 22,7 C 27,2 C 67 % 1009,8 hPa 0,0 l/m 9,0 km/h (2 Bft) S-SW 209 0 min 0,000 mm 0,0 UV-I 0 W/m 16,2 C 21,9 C 11,3 km/h (2 Bft) 97,87 %
23.06.2017 00:20 22,7 C 27,2 C 67 % 1009,8 hPa 0,0 l/m 8,1 km/h (2 Bft) S-SW 207 0 min 0,000 mm 0,0 UV-I 0 W/m 16,2 C 22,2 C 11,3 km/h (2 Bft) 97,87 %
23.06.2017 00:22 22,6 C 27,2 C 67 % 1009,8 hPa 0,0 l/m 9,2 km/h (2 Bft) S-SW 211 0 min 0,000 mm 0,0 UV-I 0 W/m 16,2 C 21,7 C 11,3 km/h (2 Bft) 97,87 %
23.06.2017 00:24 22,6 C 27,2 C 67 % 1009,7 hPa 0,0 l/m 8,8 km/h (2 Bft) S-SW 210 0 min 0,000 mm 0,0 UV-I 0 W/m 16,2 C 21,8 C 11,3 km/h (2 Bft) 100,00 %
23.06.2017 00:26 22,6 C 27,2 C 68 % 1009,7 hPa 0,0 l/m 6,8 km/h (2 Bft) SW 215 0 min 0,000 mm 0,0 UV-I 0 W/m 16,4 C 22,5 C 12,9 km/h (3 Bft) 94,74 %
23.06.2017 00:28 22,5 C 27,2 C 68 % 1009,7 hPa 0,0 l/m 8,8 km/h (2 Bft) S-SW 213 0 min 0,000 mm 0,0 UV-I 0 W/m 16,3 C 21,7 C 14,5 km/h (3 Bft) 97,87 %
23.06.2017 00:30 22,5 C 27,2 C 67 % 1009,7 hPa 0,0 l/m 9,2 km/h (2 Bft) S-SW 207 0 min 0,000 mm 0,0 UV-I 0 W/m 16,1 C 21,6 C 14,5 km/h (3 Bft) 93,62 %
23.06.2017 00:32 22,5 C 27,2 C 67 % 1009,7 hPa 0,0 l/m 8,5 km/h (2 Bft) S-SW 200 0 min 0,000 mm 0,0 UV-I 0 W/m 16,1 C 21,8 C 12,9 km/h (3 Bft) 95,74 %
23.06.2017 00:34 22,5 C 27,2 C 67 % 1009,8 hPa 0,0 l/m 6,6 km/h (2 Bft) SW 222 0 min 0,000 mm 0,0 UV-I 0 W/m 16,1 C 22,4 C 9,7 km/h (2 Bft) 95,74 %
23.06.2017 00:36 22,5 C 27,2 C 67 % 1009,9 hPa 0,0 l/m 8,0 km/h (2 Bft) S-SW 207 0 min 0,000 mm 0,0 UV-I 0 W/m 16,1 C 22,0 C 9,7 km/h (2 Bft) 93,75 %
23.06.2017 00:38 22,6 C 27,2 C 67 % 1009,9 hPa 0,0 l/m 5,9 km/h (2 Bft) SW 227 0 min 0,000 mm 0,0 UV-I 0 W/m 16,2 C 22,6 C 9,7 km/h (2 Bft) 98,08 %
23.06.2017 00:40 22,5 C 27,2 C 67 % 1009,9 hPa 0,0 l/m 4,4 km/h (1 Bft) SW 227 0 min 0,000 mm 0,0 UV-I 0 W/m 16,1 C 22,5 C 6,4 km/h (2 Bft) 94,44 %
23.06.2017 00:42 22,5 C 27,2 C 67 % 1009,8 hPa 0,0 l/m 3,8 km/h (1 Bft) SW 227 0 min 0,000 mm 0,0 UV-I 0 W/m 16,1 C 22,5 C 4,8 km/h (1 Bft) 94,00 %
23.06.2017 00:44 22,4 C 27,2 C 67 % 1009,8 hPa 0,0 l/m 3,5 km/h (1 Bft) SW 226 0 min 0,000 mm 0,0 UV-I 0 W/m 16,0 C 22,4 C 6,4 km/h (2 Bft) 97,87 %
23.06.2017 00:46 22,4 C 27,2 C 67 % 1009,7 hPa 0,0 l/m 5,1 km/h (1 Bft) SW 218 0 min 0,000 mm 0,0 UV-I 0 W/m 16,0 C 22,4 C 8,0 km/h (2 Bft) 95,74 %
23.06.2017 00:48 22,4 C 27,2 C 67 % 1009,7 hPa 0,0 l/m 2,3 km/h (1 Bft) SW 218 0 min 0,000 mm 0,0 UV-I 0 W/m 16,0 C 22,4 C 6,4 km/h (2 Bft) 93,62 %
23.06.2017 00:50 22,3 C 27,2 C 67 % 1009,7 hPa 0,0 l/m 2,2 km/h (1 Bft) SW 218 0 min 0,000 mm 0,0 UV-I 0 W/m 15,9 C 22,3 C 6,4 km/h (2 Bft) 95,74 %
23.06.2017 00:52 22,3 C 27,2 C 67 % 1009,6 hPa 0,0 l/m 3,8 km/h (1 Bft) SW 217 0 min 0,000 mm 0,0 UV-I 0 W/m 15,9 C 22,3 C 6,4 km/h (2 Bft) 91,49 %
23.06.2017 00:54 22,3 C 27,2 C 67 % 1009,5 hPa 0,0 l/m 2,4 km/h (1 Bft) S 187 0 min 0,000 mm 0,0 UV-I 0 W/m 15,9 C 22,3 C 4,8 km/h (1 Bft) 93,62 %
23.06.2017 00:56 22,3 C 27,2 C 67 % 1009,3 hPa 0,0 l/m 3,0 km/h (1 Bft) S 182 0 min 0,000 mm 0,0 UV-I 0 W/m 15,9 C 22,3 C 8,0 km/h (2 Bft) 91,49 %
23.06.2017 00:58 22,3 C 27,2 C 67 % 1009,3 hPa 0,0 l/m 3,7 km/h (1 Bft) S-SW 203 0 min 0,000 mm 0,0 UV-I 0 W/m 15,9 C 22,3 C 6,4 km/h (2 Bft) 97,87 %
23.06.2017 01:00 22,3 C 27,2 C 67 % 1009,3 hPa 0,0 l/m 5,0 km/h (1 Bft) S 175 0 min 0,025 mm 0,0 UV-I 0 W/m 15,9 C 22,3 C 8,0 km/h (2 Bft) 95,74 %
23.06.2017 01:02 22,3 C 27,2 C 67 % 1009,2 hPa 0,0 l/m 6,3 km/h (2 Bft) S 172 0 min 0,000 mm 0,0 UV-I 0 W/m 15,9 C 22,3 C 11,3 km/h (2 Bft) 95,74 %
23.06.2017 01:04 22,3 C 27,2 C 67 % 1009,0 hPa 0,0 l/m 6,6 km/h (2 Bft) S-SO 165 0 min 0,000 mm 0,0 UV-I 0 W/m 15,9 C 22,2 C 12,9 km/h (3 Bft) 91,49 %
23.06.2017 01:06 22,4 C 27,2 C 67 % 1008,9 hPa 0,0 l/m 7,9 km/h (2 Bft) S-SW 201 0 min 0,000 mm 0,0 UV-I 0 W/m 16,0 C 21,9 C 14,5 km/h (3 Bft) 91,49 %
23.06.2017 01:08 22,4 C 27,2 C 67 % 1008,9 hPa 0,0 l/m 7,1 km/h (2 Bft) S-SW 211 0 min 0,000 mm 0,0 UV-I 0 W/m 16,0 C 22,2 C 11,3 km/h (2 Bft) 94,00 %
23.06.2017 01:10 22,3 C 27,2 C 67 % 1008,9 hPa 0,0 l/m 5,1 km/h (1 Bft) S 184 0 min 0,000 mm 0,0 UV-I 0 W/m 15,9 C 22,3 C 8,0 km/h (2 Bft) 98,00 %
23.06.2017 01:12 22,3 C 27,2 C 67 % 1008,8 hPa 0,0 l/m 5,8 km/h (2 Bft) SW 216 0 min 0,000 mm 0,0 UV-I 0 W/m 15,9 C 22,3 C 9,7 km/h (2 Bft) 97,87 %
23.06.2017 01:14 22,3 C 27,2 C 67 % 1008,8 hPa 0,0 l/m 4,6 km/h (1 Bft) S-SW 209 0 min 0,000 mm 0,0 UV-I 0 W/m 15,9 C 22,3 C 8,0 km/h (2 Bft) 95,24 %
23.06.2017 01:16 22,2 C 27,2 C 67 % 1008,8 hPa 0,0 l/m 5,7 km/h (1 Bft) SW 227 0 min 0,000 mm 0,0 UV-I 0 W/m 15,8 C 22,2 C 9,7 km/h (2 Bft) 97,87 %
23.06.2017 01:18 22,2 C 27,2 C 67 % 1008,8 hPa 0,0 l/m 5,3 km/h (1 Bft) S-SW 212 0 min 0,000 mm 0,0 UV-I 0 W/m 15,8 C 22,2 C 8,0 km/h (2 Bft) 95,74 %
23.06.2017 01:20 22,1 C 27,2 C 67 % 1008,8 hPa 0,0 l/m 6,3 km/h (2 Bft) SW 215 0 min 0,000 mm 0,0 UV-I 0 W/m 15,7 C 22,1 C 9,7 km/h (2 Bft) 93,62 %
23.06.2017 01:22 22,2 C 27,2 C 67 % 1008,8 hPa 0,0 l/m 7,2 km/h (2 Bft) S-SW 205 0 min 0,000 mm 0,0 UV-I 0 W/m 15,8 C 21,9 C 9,7 km/h (2 Bft) 97,87 %
23.06.2017 01:24 22,2 C 27,2 C 67 % 1008,8 hPa 0,0 l/m 6,2 km/h (2 Bft) S-SW 207 0 min 0,000 mm 0,0 UV-I 0 W/m 15,8 C 22,2 C 9,7 km/h (2 Bft) 93,62 %
23.06.2017 01:26 22,1 C 27,2 C 67 % 1008,7 hPa 0,0 l/m 5,1 km/h (1 Bft) S 186 0 min 0,000 mm 0,0 UV-I 0 W/m 15,7 C 22,1 C 8,0 km/h (2 Bft) 94,00 %
23.06.2017 01:28 22,1 C 27,2 C 67 % 1008,6 hPa 0,0 l/m 6,6 km/h (2 Bft) SW 214 0 min 0,000 mm 0,0 UV-I 0 W/m 15,7 C 22,0 C 9,7 km/h (2 Bft) 95,74 %
23.06.2017 01:30 22,1 C 27,2 C 67 % 1008,6 hPa 0,0 l/m 6,1 km/h (2 Bft) SW 223 0 min 0,000 mm 0,0 UV-I 0 W/m 15,7 C 22,1 C 9,7 km/h (2 Bft) 95,74 %
23.06.2017 01:32 22,2 C 27,2 C 67 % 1008,7 hPa 0,0 l/m 6,9 km/h (2 Bft) S-SW 213 0 min 0,000 mm 0,0 UV-I 0 W/m 15,8 C 22,0 C 11,3 km/h (2 Bft) 97,92 %
23.06.2017 01:34 22,2 C 27,2 C 67 % 1008,7 hPa 0,0 l/m 7,9 km/h (2 Bft) S-SW 205 0 min 0,000 mm 0,0 UV-I 0 W/m 15,8 C 21,7 C 11,3 km/h (2 Bft) 95,74 %
23.06.2017 01:36 22,2 C 27,2 C 67 % 1008,7 hPa 0,0 l/m 7,8 km/h (2 Bft) S-SW 211 0 min 0,000 mm 0,0 UV-I 0 W/m 15,8 C 21,7 C 11,3 km/h (2 Bft) 97,87 %
23.06.2017 01:38 22,2 C 27,2 C 67 % 1008,7 hPa 0,0 l/m 8,7 km/h (2 Bft) S-SW 203 0 min 0,000 mm 0,0 UV-I 0 W/m 15,8 C 21,4 C 11,3 km/h (2 Bft) 97,37 %
23.06.2017 01:40 22,1 C 27,2 C 67 % 1008,6 hPa 0,0 l/m 9,3 km/h (2 Bft) S-SW 211 0 min 0,000 mm 0,0 UV-I 0 W/m 15,7 C 21,2 C 12,9 km/h (3 Bft) 97,87 %
23.06.2017 01:42 22,1 C 27,2 C 67 % 1008,6 hPa 0,0 l/m 10,5 km/h (2 Bft) S-SW 198 0 min 0,000 mm 0,0 UV-I 0 W/m 15,7 C 20,8 C 14,5 km/h (3 Bft) 97,87 %
23.06.2017 01:44 22,2 C 27,2 C 66 % 1008,6 hPa 0,0 l/m 8,5 km/h (2 Bft) SW 222 0 min 0,000 mm 0,0 UV-I 0 W/m 15,5 C 21,5 C 14,5 km/h (3 Bft) 95,74 %
23.06.2017 01:46 22,2 C 27,2 C 66 % 1008,6 hPa 0,0 l/m 8,4 km/h (2 Bft) S-SW 210 0 min 0,000 mm 0,0 UV-I 0 W/m 15,5 C 21,5 C 11,3 km/h (2 Bft) 95,74 %
23.06.2017 01:48 22,1 C 27,2 C 66 % 1008,6 hPa 0,0 l/m 7,4 km/h (2 Bft) S-SW 207 0 min 0,000 mm 0,0 UV-I 0 W/m 15,4 C 21,8 C 12,9 km/h (3 Bft) 97,87 %
23.06.2017 01:50 22,1 C 27,2 C 66 % 1008,6 hPa 0,0 l/m 7,3 km/h (2 Bft) S-SW 212 0 min 0,000 mm 0,0 UV-I 0 W/m 15,4 C 21,8 C 14,5 km/h (3 Bft) 91,49 %
23.06.2017 01:52 22,1 C 27,2 C 66 % 1008,6 hPa 0,0 l/m 6,6 km/h (2 Bft) S-SW 194 0 min 0,000 mm 0,0 UV-I 0 W/m 15,4 C 22,0 C 11,3 km/h (2 Bft) 100,00 %
23.06.2017 01:54 22,1 C 27,2 C 66 % 1008,6 hPa 0,0 l/m 5,9 km/h (2 Bft) S-SW 211 0 min 0,000 mm 0,0 UV-I 0 W/m 15,4 C 22,1 C 9,7 km/h (2 Bft) 100,00 %
23.06.2017 01:56 22,1 C 27,2 C 66 % 1008,7 hPa 0,0 l/m 7,8 km/h (2 Bft) S-SW 210 0 min 0,000 mm 0,0 UV-I 0 W/m 15,4 C 21,6 C 11,3 km/h (2 Bft) 100,00 %
23.06.2017 01:58 22,1 C 27,2 C 66 % 1008,7 hPa 0,0 l/m 7,1 km/h (2 Bft) S-SW 212 0 min 0,000 mm 0,0 UV-I 0 W/m 15,4 C 21,9 C 12,9 km/h (3 Bft) 96,00 %
23.06.2017 02:00 22,1 C 27,2 C 66 % 1008,7 hPa 0,0 l/m 7,0 km/h (2 Bft) S-SW 208 0 min 0,051 mm 0,0 UV-I 0 W/m 15,4 C 21,9 C 11,3 km/h (2 Bft) 95,74 %
23.06.2017 02:02 22,1 C 27,2 C 66 % 1008,7 hPa 0,0 l/m 6,5 km/h (2 Bft) S-SW 200 0 min 0,000 mm 0,0 UV-I 0 W/m 15,4 C 22,1 C 11,3 km/h (2 Bft) 95,74 %
23.06.2017 02:04 22,1 C 27,2 C 66 % 1008,7 hPa 0,0 l/m 7,1 km/h (2 Bft) S-SW 208 0 min 0,000 mm 0,0 UV-I 0 W/m 15,4 C 21,9 C 11,3 km/h (2 Bft) 97,87 %
23.06.2017 02:06 22,2 C 27,2 C 66 % 1008,7 hPa 0,0 l/m 8,8 km/h (2 Bft) S 178 0 min 0,000 mm 0,0 UV-I 0 W/m 15,5 C 21,4 C 12,9 km/h (3 Bft) 95,74 %
23.06.2017 02:08 22,2 C 27,2 C 66 % 1008,6 hPa 0,0 l/m 8,1 km/h (2 Bft) S-SW 210 0 min 0,000 mm 0,0 UV-I 0 W/m 15,5 C 21,6 C 14,5 km/h (3 Bft) 97,87 %
23.06.2017 02:10 22,2 C 27,2 C 65 % 1008,6 hPa 0,0 l/m 6,4 km/h (2 Bft) S-SW 213 0 min 0,000 mm 0,0 UV-I 0 W/m 15,3 C 22,2 C 11,3 km/h (2 Bft) 97,87 %
23.06.2017 02:12 22,3 C 27,2 C 65 % 1008,6 hPa 0,0 l/m 8,9 km/h (2 Bft) S-SW 209 0 min 0,000 mm 0,0 UV-I 0 W/m 15,4 C 21,5 C 12,9 km/h (3 Bft) 100,00 %
23.06.2017 02:14 22,3 C 27,2 C 65 % 1008,6 hPa 0,0 l/m 8,9 km/h (2 Bft) S-SW 206 0 min 0,000 mm 0,0 UV-I 0 W/m 15,4 C 21,5 C 12,9 km/h (3 Bft) 94,74 %
23.06.2017 02:16 22,3 C 27,2 C 65 % 1008,6 hPa 0,0 l/m 7,3 km/h (2 Bft) SW 221 0 min 0,000 mm 0,0 UV-I 0 W/m 15,4 C 22,0 C 11,3 km/h (2 Bft) 97,87 %
23.06.2017 02:18 22,3 C 27,2 C 65 % 1008,5 hPa 0,0 l/m 9,0 km/h (2 Bft) S-SW 213 0 min 0,000 mm 0,0 UV-I 0 W/m 15,4 C 21,5 C 14,5 km/h (3 Bft) 100,00 %
23.06.2017 02:20 22,3 C 27,2 C 65 % 1008,6 hPa 0,0 l/m 9,4 km/h (2 Bft) SW 216 0 min 0,000 mm 0,0 UV-I 0 W/m 15,4 C 21,3 C 12,9 km/h (3 Bft) 95,74 %
23.06.2017 02:22 22,4 C 27,2 C 65 % 1008,5 hPa 0,0 l/m 8,2 km/h (2 Bft) S-SW 212 0 min 0,000 mm 0,0 UV-I 0 W/m 15,5 C 21,8 C 12,9 km/h (3 Bft) 98,11 %
23.06.2017 02:24 22,4 C 27,2 C 65 % 1008,5 hPa 0,0 l/m 9,7 km/h (2 Bft) SW 227 0 min 0,000 mm 0,0 UV-I 0 W/m 15,5 C 21,4 C 12,9 km/h (3 Bft) 95,65 %
23.06.2017 02:26 22,4 C 27,2 C 65 % 1008,4 hPa 0,0 l/m 8,2 km/h (2 Bft) W-SW 243 0 min 0,000 mm 0,0 UV-I 0 W/m 15,5 C 21,8 C 14,5 km/h (3 Bft) 95,74 %
23.06.2017 02:28 22,5 C 27,2 C 65 % 1008,4 hPa 0,0 l/m 7,9 km/h (2 Bft) S-SW 207 0 min 0,000 mm 0,0 UV-I 0 W/m 15,6 C 22,0 C 12,9 km/h (3 Bft) 93,62 %
23.06.2017 02:30 22,5 C 27,2 C 64 % 1008,4 hPa 0,0 l/m 9,3 km/h (2 Bft) S-SW 195 0 min 0,000 mm 0,0 UV-I 0 W/m 15,3 C 21,6 C 14,5 km/h (3 Bft) 95,74 %
23.06.2017 02:32 22,5 C 27,2 C 64 % 1008,4 hPa 0,0 l/m 9,6 km/h (2 Bft) SW 222 0 min 0,000 mm 0,0 UV-I 0 W/m 15,3 C 21,5 C 12,9 km/h (3 Bft) 97,44 %
23.06.2017 02:34 22,5 C 27,2 C 65 % 1008,5 hPa 0,0 l/m 8,6 km/h (2 Bft) SW 219 0 min 0,000 mm 0,0 UV-I 0 W/m 15,6 C 21,8 C 12,9 km/h (3 Bft) 95,74 %
23.06.2017 02:36 22,5 C 27,2 C 64 % 1008,4 hPa 0,0 l/m 9,1 km/h (2 Bft) S-SW 208 0 min 0,000 mm 0,0 UV-I 0 W/m 15,3 C 21,6 C 12,9 km/h (3 Bft) 94,00 %
23.06.2017 02:38 22,6 C 27,2 C 64 % 1008,4 hPa 0,0 l/m 9,5 km/h (2 Bft) S-SW 207 0 min 0,000 mm 0,0 UV-I 0 W/m 15,4 C 21,6 C 14,5 km/h (3 Bft) 98,00 %
23.06.2017 02:40 22,6 C 27,2 C 64 % 1008,3 hPa 0,0 l/m 9,0 km/h (2 Bft) S-SW 212 0 min 0,000 mm 0,0 UV-I 0 W/m 15,4 C 21,8 C 11,3 km/h (2 Bft) 95,74 %
23.06.2017 02:42 22,6 C 27,2 C 64 % 1008,3 hPa 0,0 l/m 10,9 km/h (2 Bft) SW 227 0 min 0,000 mm 0,0 UV-I 0 W/m 15,4 C 21,3 C 14,5 km/h (3 Bft) 95,74 %
23.06.2017 02:44 22,7 C 27,2 C 64 % 1008,6 hPa 0,0 l/m 10,7 km/h (2 Bft) W-SW 241 0 min 0,000 mm 0,0 UV-I 0 W/m 15,5 C 21,4 C 14,5 km/h (3 Bft) 95,74 %
23.06.2017 02:46 22,8 C 27,2 C 62 % 1008,6 hPa 0,0 l/m 19,7 km/h (3 Bft) W-SW 247 0 min 0,000 mm 0,0 UV-I 0 W/m 15,1 C 19,9 C 38,6 km/h (5 Bft) 95,74 %
23.06.2017 02:48 23,0 C 27,2 C 63 % 1008,6 hPa 0,0 l/m 14,6 km/h (3 Bft) W-SW 248 0 min 0,000 mm 0,0 UV-I 0 W/m 15,6 C 21,0 C 22,5 km/h (4 Bft) 97,87 %
23.06.2017 02:50 23,0 C 27,2 C 64 % 1008,6 hPa 0,2 l/m 13,0 km/h (3 Bft) S-SW 213 0 min 0,000 mm 0,0 UV-I 0 W/m 15,8 C 21,3 C 24,1 km/h (4 Bft) 95,74 %
23.06.2017 02:52 22,9 C 26,7 C 67 % 1008,4 hPa 0,2 l/m 18,1 km/h (3 Bft) SW 223 0 min 0,000 mm 0,0 UV-I 0 W/m 16,4 C 20,2 C 38,6 km/h (5 Bft) 97,50 %
23.06.2017 02:54 23,0 C 26,7 C 67 % 1008,1 hPa 0,0 l/m 27,8 km/h (4 Bft) S 178 0 min 0,000 mm 0,0 UV-I 0 W/m 16,5 C 19,1 C 45,1 km/h (6 Bft) 96,00 %
23.06.2017 02:56 23,2 C 26,7 C 68 % 1008,1 hPa 0,0 l/m 21,9 km/h (4 Bft) W-SW 240 0 min 0,000 mm 0,0 UV-I 0 W/m 17,0 C 20,1 C 35,4 km/h (5 Bft) 100,00 %
23.06.2017 02:58 23,3 C 26,7 C 68 % 1008,4 hPa 0,0 l/m 12,5 km/h (3 Bft) N-NO 28 0 min 0,000 mm 0,0 UV-I 0 W/m 17,1 C 21,7 C 32,2 km/h (5 Bft) 100,00 %
23.06.2017 03:00 22,9 C 26,7 C 69 % 1008,5 hPa 0,0 l/m 7,4 km/h (2 Bft) N-NW 347 0 min 0,000 mm 0,0 UV-I 0 W/m 16,9 C 22,6 C 12,9 km/h (3 Bft) 95,74 %
23.06.2017 03:02 22,7 C 26,7 C 70 % 1008,7 hPa 0,0 l/m 5,0 km/h (1 Bft) W-NW 292 0 min 0,076 mm 0,0 UV-I 0 W/m 16,9 C 22,7 C 9,7 km/h (2 Bft) 100,00 %
23.06.2017 03:04 22,4 C 26,7 C 71 % 1008,5 hPa 0,0 l/m 4,6 km/h (1 Bft) W 280 0 min 0,000 mm 0,0 UV-I 0 W/m 16,9 C 22,4 C 12,9 km/h (3 Bft) 97,87 %
23.06.2017 03:06 22,3 C 26,7 C 71 % 1008,6 hPa 0,0 l/m 9,7 km/h (2 Bft) W-NW 289 0 min 0,000 mm 0,0 UV-I 0 W/m 16,8 C 21,3 C 16,1 km/h (3 Bft) 100,00 %
23.06.2017 03:08 22,3 C 26,7 C 69 % 1008,6 hPa 0,0 l/m 7,6 km/h (2 Bft) W 271 0 min 0,000 mm 0,0 UV-I 0 W/m 16,3 C 21,9 C 16,1 km/h (3 Bft) 97,37 %
23.06.2017 03:10 22,6 C 26,7 C 69 % 1008,7 hPa 0,0 l/m 11,0 km/h (2 Bft) W-NW 289 0 min 0,000 mm 0,0 UV-I 0 W/m 16,6 C 21,3 C 16,1 km/h (3 Bft) 100,00 %
23.06.2017 03:12 22,7 C 26,7 C 68 % 1009,0 hPa 0,0 l/m 7,6 km/h (2 Bft) W 275 0 min 0,000 mm 0,0 UV-I 0 W/m 16,5 C 22,3 C 11,3 km/h (2 Bft) 97,87 %
23.06.2017 03:14 22,6 C 26,7 C 70 % 1009,1 hPa 0,0 l/m 4,8 km/h (1 Bft) W-SW 250 0 min 0,000 mm 0,0 UV-I 0 W/m 16,8 C 22,6 C 8,0 km/h (2 Bft) 97,92 %
23.06.2017 03:16 22,4 C 26,7 C 70 % 1009,2 hPa 0,0 l/m 5,6 km/h (1 Bft) W-SW 246 0 min 0,000 mm 0,0 UV-I 0 W/m 16,7 C 22,4 C 11,3 km/h (2 Bft) 98,00 %
23.06.2017 03:18 22,4 C 26,7 C 69 % 1009,2 hPa 0,0 l/m 9,9 km/h (2 Bft) SW 227 0 min 0,000 mm 0,0 UV-I 0 W/m 16,4 C 21,3 C 12,9 km/h (3 Bft) 100,00 %
23.06.2017 03:20 22,6 C 26,7 C 69 % 1009,3 hPa 0,0 l/m 12,9 km/h (3 Bft) SW 225 0 min 0,000 mm 0,0 UV-I 0 W/m 16,6 C 20,8 C 19,3 km/h (3 Bft) 97,87 %
23.06.2017 03:22 22,8 C 26,7 C 67 % 1009,5 hPa 0,0 l/m 11,3 km/h (2 Bft) W 269 0 min 0,000 mm 0,0 UV-I 0 W/m 16,3 C 21,4 C 17,7 km/h (3 Bft) 97,37 %
23.06.2017 03:24 23,1 C 26,7 C 68 % 1009,7 hPa 0,0 l/m 3,7 km/h (1 Bft) W-NW 289 0 min 0,000 mm 0,0 UV-I 0 W/m 16,9 C 23,1 C 12,9 km/h (3 Bft) 100,00 %
23.06.2017 03:26 23,0 C 26,7 C 68 % 1009,8 hPa 0,0 l/m 2,4 km/h (1 Bft) O-SO 107 0 min 0,000 mm 0,0 UV-I 0 W/m 16,8 C 23,0 C 4,8 km/h (1 Bft) 97,87 %
23.06.2017 03:28 22,9 C 26,7 C 68 % 1009,7 hPa 0,0 l/m 1,2 km/h (1 Bft) S-SO 165 0 min 0,000 mm 0,0 UV-I 0 W/m 16,7 C 22,9 C 6,4 km/h (2 Bft) 100,00 %
23.06.2017 03:30 22,8 C 26,7 C 69 % 1009,5 hPa 0,0 l/m 2,4 km/h (1 Bft) N 5 0 min 0,000 mm 0,0 UV-I 0 W/m 16,8 C 22,8 C 6,4 km/h (2 Bft) 95,74 %
23.06.2017 03:32 22,8 C 26,7 C 70 % 1009,7 hPa 0,2 l/m 3,1 km/h (1 Bft) W-NW 292 0 min 0,000 mm 0,0 UV-I 0 W/m 17,0 C 22,8 C 4,8 km/h (1 Bft) 93,62 %
23.06.2017 03:34 22,7 C 26,7 C 70 % 1009,4 hPa 0,0 l/m 1,6 km/h (1 Bft) N-NW 347 0 min 0,000 mm 0,0 UV-I 0 W/m 16,9 C 22,7 C 4,8 km/h (1 Bft) 97,87 %
23.06.2017 03:36 22,6 C 26,7 C 70 % 1009,3 hPa 0,0 l/m 4,0 km/h (1 Bft) NW 323 0 min 0,000 mm 0,0 UV-I 0 W/m 16,8 C 22,6 C 8,0 km/h (2 Bft) 97,37 %
23.06.2017 03:38 22,4 C 26,7 C 70 % 1009,3 hPa 0,0 l/m 2,1 km/h (1 Bft) N-NW 328 0 min 0,000 mm 0,0 UV-I 0 W/m 16,7 C 22,4 C 4,8 km/h (1 Bft) 100,00 %
23.06.2017 03:40 22,2 C 26,7 C 71 % 1009,2 hPa 0,2 l/m 1,9 km/h (1 Bft) N-NW 346 0 min 0,000 mm 0,0 UV-I 0 W/m 16,7 C 22,2 C 8,0 km/h (2 Bft) 100,00 %
23.06.2017 03:42 22,2 C 26,7 C 70 % 1009,4 hPa 0,0 l/m 2,4 km/h (1 Bft) N-NW 327 0 min 0,000 mm 0,0 UV-I 0 W/m 16,5 C 22,2 C 6,4 km/h (2 Bft) 97,87 %
23.06.2017 03:44 22,2 C 26,7 C 70 % 1009,4 hPa 0,0 l/m 1,6 km/h (1 Bft) NW 323 0 min 0,000 mm 0,0 UV-I 0 W/m 16,5 C 22,2 C 4,8 km/h (1 Bft) 100,00 %
23.06.2017 03:46 22,2 C 26,7 C 70 % 1009,3 hPa 0,0 l/m 0,1 km/h (0 Bft) NW 323 0 min 0,000 mm 0,0 UV-I 0 W/m 16,5 C 22,2 C 1,6 km/h (1 Bft) 97,83 %
23.06.2017 03:48 22,2 C 26,7 C 71 % 1009,5 hPa 0,0 l/m 0,0 km/h (0 Bft) NW 323 0 min 0,000 mm 0,0 UV-I 0 W/m 16,7 C 22,2 C 0,0 km/h (0 Bft) 95,83 %
23.06.2017 03:50 22,1 C 26,7 C 75 % 1009,6 hPa 0,0 l/m 1,0 km/h (0 Bft) NW 323 0 min 0,000 mm 0,0 UV-I 0 W/m 17,5 C 22,1 C 3,2 km/h (1 Bft) 100,00 %
23.06.2017 03:52 21,8 C 26,7 C 78 % 1009,7 hPa 0,0 l/m 0,3 km/h (0 Bft) NW 323 0 min 0,000 mm 0,0 UV-I 0 W/m 17,8 C 21,8 C 1,6 km/h (1 Bft) 95,74 %
23.06.2017 03:54 21,5 C 26,7 C 80 % 1009,7 hPa 0,0 l/m 0,0 km/h (0 Bft) NW 323 0 min 0,000 mm 0,0 UV-I 0 W/m 17,9 C 21,5 C 1,6 km/h (1 Bft) 97,87 %
23.06.2017 03:56 21,3 C 26,7 C 80 % 1009,4 hPa 0,2 l/m 0,9 km/h (0 Bft) NW 323 0 min 0,000 mm 0,0 UV-I 0 W/m 17,7 C 21,3 C 3,2 km/h (1 Bft) 93,62 %
23.06.2017 03:58 21,1 C 26,7 C 82 % 1009,5 hPa 0,0 l/m 4,3 km/h (1 Bft) SO 139 0 min 0,000 mm 0,0 UV-I 0 W/m 17,9 C 21,1 C 12,9 km/h (3 Bft) 100,00 %
23.06.2017 04:00 20,9 C 26,7 C 82 % 1009,3 hPa 0,0 l/m 4,3 km/h (1 Bft) S-SO 155 0 min 0,026 mm 0,0 UV-I 0 W/m 17,7 C 20,9 C 12,9 km/h (3 Bft) 97,87 %
23.06.2017 04:02 20,8 C 26,7 C 79 % 1009,3 hPa 0,0 l/m 2,7 km/h (1 Bft) W-SW 238 0 min 0,000 mm 0,0 UV-I 0 W/m 17,0 C 20,8 C 6,4 km/h (2 Bft) 100,00 %
23.06.2017 04:04 20,9 C 26,7 C 79 % 1009,2 hPa 0,0 l/m 2,0 km/h (1 Bft) S-SO 166 0 min 0,000 mm 0,0 UV-I 0 W/m 17,1 C 20,9 C 6,4 km/h (2 Bft) 97,87 %
23.06.2017 04:06 21,0 C 26,7 C 79 % 1009,4 hPa 0,0 l/m 1,1 km/h (1 Bft) S-SO 168 0 min 0,000 mm 0,0 UV-I 0 W/m 17,2 C 21,0 C 6,4 km/h (2 Bft) 100,00 %
23.06.2017 04:08 21,0 C 26,7 C 80 % 1009,3 hPa 0,0 l/m 1,7 km/h (1 Bft) S-SO 163 0 min 0,000 mm 0,0 UV-I 0 W/m 17,4 C 21,0 C 8,0 km/h (2 Bft) 97,87 %
23.06.2017 04:10 20,9 C 26,7 C 78 % 1009,5 hPa 0,0 l/m 4,0 km/h (1 Bft) SW 227 0 min 0,000 mm 0,0 UV-I 0 W/m 16,9 C 20,9 C 11,3 km/h (2 Bft) 100,00 %
23.06.2017 04:12 21,1 C 26,7 C 70 % 1009,5 hPa 0,0 l/m 4,2 km/h (1 Bft) W-SW 240 0 min 0,000 mm 0,0 UV-I 0 W/m 15,4 C 21,1 C 11,3 km/h (2 Bft) 98,00 %
23.06.2017 04:14 21,3 C 26,7 C 72 % 1009,8 hPa 0,0 l/m 3,4 km/h (1 Bft) W-SW 240 0 min 0,000 mm 0,0 UV-I 0 W/m 16,0 C 21,3 C 4,8 km/h (1 Bft) 97,87 %
23.06.2017 04:16 21,4 C 26,7 C 77 % 1009,8 hPa 0,0 l/m 1,6 km/h (1 Bft) W-SW 240 0 min 0,000 mm 0,0 UV-I 0 W/m 17,2 C 21,4 C 4,8 km/h (1 Bft) 100,00 %
23.06.2017 04:18 21,2 C 26,7 C 78 % 1009,9 hPa 0,0 l/m 0,4 km/h (0 Bft) W-SW 240 0 min 0,000 mm 0,0 UV-I 0 W/m 17,2 C 21,2 C 1,6 km/h (1 Bft) 97,87 %
23.06.2017 04:20 21,1 C 26,7 C 80 % 1009,8 hPa 0,0 l/m 1,7 km/h (1 Bft) S-SW 209 0 min 0,000 mm 0,0 UV-I 0 W/m 17,5 C 21,1 C 4,8 km/h (1 Bft) 100,00 %
23.06.2017 04:22 20,9 C 26,7 C 78 % 1009,9 hPa 0,0 l/m 1,6 km/h (1 Bft) S-SW 206 0 min 0,000 mm 0,0 UV-I 0 W/m 16,9 C 20,9 C 4,8 km/h (1 Bft) 93,62 %
23.06.2017 04:24 20,8 C 26,7 C 81 % 1009,8 hPa 0,0 l/m 4,2 km/h (1 Bft) SO 127 0 min 0,000 mm 0,0 UV-I 0 W/m 17,4 C 20,8 C 6,4 km/h (2 Bft) 97,87 %
23.06.2017 04:26 20,6 C 26,7 C 82 % 1009,8 hPa 0,0 l/m 3,5 km/h (1 Bft) SO 127 0 min 0,000 mm 0,0 UV-I 0 W/m 17,4 C 20,6 C 4,8 km/h (1 Bft) 98,00 %
23.06.2017 04:28 20,3 C 26,7 C 84 % 1009,8 hPa 0,0 l/m 1,0 km/h (0 Bft) SO 128 0 min 0,000 mm 0,0 UV-I 0 W/m 17,5 C 20,3 C 3,2 km/h (1 Bft) 95,74 %
23.06.2017 04:30 20,0 C 26,7 C 83 % 1009,8 hPa 0,0 l/m 2,3 km/h (1 Bft) SO 129 0 min 0,000 mm 0,0 UV-I 0 W/m 17,0 C 20,0 C 4,8 km/h (1 Bft) 98,11 %
23.06.2017 04:32 19,9 C 26,7 C 81 % 1009,9 hPa 0,0 l/m 4,8 km/h (1 Bft) S-SW 203 0 min 0,000 mm 0,0 UV-I 0 W/m 16,5 C 19,9 C 8,0 km/h (2 Bft) 97,22 %
23.06.2017 04:34 20,0 C 26,7 C 79 % 1009,9 hPa 0,0 l/m 5,6 km/h (1 Bft) S-SW 203 0 min 0,000 mm 0,0 UV-I 0 W/m 16,2 C 20,0 C 8,0 km/h (2 Bft) 95,74 %
23.06.2017 04:36 20,0 C 26,7 C 78 % 1009,9 hPa 0,0 l/m 4,8 km/h (1 Bft) S-SW 212 0 min 0,000 mm 0,0 UV-I 0 W/m 16,0 C 20,0 C 8,0 km/h (2 Bft) 97,87 %
23.06.2017 04:38 20,1 C 26,7 C 77 % 1009,9 hPa 0,0 l/m 5,9 km/h (2 Bft) SW 221 0 min 0,000 mm 0,0 UV-I 0 W/m 15,9 C 20,1 C 11,3 km/h (2 Bft) 93,62 %
23.06.2017 04:40 20,2 C 26,7 C 76 % 1009,9 hPa 0,0 l/m 1,4 km/h (1 Bft) SW 215 0 min 0,000 mm 0,0 UV-I 0 W/m 15,8 C 20,2 C 8,0 km/h (2 Bft) 95,74 %
23.06.2017 04:42 20,2 C 26,7 C 76 % 1009,9 hPa 0,0 l/m 0,7 km/h (0 Bft) SW 215 0 min 0,000 mm 0,0 UV-I 0 W/m 15,8 C 20,2 C 1,6 km/h (1 Bft) 96,00 %
23.06.2017 04:44 20,2 C 26,7 C 76 % 1010,0 hPa 0,0 l/m 2,8 km/h (1 Bft) N-NW 346 0 min 0,000 mm 0,0 UV-I 0 W/m 15,8 C 20,2 C 4,8 km/h (1 Bft) 93,62 %
23.06.2017 04:46 20,0 C 26,7 C 78 % 1010,0 hPa 0,0 l/m 5,9 km/h (2 Bft) N-NO 24 0 min 0,000 mm 0,0 UV-I 0 W/m 16,0 C 20,0 C 9,7 km/h (2 Bft) 93,62 %
23.06.2017 04:48 19,7 C 26,7 C 79 % 1009,9 hPa 0,0 l/m 3,8 km/h (1 Bft) N-NO 24 0 min 0,000 mm 0,0 UV-I 0 W/m 16,0 C 19,7 C 6,4 km/h (2 Bft) 95,92 %
23.06.2017 04:50 19,6 C 26,7 C 81 % 1010,0 hPa 0,0 l/m 1,9 km/h (1 Bft) S-SO 153 0 min 0,000 mm 0,0 UV-I 0 W/m 16,2 C 19,6 C 4,8 km/h (1 Bft) 93,62 %
23.06.2017 04:52 19,6 C 26,7 C 81 % 1009,9 hPa 0,0 l/m 3,3 km/h (1 Bft) S-SO 167 0 min 0,000 mm 0,0 UV-I 0 W/m 16,2 C 19,6 C 6,4 km/h (2 Bft) 93,62 %
23.06.2017 04:54 19,5 C 26,7 C 81 % 1009,9 hPa 0,0 l/m 3,3 km/h (1 Bft) S 178 0 min 0,000 mm 0,0 UV-I 0 W/m 16,1 C 19,5 C 6,4 km/h (2 Bft) 91,49 %
23.06.2017 04:56 19,5 C 26,7 C 82 % 1009,9 hPa 0,0 l/m 1,3 km/h (1 Bft) S 182 0 min 0,000 mm 0,0 UV-I 0 W/m 16,3 C 19,5 C 4,8 km/h (1 Bft) 93,62 %
23.06.2017 04:58 19,4 C 26,7 C 81 % 1009,9 hPa 0,0 l/m 0,7 km/h (0 Bft) S 181 0 min 0,000 mm 0,0 UV-I 0 W/m 16,1 C 19,4 C 3,2 km/h (1 Bft) 97,87 %
23.06.2017 05:00 19,4 C 26,7 C 82 % 1010,0 hPa 0,0 l/m 2,9 km/h (1 Bft) S 181 0 min 0,025 mm 0,0 UV-I 3 W/m 16,2 C 19,4 C 3,2 km/h (1 Bft) 89,36 %
23.06.2017 05:02 19,3 C 26,7 C 82 % 1010,0 hPa 0,0 l/m 2,7 km/h (1 Bft) S 181 0 min 0,000 mm 0,0 UV-I 5 W/m 16,1 C 19,3 C 4,8 km/h (1 Bft) 97,87 %
23.06.2017 05:04 19,2 C 26,7 C 82 % 1010,0 hPa 0,0 l/m 2,3 km/h (1 Bft) S 181 0 min 0,000 mm 0,0 UV-I 5 W/m 16,0 C 19,2 C 3,2 km/h (1 Bft) 97,87 %
23.06.2017 05:06 19,1 C 26,7 C 82 % 1010,1 hPa 0,0 l/m 1,6 km/h (1 Bft) S 181 0 min 0,000 mm 0,0 UV-I 5 W/m 16,0 C 19,1 C 3,2 km/h (1 Bft) 95,24 %
23.06.2017 05:08 19,2 C 26,7 C 83 % 1010,1 hPa 0,0 l/m 1,1 km/h (1 Bft) S 181 0 min 0,000 mm 0,0 UV-I 5 W/m 16,2 C 19,2 C 3,2 km/h (1 Bft) 93,62 %
23.06.2017 05:10 19,1 C 26,7 C 82 % 1010,1 hPa 0,0 l/m 2,8 km/h (1 Bft) S 175 0 min 0,000 mm 0,0 UV-I 5 W/m 16,0 C 19,1 C 4,8 km/h (1 Bft) 97,87 %
23.06.2017 05:12 19,1 C 26,7 C 82 % 1010,0 hPa 0,0 l/m 2,6 km/h (1 Bft) S 178 0 min 0,000 mm 0,0 UV-I 5 W/m 16,0 C 19,1 C 4,8 km/h (1 Bft) 95,74 %
23.06.2017 05:14 19,2 C 26,7 C 82 % 1010,0 hPa 0,0 l/m 4,1 km/h (1 Bft) S-SW 192 0 min 0,000 mm 0,0 UV-I 5 W/m 16,0 C 19,2 C 6,4 km/h (2 Bft) 91,43 %
23.06.2017 05:16 19,3 C 26,7 C 81 % 1009,9 hPa 0,0 l/m 4,0 km/h (1 Bft) S-SO 163 0 min 0,000 mm 0,0 UV-I 7 W/m 16,0 C 19,3 C 6,4 km/h (2 Bft) 96,77 %
23.06.2017 05:18 19,4 C 26,7 C 80 % 1009,9 hPa 0,0 l/m 5,3 km/h (1 Bft) S 171 0 min 0,000 mm 0,0 UV-I 7 W/m 15,9 C 19,4 C 8,0 km/h (2 Bft) 97,56 %
23.06.2017 05:20 19,4 C 26,7 C 80 % 1009,9 hPa 0,0 l/m 3,6 km/h (1 Bft) S-SO 167 0 min 0,000 mm 0,0 UV-I 9 W/m 15,9 C 19,4 C 8,0 km/h (2 Bft) 96,00 %
23.06.2017 05:22 19,5 C 26,7 C 80 % 1009,9 hPa 0,0 l/m 2,8 km/h (1 Bft) S-SO 154 0 min 0,000 mm 0,0 UV-I 9 W/m 16,0 C 19,5 C 6,4 km/h (2 Bft) 93,62 %
23.06.2017 05:24 19,5 C 26,7 C 80 % 1009,9 hPa 0,0 l/m 2,0 km/h (1 Bft) S-SO 154 0 min 0,000 mm 0,0 UV-I 10 W/m 16,0 C 19,5 C 3,2 km/h (1 Bft) 93,62 %
23.06.2017 05:26 19,5 C 26,7 C 80 % 1009,9 hPa 0,0 l/m 4,3 km/h (1 Bft) SO 142 0 min 0,000 mm 0,0 UV-I 11 W/m 16,0 C 19,5 C 8,0 km/h (2 Bft) 97,92 %
23.06.2017 05:28 19,5 C 26,7 C 80 % 1009,9 hPa 0,0 l/m 4,5 km/h (1 Bft) S-SO 147 0 min 0,000 mm 0,0 UV-I 12 W/m 16,0 C 19,5 C 11,3 km/h (2 Bft) 97,87 %
23.06.2017 05:30 19,5 C 26,7 C 80 % 1009,9 hPa 0,0 l/m 2,8 km/h (1 Bft) S-SO 150 0 min 0,000 mm 0,0 UV-I 12 W/m 16,0 C 19,5 C 4,8 km/h (1 Bft) 95,74 %
23.06.2017 05:32 19,4 C 26,7 C 81 % 1010,0 hPa 0,0 l/m 2,3 km/h (1 Bft) W-NW 297 0 min 0,000 mm 0,0 UV-I 15 W/m 16,1 C 19,4 C 4,8 km/h (1 Bft) 97,87 %
23.06.2017 05:34 19,3 C 26,7 C 81 % 1010,1 hPa 0,0 l/m 0,5 km/h (0 Bft) W-NW 294 0 min 0,000 mm 0,0 UV-I 16 W/m 16,0 C 19,3 C 1,6 km/h (1 Bft) 91,49 %
23.06.2017 05:36 19,2 C 26,7 C 82 % 1010,1 hPa 0,0 l/m 2,0 km/h (1 Bft) SO 146 0 min 0,000 mm 0,0 UV-I 16 W/m 16,0 C 19,2 C 6,4 km/h (2 Bft) 97,87 %
23.06.2017 05:38 19,2 C 26,7 C 82 % 1010,0 hPa 0,0 l/m 4,5 km/h (1 Bft) SO 136 0 min 0,000 mm 0,0 UV-I 18 W/m 16,0 C 19,2 C 9,7 km/h (2 Bft) 93,62 %
23.06.2017 05:40 19,3 C 26,7 C 81 % 1010,0 hPa 0,0 l/m 1,9 km/h (1 Bft) SO 138 0 min 0,000 mm 0,0 UV-I 18 W/m 16,0 C 19,3 C 4,8 km/h (1 Bft) 95,74 %
23.06.2017 05:42 19,3 C 26,7 C 82 % 1010,0 hPa 0,0 l/m 1,0 km/h (0 Bft) SO 138 0 min 0,000 mm 0,0 UV-I 19 W/m 16,1 C 19,3 C 3,2 km/h (1 Bft) 93,62 %
23.06.2017 05:44 19,4 C 26,7 C 82 % 1010,0 hPa 0,0 l/m 0,8 km/h (0 Bft) SO 138 0 min 0,000 mm 0,0 UV-I 21 W/m 16,2 C 19,4 C 3,2 km/h (1 Bft) 93,62 %
23.06.2017 05:46 19,4 C 26,7 C 81 % 1009,8 hPa 0,0 l/m 2,0 km/h (1 Bft) SO 141 0 min 0,000 mm 0,0 UV-I 21 W/m 16,1 C 19,4 C 4,8 km/h (1 Bft) 98,00 %
23.06.2017 05:48 19,5 C 26,7 C 81 % 1009,8 hPa 0,0 l/m 2,0 km/h (1 Bft) SO 143 0 min 0,000 mm 0,0 UV-I 23 W/m 16,1 C 19,5 C 4,8 km/h (1 Bft) 93,62 %
23.06.2017 05:50 19,6 C 26,7 C 80 % 1009,8 hPa 0,0 l/m 3,2 km/h (1 Bft) SO 138 0 min 0,000 mm 0,0 UV-I 24 W/m 16,1 C 19,6 C 6,4 km/h (2 Bft) 97,22 %
23.06.2017 05:52 19,7 C 26,7 C 80 % 1009,8 hPa 0,0 l/m 2,5 km/h (1 Bft) SO 144 0 min 0,000 mm 0,0 UV-I 25 W/m 16,1 C 19,7 C 4,8 km/h (1 Bft) 98,04 %
23.06.2017 05:54 19,8 C 26,7 C 80 % 1009,8 hPa 0,0 l/m 2,1 km/h (1 Bft) SO 146 0 min 0,000 mm 0,0 UV-I 26 W/m 16,2 C 19,8 C 4,8 km/h (1 Bft) 98,00 %
23.06.2017 05:56 19,8 C 26,7 C 80 % 1009,8 hPa 0,0 l/m 1,3 km/h (1 Bft) SO 146 0 min 0,000 mm 0,0 UV-I 29 W/m 16,2 C 19,8 C 3,2 km/h (1 Bft) 100,00 %
23.06.2017 05:58 19,8 C 26,7 C 81 % 1009,8 hPa 0,0 l/m 0,4 km/h (0 Bft) SO 146 0 min 0,000 mm 0,0 UV-I 33 W/m 16,4 C 19,8 C 1,6 km/h (1 Bft) 97,87 %
23.06.2017 06:00 19,7 C 26,7 C 82 % 1009,7 hPa 0,0 l/m 0,3 km/h (0 Bft) SO 146 0 min 0,026 mm 0,0 UV-I 37 W/m 16,5 C 19,7 C 1,6 km/h (1 Bft) 100,00 %
23.06.2017 06:02 19,7 C 26,7 C 82 % 1009,8 hPa 0,0 l/m 0,2 km/h (0 Bft) SO 146 0 min 0,000 mm 0,0 UV-I 43 W/m 16,5 C 19,7 C 1,6 km/h (1 Bft) 97,30 %
23.06.2017 06:04 19,6 C 26,7 C 82 % 1009,8 hPa 0,0 l/m 0,0 km/h (0 Bft) SO 146 0 min 0,000 mm 0,0 UV-I 51 W/m 16,4 C 19,6 C 0,0 km/h (0 Bft) 100,00 %
23.06.2017 06:06 19,6 C 26,7 C 83 % 1009,7 hPa 0,0 l/m 0,7 km/h (0 Bft) SO 146 0 min 0,000 mm 0,0 UV-I 58 W/m 16,6 C 19,6 C 1,6 km/h (1 Bft) 100,00 %
23.06.2017 06:08 19,6 C 26,7 C 83 % 1009,9 hPa 0,0 l/m 0,3 km/h (0 Bft) SO 146 0 min 0,000 mm 0,0 UV-I 65 W/m 16,6 C 19,6 C 1,6 km/h (1 Bft) 95,74 %
23.06.2017 06:10 19,5 C 26,7 C 83 % 1009,9 hPa 0,0 l/m 0,3 km/h (0 Bft) SO 146 0 min 0,000 mm 0,0 UV-I 70 W/m 16,5 C 19,5 C 3,2 km/h (1 Bft) 89,36 %
23.06.2017 06:12 19,4 C 26,7 C 84 % 1009,9 hPa 0,0 l/m 1,4 km/h (1 Bft) W 263 0 min 0,000 mm 0,0 UV-I 76 W/m 16,6 C 19,4 C 3,2 km/h (1 Bft) 95,74 %
23.06.2017 06:14 19,3 C 26,7 C 83 % 1009,8 hPa 0,0 l/m 0,0 km/h (0 Bft) W 263 0 min 0,000 mm 0,0 UV-I 81 W/m 16,3 C 19,3 C 0,0 km/h (0 Bft) 97,87 %
23.06.2017 06:16 19,3 C 26,7 C 84 % 1009,8 hPa 0,0 l/m 0,0 km/h (0 Bft) W 263 0 min 0,000 mm 0,0 UV-I 85 W/m 16,5 C 19,3 C 0,0 km/h (0 Bft) 97,87 %
23.06.2017 06:18 19,4 C 26,7 C 85 % 1009,8 hPa 0,0 l/m 0,0 km/h (0 Bft) W 263 0 min 0,000 mm 0,0 UV-I 87 W/m 16,8 C 19,4 C 1,6 km/h (1 Bft) 98,00 %
23.06.2017 06:20 19,4 C 26,7 C 85 % 1009,8 hPa 0,0 l/m 0,1 km/h (0 Bft) W 263 0 min 0,000 mm 0,0 UV-I 83 W/m 16,8 C 19,4 C 1,6 km/h (1 Bft) 97,87 %
23.06.2017 06:22 19,4 C 26,7 C 85 % 1009,8 hPa 0,0 l/m 0,0 km/h (0 Bft) W 263 0 min 0,000 mm 0,0 UV-I 75 W/m 16,8 C 19,4 C 0,0 km/h (0 Bft) 95,74 %
23.06.2017 06:24 19,6 C 26,7 C 85 % 1009,8 hPa 0,0 l/m 0,0 km/h (0 Bft) W 263 0 min 0,000 mm 0,0 UV-I 66 W/m 17,0 C 19,6 C 0,0 km/h (0 Bft) 94,23 %
23.06.2017 06:26 19,6 C 26,7 C 85 % 1010,0 hPa 0,0 l/m 0,0 km/h (0 Bft) W 263 0 min 0,000 mm 0,0 UV-I 61 W/m 17,0 C 19,6 C 1,6 km/h (1 Bft) 97,87 %
23.06.2017 06:28 19,7 C 26,7 C 84 % 1009,9 hPa 0,0 l/m 0,3 km/h (0 Bft) W 263 0 min 0,000 mm 0,0 UV-I 58 W/m 16,9 C 19,7 C 1,6 km/h (1 Bft) 97,22 %
23.06.2017 06:30 19,7 C 26,7 C 84 % 1010,0 hPa 0,0 l/m 1,6 km/h (1 Bft) W 263 0 min 0,000 mm 0,0 UV-I 58 W/m 16,9 C 19,7 C 3,2 km/h (1 Bft) 96,00 %
23.06.2017 06:32 19,8 C 26,7 C 83 % 1010,0 hPa 0,0 l/m 0,1 km/h (0 Bft) W 263 0 min 0,000 mm 0,0 UV-I 54 W/m 16,8 C 19,8 C 1,6 km/h (1 Bft) 97,87 %
23.06.2017 06:34 19,8 C 26,7 C 83 % 1010,0 hPa 0,0 l/m 0,2 km/h (0 Bft) W 263 0 min 0,000 mm 0,0 UV-I 53 W/m 16,8 C 19,8 C 1,6 km/h (1 Bft) 97,87 %
23.06.2017 06:36 19,9 C 26,7 C 84 % 1010,0 hPa 0,0 l/m 0,0 km/h (0 Bft) W 263 0 min 0,000 mm 0,0 UV-I 56 W/m 17,1 C 19,9 C 0,0 km/h (0 Bft) 95,74 %
23.06.2017 06:38 19,9 C 26,7 C 86 % 1010,0 hPa 0,0 l/m 0,0 km/h (0 Bft) W 263 0 min 0,000 mm 0,0 UV-I 62 W/m 17,5 C 19,9 C 0,0 km/h (0 Bft) 96,00 %
23.06.2017 06:40 19,8 C 26,7 C 86 % 1010,1 hPa 0,0 l/m 0,0 km/h (0 Bft) W 263 0 min 0,000 mm 0,0 UV-I 65 W/m 17,4 C 19,8 C 0,0 km/h (0 Bft) 92,00 %
23.06.2017 06:42 19,7 C 26,7 C 88 % 1010,1 hPa 0,0 l/m 1,8 km/h (1 Bft) W 263 0 min 0,000 mm 0,0 UV-I 68 W/m 17,7 C 19,7 C 3,2 km/h (1 Bft) 89,36 %
23.06.2017 06:44 19,6 C 26,7 C 88 % 1010,1 hPa 0,0 l/m 0,3 km/h (0 Bft) W 263 0 min 0,000 mm 0,0 UV-I 68 W/m 17,6 C 19,6 C 1,6 km/h (1 Bft) 95,74 %
23.06.2017 06:46 19,5 C 26,7 C 88 % 1010,2 hPa 0,0 l/m 0,8 km/h (0 Bft) W 263 0 min 0,000 mm 0,0 UV-I 62 W/m 17,5 C 19,5 C 1,6 km/h (1 Bft) 93,62 %
23.06.2017 06:48 19,5 C 26,7 C 88 % 1010,2 hPa 0,0 l/m 1,2 km/h (1 Bft) W 266 0 min 0,000 mm 0,0 UV-I 57 W/m 17,5 C 19,5 C 3,2 km/h (1 Bft) 97,14 %
23.06.2017 06:50 19,4 C 26,7 C 89 % 1010,2 hPa 0,0 l/m 0,1 km/h (0 Bft) W 266 0 min 0,000 mm 0,0 UV-I 57 W/m 17,5 C 19,4 C 1,6 km/h (1 Bft) 90,00 %
23.06.2017 06:52 19,4 C 26,7 C 89 % 1010,2 hPa 0,0 l/m 1,4 km/h (1 Bft) W 266 0 min 0,000 mm 0,0 UV-I 60 W/m 17,5 C 19,4 C 1,6 km/h (1 Bft) 98,00 %
23.06.2017 06:54 19,4 C 26,7 C 88 % 1010,2 hPa 0,0 l/m 2,1 km/h (1 Bft) W 266 0 min 0,000 mm 0,0 UV-I 64 W/m 17,4 C 19,4 C 3,2 km/h (1 Bft) 93,62 %
23.06.2017 06:56 19,5 C 26,7 C 88 % 1010,3 hPa 0,0 l/m 1,6 km/h (1 Bft) W-NW 282 0 min 0,000 mm 0,0 UV-I 70 W/m 17,5 C 19,5 C 4,8 km/h (1 Bft) 89,36 %
23.06.2017 06:58 19,5 C 26,7 C 86 % 1010,2 hPa 0,0 l/m 0,2 km/h (0 Bft) W-NW 282 0 min 0,000 mm 0,0 UV-I 77 W/m 17,1 C 19,5 C 1,6 km/h (1 Bft) 97,87 %
23.06.2017 07:00 19,6 C 26,7 C 86 % 1010,3 hPa 0,0 l/m 1,8 km/h (1 Bft) W 281 0 min 0,050 mm 0,0 UV-I 82 W/m 17,2 C 19,6 C 3,2 km/h (1 Bft) 100,00 %
23.06.2017 07:02 19,7 C 26,7 C 86 % 1010,3 hPa 0,0 l/m 0,2 km/h (0 Bft) W 281 0 min 0,000 mm 0,0 UV-I 80 W/m 17,3 C 19,7 C 1,6 km/h (1 Bft) 91,49 %
23.06.2017 07:04 19,8 C 26,7 C 87 % 1010,3 hPa 0,0 l/m 0,0 km/h (0 Bft) W 281 0 min 0,000 mm 0,0 UV-I 77 W/m 17,6 C 19,8 C 0,0 km/h (0 Bft) 95,74 %
23.06.2017 07:06 19,8 C 26,7 C 86 % 1010,3 hPa 0,0 l/m 0,0 km/h (0 Bft) W 281 0 min 0,000 mm 0,0 UV-I 78 W/m 17,4 C 19,8 C 0,0 km/h (0 Bft) 100,00 %
23.06.2017 07:08 19,9 C 26,7 C 86 % 1010,3 hPa 0,0 l/m 0,0 km/h (0 Bft) W 281 0 min 0,000 mm 0,0 UV-I 75 W/m 17,5 C 19,9 C 0,0 km/h (0 Bft) 97,87 %
23.06.2017 07:10 19,9 C 26,7 C 87 % 1010,3 hPa 0,0 l/m 0,5 km/h (0 Bft) W 281 0 min 0,000 mm 0,0 UV-I 71 W/m 17,7 C 19,9 C 3,2 km/h (1 Bft) 97,92 %
23.06.2017 07:12 19,9 C 26,7 C 86 % 1010,2 hPa 0,0 l/m 0,8 km/h (0 Bft) W 281 0 min 0,000 mm 0,0 UV-I 70 W/m 17,5 C 19,9 C 3,2 km/h (1 Bft) 93,62 %
23.06.2017 07:14 19,9 C 26,7 C 84 % 1010,3 hPa 0,0 l/m 0,0 km/h (0 Bft) W 281 0 min 0,000 mm 0,0 UV-I 76 W/m 17,1 C 19,9 C 0,0 km/h (0 Bft) 97,87 %
23.06.2017 07:16 20,1 C 26,7 C 85 % 1010,3 hPa 0,0 l/m 0,0 km/h (0 Bft) W 281 0 min 0,000 mm 0,0 UV-I 86 W/m 17,5 C 20,1 C 0,0 km/h (0 Bft) 97,87 %
23.06.2017 07:18 20,1 C 26,7 C 86 % 1010,3 hPa 0,0 l/m 0,0 km/h (0 Bft) W 281 0 min 0,000 mm 0,0 UV-I 86 W/m 17,7 C 20,1 C 1,6 km/h (1 Bft) 97,87 %
23.06.2017 07:20 20,2 C 26,7 C 85 % 1010,3 hPa 0,0 l/m 0,2 km/h (0 Bft) W 281 0 min 0,000 mm 0,0 UV-I 82 W/m 17,6 C 20,2 C 1,6 km/h (1 Bft) 91,49 %
23.06.2017 07:22 20,2 C 26,7 C 85 % 1010,2 hPa 0,0 l/m 0,1 km/h (0 Bft) W 281 0 min 0,000 mm 0,0 UV-I 88 W/m 17,6 C 20,2 C 1,6 km/h (1 Bft) 97,14 %
23.06.2017 07:24 20,3 C 26,7 C 84 % 1010,2 hPa 0,0 l/m 0,4 km/h (0 Bft) W-SW 240 0 min 0,000 mm 0,0 UV-I 97 W/m 17,5 C 20,3 C 1,6 km/h (1 Bft) 95,74 %
23.06.2017 07:26 20,4 C 26,7 C 84 % 1010,2 hPa 0,0 l/m 1,8 km/h (1 Bft) SW 230 0 min 0,000 mm 0,0 UV-I 96 W/m 17,6 C 20,4 C 4,8 km/h (1 Bft) 97,87 %
23.06.2017 07:28 20,5 C 26,7 C 85 % 1010,2 hPa 0,0 l/m 3,1 km/h (1 Bft) SW 222 0 min 0,000 mm 0,0 UV-I 96 W/m 17,9 C 20,5 C 6,4 km/h (2 Bft) 93,62 %
23.06.2017 07:30 20,6 C 26,7 C 85 % 1010,3 hPa 0,0 l/m 3,0 km/h (1 Bft) SW 222 0 min 0,000 mm 0,4 UV-I 98 W/m 18,0 C 20,6 C 4,8 km/h (1 Bft) 100,00 %
23.06.2017 07:32 20,6 C 26,7 C 84 % 1010,2 hPa 0,0 l/m 1,9 km/h (1 Bft) SW 221 0 min 0,000 mm 0,5 UV-I 105 W/m 17,8 C 20,6 C 4,8 km/h (1 Bft) 95,74 %
23.06.2017 07:34 20,6 C 26,7 C 84 % 1010,2 hPa 0,0 l/m 2,5 km/h (1 Bft) SW 220 0 min 0,000 mm 0,5 UV-I 105 W/m 17,8 C 20,6 C 4,8 km/h (1 Bft) 98,00 %
23.06.2017 07:36 20,7 C 26,7 C 84 % 1010,2 hPa 0,0 l/m 3,3 km/h (1 Bft) SW 220 0 min 0,000 mm 0,5 UV-I 98 W/m 17,9 C 20,7 C 4,8 km/h (1 Bft) 100,00 %
23.06.2017 07:38 20,7 C 26,7 C 84 % 1010,2 hPa 0,0 l/m 3,8 km/h (1 Bft) SW 226 0 min 0,000 mm 0,6 UV-I 144 W/m 17,9 C 20,7 C 8,0 km/h (2 Bft) 97,87 %
23.06.2017 07:40 20,8 C 26,7 C 84 % 1010,3 hPa 0,0 l/m 4,7 km/h (1 Bft) SW 225 2 min 0,000 mm 0,6 UV-I 264 W/m 18,0 C 20,8 C 6,4 km/h (2 Bft) 97,87 %
23.06.2017 07:42 21,0 C 26,7 C 83 % 1010,3 hPa 0,0 l/m 5,6 km/h (1 Bft) S-SW 205 2 min 0,000 mm 0,6 UV-I 232 W/m 18,0 C 21,0 C 8,0 km/h (2 Bft) 100,00 %
23.06.2017 07:44 21,2 C 26,7 C 84 % 1010,3 hPa 0,0 l/m 2,8 km/h (1 Bft) S-SW 205 0 min 0,000 mm 0,6 UV-I 154 W/m 18,4 C 21,2 C 4,8 km/h (1 Bft) 95,74 %
23.06.2017 07:46 21,3 C 26,7 C 84 % 1010,3 hPa 0,0 l/m 3,4 km/h (1 Bft) S-SW 205 0 min 0,000 mm 0,6 UV-I 201 W/m 18,5 C 21,3 C 4,8 km/h (1 Bft) 100,00 %
23.06.2017 07:48 21,3 C 26,7 C 82 % 1010,3 hPa 0,0 l/m 4,8 km/h (1 Bft) SW 217 0 min 0,000 mm 0,6 UV-I 195 W/m 18,1 C 21,3 C 8,0 km/h (2 Bft) 95,83 %
23.06.2017 07:50 21,4 C 26,7 C 82 % 1010,3 hPa 0,0 l/m 6,1 km/h (2 Bft) SW 215 0 min 0,000 mm 0,5 UV-I 170 W/m 18,2 C 21,4 C 8,0 km/h (2 Bft) 97,87 %
23.06.2017 07:52 21,6 C 26,7 C 82 % 1010,3 hPa 0,0 l/m 5,9 km/h (2 Bft) S-SW 209 0 min 0,000 mm 0,5 UV-I 168 W/m 18,4 C 21,6 C 8,0 km/h (2 Bft) 100,00 %
23.06.2017 07:54 21,7 C 26,7 C 82 % 1010,4 hPa 0,0 l/m 4,0 km/h (1 Bft) S-SW 209 0 min 0,000 mm 0,5 UV-I 163 W/m 18,5 C 21,7 C 8,0 km/h (2 Bft) 97,87 %
23.06.2017 07:56 21,8 C 26,7 C 81 % 1010,3 hPa 0,0 l/m 1,9 km/h (1 Bft) S-SW 209 0 min 0,000 mm 0,6 UV-I 157 W/m 18,4 C 21,8 C 6,4 km/h (2 Bft) 92,11 %
23.06.2017 07:58 21,8 C 26,7 C 81 % 1010,3 hPa 0,0 l/m 2,1 km/h (1 Bft) S-SW 209 0 min 0,000 mm 0,7 UV-I 193 W/m 18,4 C 21,8 C 4,8 km/h (1 Bft) 98,11 %
23.06.2017 08:00 21,9 C 26,7 C 82 % 1010,3 hPa 0,0 l/m 2,9 km/h (1 Bft) S-SW 209 2 min 0,077 mm 0,7 UV-I 253 W/m 18,7 C 21,9 C 4,8 km/h (1 Bft) 100,00 %
23.06.2017 08:02 22,1 C 26,7 C 80 % 1010,4 hPa 0,0 l/m 3,1 km/h (1 Bft) S-SW 209 0 min 0,000 mm 0,8 UV-I 220 W/m 18,5 C 22,1 C 4,8 km/h (1 Bft) 97,87 %
23.06.2017 08:04 22,3 C 26,7 C 80 % 1010,5 hPa 0,0 l/m 3,4 km/h (1 Bft) S-SW 209 0 min 0,000 mm 0,7 UV-I 211 W/m 18,7 C 22,3 C 4,8 km/h (1 Bft) 100,00 %
23.06.2017 08:06 22,3 C 26,7 C 80 % 1010,5 hPa 0,0 l/m 4,1 km/h (1 Bft) W 278 0 min 0,000 mm 0,8 UV-I 207 W/m 18,7 C 22,3 C 6,4 km/h (2 Bft) 95,74 %
23.06.2017 08:08 22,4 C 26,7 C 79 % 1010,5 hPa 0,0 l/m 2,2 km/h (1 Bft) W 277 0 min 0,000 mm 0,8 UV-I 200 W/m 18,6 C 22,4 C 4,8 km/h (1 Bft) 96,00 %
23.06.2017 08:10 22,5 C 26,7 C 81 % 1010,5 hPa 0,0 l/m 2,4 km/h (1 Bft) W 277 0 min 0,000 mm 0,8 UV-I 214 W/m 19,1 C 22,5 C 4,8 km/h (1 Bft) 95,74 %
23.06.2017 08:12 22,7 C 26,7 C 82 % 1010,5 hPa 0,0 l/m 2,9 km/h (1 Bft) W 277 2 min 0,000 mm 0,9 UV-I 261 W/m 19,5 C 22,7 C 4,8 km/h (1 Bft) 98,00 %
23.06.2017 08:14 22,9 C 26,7 C 80 % 1010,4 hPa 0,0 l/m 1,4 km/h (1 Bft) W 277 2 min 0,000 mm 1,0 UV-I 376 W/m 19,3 C 22,9 C 4,8 km/h (1 Bft) 97,87 %
23.06.2017 08:16 23,1 C 26,7 C 78 % 1010,5 hPa 0,0 l/m 3,1 km/h (1 Bft) W 277 2 min 0,000 mm 0,8 UV-I 436 W/m 19,0 C 23,1 C 4,8 km/h (1 Bft) 100,00 %
23.06.2017 08:18 23,2 C 26,7 C 77 % 1010,4 hPa 0,0 l/m 4,0 km/h (1 Bft) SW 227 0 min 0,000 mm 0,6 UV-I 216 W/m 18,9 C 23,2 C 6,4 km/h (2 Bft) 93,62 %
23.06.2017 08:20 23,2 C 26,7 C 76 % 1010,4 hPa 0,0 l/m 4,6 km/h (1 Bft) S-SW 194 0 min 0,000 mm 0,6 UV-I 162 W/m 18,7 C 23,2 C 6,4 km/h (2 Bft) 95,74 %
23.06.2017 08:22 23,3 C 26,7 C 76 % 1010,4 hPa 0,0 l/m 3,4 km/h (1 Bft) S-SW 195 0 min 0,000 mm 0,7 UV-I 168 W/m 18,8 C 23,3 C 6,4 km/h (2 Bft) 93,62 %
23.06.2017 08:24 23,3 C 26,7 C 76 % 1010,5 hPa 0,0 l/m 5,1 km/h (1 Bft) W-SW 238 0 min 0,000 mm 0,7 UV-I 152 W/m 18,8 C 23,3 C 9,7 km/h (2 Bft) 93,62 %
23.06.2017 08:26 23,3 C 26,7 C 75 % 1010,5 hPa 0,0 l/m 4,7 km/h (1 Bft) SW 227 0 min 0,000 mm 0,7 UV-I 135 W/m 18,6 C 23,3 C 6,4 km/h (2 Bft) 98,00 %
23.06.2017 08:28 23,2 C 26,7 C 76 % 1010,5 hPa 0,0 l/m 5,3 km/h (1 Bft) SW 231 0 min 0,000 mm 0,8 UV-I 131 W/m 18,7 C 23,2 C 8,0 km/h (2 Bft) 94,44 %
23.06.2017 08:30 23,3 C 26,7 C 77 % 1010,6 hPa 0,0 l/m 3,6 km/h (1 Bft) SW 231 0 min 0,000 mm 1,0 UV-I 180 W/m 19,0 C 23,3 C 6,4 km/h (2 Bft) 95,74 %
23.06.2017 08:32 23,3 C 26,7 C 78 % 1010,6 hPa 0,0 l/m 4,0 km/h (1 Bft) W-SW 252 0 min 0,000 mm 1,2 UV-I 238 W/m 19,2 C 23,3 C 6,4 km/h (2 Bft) 95,74 %
23.06.2017 08:34 23,4 C 26,7 C 77 % 1010,7 hPa 0,0 l/m 3,2 km/h (1 Bft) W 265 2 min 0,000 mm 1,2 UV-I 339 W/m 19,1 C 23,4 C 4,8 km/h (1 Bft) 97,87 %
23.06.2017 08:36 23,7 C 26,7 C 76 % 1010,7 hPa 0,0 l/m 1,2 km/h (1 Bft) W 265 2 min 0,000 mm 1,2 UV-I 313 W/m 19,2 C 23,7 C 3,2 km/h (1 Bft) 87,23 %
23.06.2017 08:38 23,8 C 26,7 C 75 % 1010,7 hPa 0,0 l/m 2,0 km/h (1 Bft) W 265 2 min 0,000 mm 1,2 UV-I 329 W/m 19,1 C 23,8 C 4,8 km/h (1 Bft) 95,74 %
23.06.2017 08:40 23,9 C 26,7 C 74 % 1010,8 hPa 0,0 l/m 2,7 km/h (1 Bft) W 267 2 min 0,000 mm 1,0 UV-I 315 W/m 19,0 C 23,9 C 4,8 km/h (1 Bft) 94,00 %
23.06.2017 08:42 23,9 C 26,7 C 73 % 1010,8 hPa 0,0 l/m 4,1 km/h (1 Bft) W 277 0 min 0,000 mm 0,7 UV-I 271 W/m 18,8 C 23,9 C 4,8 km/h (1 Bft) 95,74 %
23.06.2017 08:44 23,9 C 26,7 C 74 % 1010,8 hPa 0,0 l/m 2,7 km/h (1 Bft) W 277 0 min 0,000 mm 0,6 UV-I 163 W/m 19,0 C 23,9 C 6,4 km/h (2 Bft) 91,49 %
23.06.2017 08:46 23,9 C 26,7 C 74 % 1010,8 hPa 0,0 l/m 3,5 km/h (1 Bft) W-SW 257 0 min 0,000 mm 0,8 UV-I 194 W/m 19,0 C 23,9 C 8,0 km/h (2 Bft) 93,62 %
23.06.2017 08:48 23,9 C 26,7 C 72 % 1010,8 hPa 0,0 l/m 3,8 km/h (1 Bft) W 259 0 min 0,000 mm 0,9 UV-I 215 W/m 18,5 C 23,9 C 6,4 km/h (2 Bft) 93,62 %
23.06.2017 08:50 23,9 C 26,7 C 73 % 1010,8 hPa 0,0 l/m 2,4 km/h (1 Bft) W-SW 258 0 min 0,000 mm 0,8 UV-I 195 W/m 18,8 C 23,9 C 4,8 km/h (1 Bft) 95,74 %
23.06.2017 08:52 23,9 C 26,7 C 74 % 1010,9 hPa 0,0 l/m 3,6 km/h (1 Bft) W 281 0 min 0,000 mm 0,4 UV-I 130 W/m 19,0 C 23,9 C 9,7 km/h (2 Bft) 93,62 %
23.06.2017 08:54 23,9 C 26,7 C 74 % 1010,9 hPa 0,0 l/m 2,5 km/h (1 Bft) W 281 0 min 0,000 mm 0,0 UV-I 89 W/m 19,0 C 23,9 C 4,8 km/h (1 Bft) 93,62 %
23.06.2017 08:56 23,8 C 26,7 C 75 % 1011,0 hPa 0,0 l/m 4,2 km/h (1 Bft) W-NW 288 0 min 0,000 mm 0,6 UV-I 107 W/m 19,1 C 23,8 C 6,4 km/h (2 Bft) 94,00 %
23.06.2017 08:58 23,8 C 26,7 C 75 % 1010,9 hPa 0,0 l/m 3,7 km/h (1 Bft) W 278 0 min 0,000 mm 0,7 UV-I 120 W/m 19,1 C 23,8 C 6,4 km/h (2 Bft) 95,74 %
23.06.2017 09:00 23,8 C 26,7 C 75 % 1011,0 hPa 0,0 l/m 4,7 km/h (1 Bft) W 263 0 min 0,152 mm 0,8 UV-I 144 W/m 19,1 C 23,8 C 9,7 km/h (2 Bft) 91,49 %
23.06.2017 09:02 23,8 C 26,7 C 74 % 1011,0 hPa 0,0 l/m 5,7 km/h (1 Bft) W 260 0 min 0,000 mm 0,8 UV-I 182 W/m 18,9 C 23,8 C 12,9 km/h (3 Bft) 93,62 %
23.06.2017 09:04 23,9 C 26,7 C 74 % 1011,0 hPa 0,0 l/m 6,2 km/h (2 Bft) W-SW 258 0 min 0,000 mm 0,8 UV-I 173 W/m 19,0 C 23,9 C 12,9 km/h (3 Bft) 91,49 %
23.06.2017 09:06 24,0 C 26,7 C 73 % 1011,0 hPa 0,0 l/m 3,8 km/h (1 Bft) W 262 0 min 0,000 mm 1,1 UV-I 221 W/m 18,9 C 24,0 C 6,4 km/h (2 Bft) 95,74 %
23.06.2017 09:08 24,2 C 26,7 C 71 % 1011,0 hPa 0,0 l/m 7,1 km/h (2 Bft) W 271 0 min 0,000 mm 1,3 UV-I 214 W/m 18,6 C 24,0 C 17,7 km/h (3 Bft) 93,75 %
23.06.2017 09:10 24,3 C 26,7 C 70 % 1011,0 hPa 0,0 l/m 5,7 km/h (1 Bft) W-SW 252 0 min 0,000 mm 1,4 UV-I 205 W/m 18,5 C 24,3 C 12,9 km/h (3 Bft) 84,21 %
23.06.2017 09:12 24,4 C 26,7 C 70 % 1011,0 hPa 0,0 l/m 6,3 km/h (2 Bft) SW 234 0 min 0,000 mm 1,9 UV-I 312 W/m 18,6 C 24,4 C 11,3 km/h (2 Bft) 97,87 %
23.06.2017 09:14 24,7 C 26,7 C 68 % 1011,0 hPa 0,0 l/m 9,3 km/h (2 Bft) W-NW 287 2 min 0,000 mm 2,2 UV-I 683 W/m 18,4 C 24,0 C 14,5 km/h (3 Bft) 95,74 %
23.06.2017 09:16 25,1 C 26,7 C 67 % 1010,9 hPa 0,0 l/m 7,7 km/h (2 Bft) SW 232 2 min 0,000 mm 1,9 UV-I 689 W/m 18,5 C 24,8 C 12,9 km/h (3 Bft) 93,62 %
23.06.2017 09:18 25,4 C 26,7 C 66 % 1010,9 hPa 0,0 l/m 11,3 km/h (2 Bft) SW 236 2 min 0,000 mm 1,3 UV-I 581 W/m 18,6 C 24,4 C 19,3 km/h (3 Bft) 93,62 %
23.06.2017 09:20 25,4 C 26,7 C 65 % 1011,0 hPa 0,2 l/m 18,4 km/h (3 Bft) W-SW 253 0 min 0,000 mm 1,0 UV-I 182 W/m 18,3 C 23,4 C 38,6 km/h (5 Bft) 95,74 %
23.06.2017 09:22 25,3 C 26,7 C 65 % 1011,1 hPa 0,2 l/m 20,7 km/h (4 Bft) W 266 0 min 0,000 mm 1,2 UV-I 181 W/m 18,2 C 23,0 C 38,6 km/h (5 Bft) 95,74 %
23.06.2017 09:24 25,2 C 26,7 C 65 % 1011,2 hPa 0,0 l/m 15,4 km/h (3 Bft) W-SW 241 0 min 0,000 mm 1,7 UV-I 257 W/m 18,1 C 23,5 C 30,6 km/h (5 Bft) 98,00 %
23.06.2017 09:26 25,2 C 26,7 C 64 % 1011,0 hPa 0,0 l/m 20,4 km/h (4 Bft) W-SW 244 2 min 0,000 mm 2,2 UV-I 516 W/m 17,9 C 22,9 C 38,6 km/h (5 Bft) 95,74 %
23.06.2017 09:28 25,3 C 26,7 C 61 % 1011,1 hPa 0,0 l/m 23,0 km/h (4 Bft) W-SW 238 2 min 0,000 mm 2,2 UV-I 612 W/m 17,2 C 22,7 C 37,0 km/h (5 Bft) 98,00 %
23.06.2017 09:30 25,7 C 26,7 C 61 % 1011,0 hPa 0,0 l/m 13,9 km/h (3 Bft) W-SW 248 2 min 0,000 mm 2,4 UV-I 683 W/m 17,6 C 24,3 C 20,9 km/h (4 Bft) 94,74 %
23.06.2017 09:32 25,9 C 26,7 C 60 % 1011,1 hPa 0,0 l/m 18,0 km/h (3 Bft) W 259 2 min 0,000 mm 2,1 UV-I 742 W/m 17,5 C 24,0 C 27,4 km/h (4 Bft) 97,87 %
23.06.2017 09:34 26,1 C 26,7 C 60 % 1011,0 hPa 0,0 l/m 14,0 km/h (3 Bft) W-SW 242 2 min 0,000 mm 1,7 UV-I 365 W/m 17,7 C 24,8 C 24,1 km/h (4 Bft) 93,62 %
23.06.2017 09:36 26,2 C 26,7 C 59 % 1011,1 hPa 0,0 l/m 16,8 km/h (3 Bft) S-SW 205 0 min 0,000 mm 2,0 UV-I 314 W/m 17,5 C 24,5 C 33,8 km/h (5 Bft) 95,74 %
23.06.2017 09:38 26,2 C 26,7 C 58 % 1011,1 hPa 0,0 l/m 18,7 km/h (3 Bft) W 261 0 min 0,000 mm 1,8 UV-I 332 W/m 17,3 C 24,3 C 27,4 km/h (4 Bft) 97,92 %
23.06.2017 09:40 26,3 C 26,7 C 59 % 1011,2 hPa 0,0 l/m 16,3 km/h (3 Bft) W-SW 257 0 min 0,000 mm 1,4 UV-I 263 W/m 17,6 C 24,7 C 25,7 km/h (4 Bft) 95,74 %
23.06.2017 09:42 26,3 C 26,7 C 59 % 1011,2 hPa 0,0 l/m 17,2 km/h (3 Bft) W 266 0 min 0,000 mm 1,5 UV-I 286 W/m 17,6 C 24,6 C 25,7 km/h (4 Bft) 100,00 %
23.06.2017 09:44 26,2 C 26,7 C 58 % 1011,2 hPa 0,0 l/m 22,7 km/h (4 Bft) W-SW 248 0 min 0,000 mm 1,8 UV-I 324 W/m 17,3 C 24,0 C 32,2 km/h (5 Bft) 97,92 %
23.06.2017 09:46 26,3 C 26,7 C 58 % 1011,3 hPa 0,0 l/m 20,6 km/h (4 Bft) W-SW 237 2 min 0,000 mm 1,9 UV-I 482 W/m 17,4 C 24,3 C 35,4 km/h (5 Bft) 100,00 %
23.06.2017 09:48 26,3 C 26,7 C 59 % 1011,4 hPa 0,0 l/m 16,8 km/h (3 Bft) W-SW 246 2 min 0,000 mm 1,2 UV-I 382 W/m 17,6 C 24,7 C 41,8 km/h (6 Bft) 97,87 %
23.06.2017 09:50 26,3 C 26,7 C 57 % 1011,3 hPa 0,0 l/m 19,0 km/h (3 Bft) W-SW 257 0 min 0,000 mm 1,2 UV-I 221 W/m 17,1 C 24,4 C 29,0 km/h (5 Bft) 97,92 %
23.06.2017 09:52 26,3 C 26,7 C 58 % 1011,3 hPa 0,0 l/m 17,7 km/h (3 Bft) W 261 0 min 0,000 mm 1,6 UV-I 257 W/m 17,4 C 24,6 C 25,7 km/h (4 Bft) 91,43 %
23.06.2017 09:54 26,3 C 26,7 C 57 % 1011,3 hPa 0,0 l/m 21,3 km/h (4 Bft) W-SW 243 0 min 0,000 mm 2,0 UV-I 311 W/m 17,1 C 24,2 C 32,2 km/h (5 Bft) 98,00 %
23.06.2017 09:56 26,3 C 26,7 C 57 % 1011,4 hPa 0,0 l/m 19,0 km/h (3 Bft) SW 231 0 min 0,000 mm 1,5 UV-I 276 W/m 17,1 C 24,4 C 30,6 km/h (5 Bft) 100,00 %
23.06.2017 09:58 26,2 C 26,7 C 57 % 1011,3 hPa 0,0 l/m 21,9 km/h (4 Bft) S-SW 209 0 min 0,000 mm 1,2 UV-I 229 W/m 17,0 C 24,0 C 32,2 km/h (5 Bft) 97,87 %
23.06.2017 10:00 26,2 C 26,7 C 57 % 1011,4 hPa 0,0 l/m 19,6 km/h (3 Bft) W-NW 298 0 min 0,305 mm 0,9 UV-I 179 W/m 17,0 C 24,3 C 29,0 km/h (5 Bft) 100,00 %
23.06.2017 10:02 25,9 C 26,7 C 61 % 1011,3 hPa 0,0 l/m 16,4 km/h (3 Bft) W 268 0 min 0,000 mm 1,0 UV-I 150 W/m 17,8 C 24,2 C 27,4 km/h (4 Bft) 100,00 %
23.06.2017 10:04 25,6 C 26,7 C 63 % 1011,3 hPa 0,0 l/m 15,8 km/h (3 Bft) W-SW 254 0 min 0,000 mm 1,3 UV-I 165 W/m 18,0 C 23,9 C 25,7 km/h (4 Bft) 97,87 %
23.06.2017 10:06 25,1 C 26,7 C 65 % 1011,3 hPa 0,0 l/m 15,5 km/h (3 Bft) W-SW 252 0 min 0,000 mm 2,4 UV-I 278 W/m 18,0 C 23,4 C 30,6 km/h (5 Bft) 95,74 %
23.06.2017 10:08 25,0 C 26,7 C 65 % 1011,2 hPa 0,0 l/m 18,3 km/h (3 Bft) SW 223 2 min 0,000 mm 2,4 UV-I 467 W/m 17,9 C 22,9 C 25,7 km/h (4 Bft) 100,00 %
23.06.2017 10:10 25,0 C 26,7 C 66 % 1011,3 hPa 0,0 l/m 17,3 km/h (3 Bft) SW 224 2 min 0,000 mm 2,9 UV-I 445 W/m 18,2 C 23,0 C 30,6 km/h (5 Bft) 97,37 %
23.06.2017 10:12 25,2 C 26,7 C 65 % 1011,3 hPa 0,0 l/m 18,0 km/h (3 Bft) W-SW 251 2 min 0,000 mm 3,4 UV-I 502 W/m 18,1 C 23,2 C 27,4 km/h (4 Bft) 100,00 %
23.06.2017 10:14 25,6 C 26,7 C 65 % 1011,3 hPa 0,0 l/m 13,5 km/h (3 Bft) W-SW 248 2 min 0,000 mm 3,4 UV-I 814 W/m 18,5 C 24,2 C 25,7 km/h (4 Bft) 94,00 %
23.06.2017 10:16 25,8 C 26,7 C 62 % 1011,2 hPa 0,0 l/m 21,4 km/h (4 Bft) SW 236 2 min 0,000 mm 3,1 UV-I 842 W/m 18,0 C 23,6 C 35,4 km/h (5 Bft) 98,00 %
23.06.2017 10:18 26,2 C 26,7 C 63 % 1011,2 hPa 0,0 l/m 17,7 km/h (3 Bft) W 275 2 min 0,000 mm 3,6 UV-I 843 W/m 18,6 C 24,4 C 25,7 km/h (4 Bft) 97,44 %
23.06.2017 10:20 26,4 C 26,7 C 61 % 1011,3 hPa 0,0 l/m 14,6 km/h (3 Bft) W-SW 242 2 min 0,000 mm 3,4 UV-I 834 W/m 18,3 C 25,1 C 24,1 km/h (4 Bft) 93,62 %
23.06.2017 10:22 26,6 C 26,7 C 60 % 1011,3 hPa 0,0 l/m 17,2 km/h (3 Bft) W 269 2 min 0,000 mm 2,9 UV-I 629 W/m 18,2 C 25,0 C 24,1 km/h (4 Bft) 95,74 %
23.06.2017 10:24 26,7 C 26,7 C 59 % 1011,3 hPa 0,0 l/m 15,0 km/h (3 Bft) W-SW 247 2 min 0,000 mm 2,9 UV-I 565 W/m 18,0 C 25,4 C 29,0 km/h (5 Bft) 96,00 %
23.06.2017 10:26 26,8 C 26,7 C 60 % 1011,3 hPa 0,0 l/m 19,6 km/h (3 Bft) W 279 2 min 0,000 mm 2,8 UV-I 548 W/m 18,4 C 25,0 C 30,6 km/h (5 Bft) 95,74 %
23.06.2017 10:28 26,8 C 26,7 C 58 % 1011,3 hPa 0,0 l/m 18,6 km/h (3 Bft) W-NW 292 0 min 0,000 mm 2,2 UV-I 369 W/m 17,8 C 25,1 C 30,6 km/h (5 Bft) 91,49 %
23.06.2017 10:30 26,8 C 26,7 C 59 % 1011,3 hPa 0,0 l/m 17,7 km/h (3 Bft) W 262 0 min 0,000 mm 1,8 UV-I 295 W/m 18,1 C 25,2 C 25,7 km/h (4 Bft) 95,74 %
23.06.2017 10:32 26,7 C 26,7 C 59 % 1011,3 hPa 0,0 l/m 20,3 km/h (4 Bft) W 266 0 min 0,000 mm 1,6 UV-I 250 W/m 18,0 C 24,8 C 32,2 km/h (5 Bft) 93,62 %
23.06.2017 10:34 26,6 C 26,7 C 59 % 1011,3 hPa 0,0 l/m 17,0 km/h (3 Bft) W 260 0 min 0,000 mm 1,8 UV-I 275 W/m 17,9 C 25,0 C 32,2 km/h (5 Bft) 96,00 %
23.06.2017 10:36 26,6 C 26,7 C 59 % 1011,3 hPa 0,0 l/m 14,4 km/h (3 Bft) W 270 0 min 0,000 mm 2,1 UV-I 297 W/m 17,9 C 25,3 C 25,7 km/h (4 Bft) 97,37 %
23.06.2017 10:38 26,4 C 26,7 C 60 % 1011,3 hPa 0,0 l/m 17,2 km/h (3 Bft) W-SW 246 0 min 0,000 mm 2,3 UV-I 337 W/m 18,0 C 24,8 C 37,0 km/h (5 Bft) 92,45 %
23.06.2017 10:40 26,4 C 26,7 C 61 % 1011,4 hPa 0,0 l/m 14,9 km/h (3 Bft) W-SW 252 0 min 0,000 mm 2,4 UV-I 392 W/m 18,3 C 25,0 C 20,9 km/h (4 Bft) 93,62 %
23.06.2017 10:42 26,3 C 26,7 C 60 % 1011,3 hPa 0,0 l/m 18,2 km/h (3 Bft) W-SW 238 0 min 0,000 mm 2,3 UV-I 331 W/m 17,9 C 24,5 C 33,8 km/h (5 Bft) 94,00 %
23.06.2017 10:44 26,3 C 26,7 C 60 % 1011,6 hPa 0,0 l/m 23,1 km/h (4 Bft) W 259 0 min 0,000 mm 3,0 UV-I 311 W/m 17,9 C 24,1 C 35,4 km/h (5 Bft) 95,74 %
23.06.2017 10:46 26,5 C 26,7 C 61 % 1011,4 hPa 0,0 l/m 17,2 km/h (3 Bft) W-SW 257 0 min 0,000 mm 3,1 UV-I 311 W/m 18,4 C 24,9 C 25,7 km/h (4 Bft) 97,87 %
23.06.2017 10:48 26,5 C 26,7 C 60 % 1011,4 hPa 0,0 l/m 17,0 km/h (3 Bft) W-SW 248 0 min 0,000 mm 3,0 UV-I 329 W/m 18,1 C 24,9 C 29,0 km/h (5 Bft) 97,14 %
23.06.2017 10:50 26,5 C 26,7 C 61 % 1011,3 hPa 0,0 l/m 20,6 km/h (4 Bft) W 276 0 min 0,000 mm 2,1 UV-I 271 W/m 18,4 C 24,5 C 25,7 km/h (4 Bft) 98,00 %
23.06.2017 10:52 26,2 C 26,7 C 62 % 1011,3 hPa 0,0 l/m 18,2 km/h (3 Bft) W-SW 242 0 min 0,000 mm 2,2 UV-I 228 W/m 18,3 C 24,4 C 29,0 km/h (5 Bft) 98,00 %
23.06.2017 10:54 25,9 C 26,7 C 64 % 1011,3 hPa 0,0 l/m 16,4 km/h (3 Bft) W 267 0 min 0,000 mm 3,6 UV-I 264 W/m 18,6 C 24,2 C 24,1 km/h (4 Bft) 95,74 %
23.06.2017 10:56 25,9 C 26,7 C 66 % 1011,4 hPa 0,0 l/m 13,4 km/h (3 Bft) W-SW 238 2 min 0,000 mm 4,4 UV-I 722 W/m 19,0 C 24,6 C 19,3 km/h (3 Bft) 91,49 %
23.06.2017 10:58 26,1 C 26,7 C 65 % 1011,3 hPa 0,0 l/m 14,6 km/h (3 Bft) W 259 2 min 0,000 mm 4,2 UV-I 783 W/m 19,0 C 24,7 C 22,5 km/h (4 Bft) 94,00 %
23.06.2017 11:00 26,3 C 26,7 C 63 % 1011,4 hPa 0,0 l/m 19,7 km/h (3 Bft) W 280 2 min 0,406 mm 4,4 UV-I 801 W/m 18,7 C 24,4 C 41,8 km/h (6 Bft) 100,00 %
23.06.2017 11:02 26,5 C 26,7 C 62 % 1011,3 hPa 0,0 l/m 20,1 km/h (4 Bft) W 268 2 min 0,000 mm 4,5 UV-I 807 W/m 18,6 C 24,6 C 32,2 km/h (5 Bft) 100,00 %
23.06.2017 11:04 26,8 C 26,7 C 64 % 1011,3 hPa 0,0 l/m 12,0 km/h (2 Bft) S-SW 211 2 min 0,000 mm 4,6 UV-I 806 W/m 19,4 C 25,9 C 20,9 km/h (4 Bft) 95,16 %
23.06.2017 11:06 26,9 C 26,7 C 61 % 1011,4 hPa 0,0 l/m 16,6 km/h (3 Bft) W-SW 256 2 min 0,000 mm 4,7 UV-I 805 W/m 18,7 C 25,4 C 29,0 km/h (5 Bft) 97,87 %
23.06.2017 11:08 27,1 C 26,7 C 60 % 1011,4 hPa 0,0 l/m 13,3 km/h (3 Bft) SW 234 2 min 0,000 mm 4,6 UV-I 771 W/m 18,6 C 26,0 C 24,1 km/h (4 Bft) 93,62 %
23.06.2017 11:10 27,2 C 26,7 C 60 % 1011,4 hPa 0,0 l/m 16,7 km/h (3 Bft) W 280 2 min 0,000 mm 4,7 UV-I 793 W/m 18,7 C 25,8 C 25,7 km/h (4 Bft) 93,62 %
23.06.2017 11:12 27,3 C 26,7 C 59 % 1011,4 hPa 0,0 l/m 15,3 km/h (3 Bft) W-SW 238 2 min 0,000 mm 4,8 UV-I 811 W/m 18,6 C 26,1 C 30,6 km/h (5 Bft) 89,36 %
23.06.2017 11:14 27,4 C 26,7 C 59 % 1011,3 hPa 0,0 l/m 13,4 km/h (3 Bft) W-SW 250 2 min 0,000 mm 4,8 UV-I 817 W/m 18,7 C 26,4 C 27,4 km/h (4 Bft) 98,00 %
23.06.2017 11:16 27,6 C 26,7 C 59 % 1011,4 hPa 0,0 l/m 15,1 km/h (3 Bft) W-NW 284 2 min 0,000 mm 4,7 UV-I 798 W/m 18,8 C 26,4 C 25,7 km/h (4 Bft) 95,74 %
23.06.2017 11:18 27,8 C 26,7 C 60 % 1011,3 hPa 0,0 l/m 9,9 km/h (2 Bft) W-SW 248 2 min 0,000 mm 4,8 UV-I 802 W/m 19,3 C 27,3 C 17,7 km/h (3 Bft) 100,00 %
23.06.2017 11:20 27,9 C 26,7 C 59 % 1011,4 hPa 0,0 l/m 9,4 km/h (2 Bft) SW 228 2 min 0,000 mm 4,9 UV-I 813 W/m 19,1 C 27,4 C 16,1 km/h (3 Bft) 94,00 %
23.06.2017 11:22 28,2 C 26,7 C 59 % 1011,3 hPa 0,0 l/m 15,3 km/h (3 Bft) O 90 2 min 0,000 mm 4,9 UV-I 788 W/m 19,4 C 27,2 C 22,5 km/h (4 Bft) 95,74 %
23.06.2017 11:24 28,3 C 26,7 C 57 % 1011,3 hPa 0,0 l/m 13,3 km/h (3 Bft) W 277 2 min 0,000 mm 4,9 UV-I 812 W/m 18,9 C 27,5 C 20,9 km/h (4 Bft) 93,62 %
23.06.2017 11:26 28,3 C 26,7 C 57 % 1011,3 hPa 0,0 l/m 15,0 km/h (3 Bft) W-SW 250 2 min 0,000 mm 4,9 UV-I 816 W/m 18,9 C 27,3 C 30,6 km/h (5 Bft) 97,37 %
23.06.2017 11:28 28,3 C 26,7 C 56 % 1011,2 hPa 0,2 l/m 19,2 km/h (3 Bft) W-NW 290 2 min 0,000 mm 5,0 UV-I 814 W/m 18,7 C 27,0 C 32,2 km/h (5 Bft) 96,00 %
23.06.2017 11:30 28,3 C 26,7 C 56 % 1011,3 hPa 0,0 l/m 14,8 km/h (3 Bft) W 271 2 min 0,000 mm 5,0 UV-I 804 W/m 18,7 C 27,3 C 24,1 km/h (4 Bft) 97,87 %
23.06.2017 11:32 28,3 C 26,7 C 57 % 1011,3 hPa 0,0 l/m 11,9 km/h (2 Bft) W 265 2 min 0,000 mm 5,0 UV-I 851 W/m 18,9 C 27,6 C 20,9 km/h (4 Bft) 100,00 %
23.06.2017 11:34 28,5 C 26,7 C 57 % 1011,4 hPa 0,0 l/m 14,6 km/h (3 Bft) W-NW 294 2 min 0,000 mm 4,7 UV-I 845 W/m 19,1 C 27,6 C 29,0 km/h (5 Bft) 97,22 %
23.06.2017 11:36 28,5 C 26,7 C 56 % 1011,2 hPa 0,0 l/m 16,9 km/h (3 Bft) SW 226 2 min 0,000 mm 5,0 UV-I 829 W/m 18,8 C 27,4 C 27,4 km/h (4 Bft) 100,00 %
23.06.2017 11:38 28,7 C 26,7 C 55 % 1011,2 hPa 0,0 l/m 16,8 km/h (3 Bft) W-SW 240 2 min 0,000 mm 4,5 UV-I 841 W/m 18,7 C 27,7 C 33,8 km/h (5 Bft) 100,00 %
23.06.2017 11:40 28,9 C 26,7 C 56 % 1011,1 hPa 0,0 l/m 18,1 km/h (3 Bft) W-NW 302 2 min 0,000 mm 5,0 UV-I 848 W/m 19,2 C 27,8 C 41,8 km/h (6 Bft) 95,74 %
23.06.2017 11:42 28,9 C 26,7 C 53 % 1011,1 hPa 0,0 l/m 22,0 km/h (4 Bft) SW 225 2 min 0,000 mm 4,7 UV-I 854 W/m 18,3 C 27,6 C 33,8 km/h (5 Bft) 91,49 %
23.06.2017 11:44 28,8 C 26,7 C 52 % 1011,2 hPa 0,0 l/m 19,3 km/h (3 Bft) SW 228 2 min 0,000 mm 5,0 UV-I 848 W/m 17,9 C 27,6 C 29,0 km/h (5 Bft) 95,74 %
23.06.2017 11:46 28,8 C 26,7 C 51 % 1011,2 hPa 0,0 l/m 23,8 km/h (4 Bft) W-SW 244 2 min 0,000 mm 4,8 UV-I 803 W/m 17,6 C 27,4 C 35,4 km/h (5 Bft) 98,00 %
23.06.2017 11:48 28,8 C 26,7 C 52 % 1011,2 hPa 0,0 l/m 21,3 km/h (4 Bft) W 281 2 min 0,000 mm 4,6 UV-I 796 W/m 17,9 C 27,5 C 38,6 km/h (5 Bft) 98,00 %
23.06.2017 11:50 28,8 C 26,7 C 52 % 1011,2 hPa 0,0 l/m 19,3 km/h (3 Bft) W-SW 246 2 min 0,000 mm 5,0 UV-I 789 W/m 17,9 C 27,6 C 33,8 km/h (5 Bft) 95,74 %
23.06.2017 11:52 28,9 C 26,7 C 51 % 1011,3 hPa 0,0 l/m 25,2 km/h (4 Bft) W 260 2 min 0,000 mm 5,4 UV-I 847 W/m 17,7 C 27,4 C 33,8 km/h (5 Bft) 97,87 %
23.06.2017 11:54 28,9 C 26,7 C 51 % 1011,4 hPa 0,0 l/m 17,6 km/h (3 Bft) W-SW 244 2 min 0,000 mm 5,3 UV-I 851 W/m 17,7 C 27,9 C 27,4 km/h (4 Bft) 100,00 %
23.06.2017 11:56 28,9 C 26,7 C 50 % 1011,2 hPa 0,0 l/m 20,3 km/h (4 Bft) W-SW 247 2 min 0,000 mm 5,0 UV-I 559 W/m 17,4 C 27,7 C 33,8 km/h (5 Bft) 100,00 %
23.06.2017 11:58 29,1 C 26,7 C 51 % 1011,3 hPa 0,0 l/m 20,7 km/h (4 Bft) W 261 2 min 0,000 mm 5,3 UV-I 785 W/m 17,9 C 27,9 C 29,0 km/h (5 Bft) 97,37 %
23.06.2017 12:00 29,2 C 26,7 C 51 % 1011,1 hPa 0,0 l/m 16,0 km/h (3 Bft) W-SW 254 2 min 0,635 mm 5,2 UV-I 878 W/m 18,0 C 28,3 C 40,2 km/h (6 Bft) 97,87 %
23.06.2017 12:02 29,2 C 26,7 C 49 % 1011,1 hPa 0,0 l/m 16,6 km/h (3 Bft) W 274 2 min 0,000 mm 5,2 UV-I 842 W/m 17,4 C 28,3 C 33,8 km/h (5 Bft) 89,36 %
23.06.2017 12:04 29,2 C 26,7 C 50 % 1011,2 hPa 0,0 l/m 22,6 km/h (4 Bft) W-SW 254 2 min 0,000 mm 4,8 UV-I 577 W/m 17,7 C 28,0 C 41,8 km/h (6 Bft) 95,74 %
23.06.2017 12:06 29,1 C 26,7 C 49 % 1011,3 hPa 0,0 l/m 28,3 km/h (4 Bft) W 277 2 min 0,000 mm 5,6 UV-I 646 W/m 17,3 C 27,6 C 48,3 km/h (6 Bft) 95,74 %
23.06.2017 12:08 29,2 C 26,7 C 50 % 1011,4 hPa 0,0 l/m 13,3 km/h (3 Bft) SW 232 2 min 0,000 mm 4,9 UV-I 857 W/m 17,7 C 28,5 C 20,9 km/h (4 Bft) 100,00 %
23.06.2017 12:10 29,2 C 26,7 C 50 % 1011,4 hPa 0,0 l/m 18,7 km/h (3 Bft) S-SW 207 2 min 0,000 mm 4,4 UV-I 712 W/m 17,7 C 28,2 C 32,2 km/h (5 Bft) 91,49 %
23.06.2017 12:12 29,2 C 26,7 C 49 % 1011,2 hPa 0,0 l/m 28,7 km/h (4 Bft) W 259 2 min 0,000 mm 5,2 UV-I 781 W/m 17,4 C 27,7 C 45,1 km/h (6 Bft) 91,49 %
23.06.2017 12:14 29,2 C 26,7 C 50 % 1011,2 hPa 0,0 l/m 13,2 km/h (3 Bft) W-NW 288 2 min 0,000 mm 5,2 UV-I 895 W/m 17,7 C 28,5 C 22,5 km/h (4 Bft) 98,00 %
23.06.2017 12:16 29,2 C 26,7 C 51 % 1011,3 hPa 0,0 l/m 17,7 km/h (3 Bft) W-NW 299 2 min 0,000 mm 5,2 UV-I 868 W/m 18,0 C 28,2 C 27,4 km/h (4 Bft) 93,62 %
23.06.2017 12:18 29,3 C 26,7 C 50 % 1011,3 hPa 0,0 l/m 21,1 km/h (4 Bft) W-SW 242 2 min 0,000 mm 5,3 UV-I 879 W/m 17,8 C 28,2 C 38,6 km/h (5 Bft) 97,92 %
23.06.2017 12:20 29,3 C 26,7 C 49 % 1011,1 hPa 0,0 l/m 22,7 km/h (4 Bft) W-SW 244 2 min 0,000 mm 4,8 UV-I 771 W/m 17,5 C 28,1 C 37,0 km/h (5 Bft) 97,87 %
23.06.2017 12:22 29,1 C 26,7 C 50 % 1011,2 hPa 0,0 l/m 18,7 km/h (3 Bft) SW 221 2 min 0,000 mm 4,0 UV-I 571 W/m 17,6 C 28,0 C 38,6 km/h (5 Bft) 96,00 %
23.06.2017 12:24 29,0 C 26,7 C 50 % 1011,3 hPa 0,0 l/m 22,0 km/h (4 Bft) N-NO 16 0 min 0,000 mm 4,8 UV-I 327 W/m 17,5 C 27,7 C 35,4 km/h (5 Bft) 93,62 %
23.06.2017 12:26 29,0 C 26,7 C 50 % 1011,2 hPa 0,0 l/m 19,7 km/h (3 Bft) W-SW 250 2 min 0,000 mm 5,8 UV-I 669 W/m 17,5 C 27,8 C 29,0 km/h (5 Bft) 95,74 %
23.06.2017 12:28 29,2 C 26,7 C 51 % 1011,1 hPa 0,0 l/m 16,4 km/h (3 Bft) W-NW 291 2 min 0,000 mm 5,7 UV-I 856 W/m 18,0 C 28,3 C 27,4 km/h (4 Bft) 94,74 %
23.06.2017 12:30 29,4 C 26,7 C 50 % 1011,1 hPa 0,0 l/m 15,3 km/h (3 Bft) W-SW 252 2 min 0,000 mm 5,8 UV-I 888 W/m 17,9 C 28,6 C 29,0 km/h (5 Bft) 97,87 %
23.06.2017 12:32 29,6 C 27,2 C 50 % 1011,1 hPa 0,0 l/m 16,8 km/h (3 Bft) SW 232 2 min 0,000 mm 5,9 UV-I 902 W/m 18,1 C 28,8 C 29,0 km/h (5 Bft) 91,49 %
23.06.2017 12:34 29,8 C 26,7 C 49 % 1011,3 hPa 0,0 l/m 25,0 km/h (4 Bft) SW 227 2 min 0,000 mm 6,0 UV-I 923 W/m 17,9 C 28,7 C 49,9 km/h (6 Bft) 96,00 %
23.06.2017 12:36 29,8 C 27,2 C 48 % 1011,0 hPa 0,0 l/m 23,0 km/h (4 Bft) W 268 2 min 0,000 mm 6,1 UV-I 920 W/m 17,6 C 28,7 C 33,8 km/h (5 Bft) 94,23 %
23.06.2017 12:38 29,8 C 27,2 C 48 % 1011,2 hPa 0,0 l/m 25,5 km/h (4 Bft) W-NW 294 2 min 0,000 mm 5,9 UV-I 879 W/m 17,6 C 28,6 C 51,5 km/h (7 Bft) 91,49 %
23.06.2017 12:40 29,8 C 27,2 C 48 % 1011,1 hPa 0,0 l/m 26,1 km/h (4 Bft) W-SW 254 2 min 0,000 mm 6,1 UV-I 954 W/m 17,6 C 28,6 C 40,2 km/h (6 Bft) 93,62 %
23.06.2017 12:42 29,8 C 27,2 C 47 % 1011,2 hPa 0,0 l/m 26,1 km/h (4 Bft) W-SW 252 2 min 0,000 mm 6,1 UV-I 984 W/m 17,2 C 28,6 C 45,1 km/h (6 Bft) 95,74 %
23.06.2017 12:44 29,7 C 27,2 C 47 % 1011,2 hPa 0,0 l/m 22,6 km/h (4 Bft) W-SW 253 2 min 0,000 mm 4,5 UV-I 783 W/m 17,2 C 28,6 C 33,8 km/h (5 Bft) 93,62 %
23.06.2017 12:46 29,6 C 27,2 C 48 % 1011,2 hPa 0,0 l/m 30,0 km/h (5 Bft) SW 235 2 min 0,000 mm 5,9 UV-I 663 W/m 17,4 C 28,2 C 45,1 km/h (6 Bft) 97,50 %
23.06.2017 12:48 29,6 C 27,2 C 47 % 1011,1 hPa 0,0 l/m 24,4 km/h (4 Bft) W 269 2 min 0,000 mm 6,0 UV-I 888 W/m 17,1 C 28,4 C 38,6 km/h (5 Bft) 93,62 %
23.06.2017 12:50 29,7 C 27,2 C 47 % 1011,2 hPa 0,0 l/m 23,8 km/h (4 Bft) W-NW 293 2 min 0,000 mm 5,6 UV-I 921 W/m 17,2 C 28,6 C 41,8 km/h (6 Bft) 98,00 %
23.06.2017 12:52 29,6 C 27,2 C 47 % 1011,1 hPa 0,0 l/m 18,6 km/h (3 Bft) W 263 2 min 0,000 mm 5,6 UV-I 895 W/m 17,1 C 28,7 C 40,2 km/h (6 Bft) 93,62 %
23.06.2017 12:54 29,6 C 27,2 C 47 % 1011,1 hPa 0,0 l/m 17,8 km/h (3 Bft) W-SW 248 2 min 0,000 mm 5,0 UV-I 748 W/m 17,1 C 28,7 C 29,0 km/h (5 Bft) 92,00 %
23.06.2017 12:56 29,6 C 27,2 C 48 % 1011,2 hPa 0,0 l/m 25,1 km/h (4 Bft) W-NW 283 2 min 0,000 mm 5,7 UV-I 752 W/m 17,4 C 28,4 C 43,5 km/h (6 Bft) 97,22 %
23.06.2017 12:58 29,6 C 27,2 C 47 % 1011,1 hPa 0,0 l/m 22,9 km/h (4 Bft) SW 231 2 min 0,000 mm 6,0 UV-I 931 W/m 17,1 C 28,5 C 35,4 km/h (5 Bft) 96,00 %
23.06.2017 13:00 29,6 C 27,2 C 46 % 1011,1 hPa 0,0 l/m 32,8 km/h (5 Bft) W 267 2 min 0,000 mm 6,0 UV-I 924 W/m 16,7 C 28,1 C 54,7 km/h (7 Bft) 91,49 %
23.06.2017 13:02 29,6 C 27,2 C 46 % 1011,2 hPa 0,0 l/m 22,6 km/h (4 Bft) W 263 2 min 0,711 mm 5,6 UV-I 923 W/m 16,7 C 28,5 C 33,8 km/h (5 Bft) 96,00 %
23.06.2017 13:04 29,7 C 27,2 C 45 % 1011,2 hPa 0,0 l/m 26,5 km/h (4 Bft) W-SW 250 2 min 0,000 mm 5,9 UV-I 969 W/m 16,5 C 28,5 C 49,9 km/h (6 Bft) 98,00 %
23.06.2017 13:06 29,7 C 27,2 C 46 % 1011,3 hPa 0,0 l/m 31,1 km/h (5 Bft) W-SW 248 2 min 0,000 mm 5,5 UV-I 992 W/m 16,8 C 28,3 C 49,9 km/h (6 Bft) 95,74 %
23.06.2017 13:08 29,7 C 27,2 C 46 % 1011,0 hPa 0,0 l/m 22,7 km/h (4 Bft) SW 227 2 min 0,000 mm 6,1 UV-I 950 W/m 16,8 C 28,6 C 38,6 km/h (5 Bft) 97,87 %
23.06.2017 13:10 29,8 C 27,2 C 46 % 1011,0 hPa 0,0 l/m 22,8 km/h (4 Bft) SW 232 2 min 0,000 mm 5,6 UV-I 970 W/m 16,9 C 28,7 C 38,6 km/h (5 Bft) 95,74 %
23.06.2017 13:12 29,8 C 27,2 C 46 % 1011,1 hPa 0,0 l/m 24,0 km/h (4 Bft) W-SW 254 2 min 0,000 mm 5,9 UV-I 930 W/m 16,9 C 28,7 C 38,6 km/h (5 Bft) 97,87 %
23.06.2017 13:14 29,9 C 27,2 C 46 % 1011,1 hPa 0,0 l/m 17,9 km/h (3 Bft) SW 229 2 min 0,000 mm 5,5 UV-I 853 W/m 17,0 C 29,1 C 25,7 km/h (4 Bft) 95,74 %
23.06.2017 13:16 29,9 C 27,2 C 46 % 1011,0 hPa 0,0 l/m 15,3 km/h (3 Bft) W-NW 299 2 min 0,000 mm 4,5 UV-I 628 W/m 17,0 C 29,2 C 27,4 km/h (4 Bft) 100,00 %
23.06.2017 13:18 29,7 C 27,2 C 46 % 1011,1 hPa 0,0 l/m 20,6 km/h (4 Bft) SW 236 2 min 0,000 mm 3,9 UV-I 510 W/m 16,8 C 28,7 C 33,8 km/h (5 Bft) 92,00 %
23.06.2017 13:20 29,6 C 27,2 C 47 % 1011,1 hPa 0,0 l/m 20,0 km/h (4 Bft) N-NW 327 2 min 0,000 mm 3,8 UV-I 492 W/m 17,1 C 28,6 C 30,6 km/h (5 Bft) 95,74 %
23.06.2017 13:22 29,6 C 27,2 C 48 % 1011,0 hPa 0,0 l/m 18,3 km/h (3 Bft) W 261 2 min 0,000 mm 4,7 UV-I 554 W/m 17,4 C 28,7 C 29,0 km/h (5 Bft) 95,74 %
23.06.2017 13:24 29,6 C 27,2 C 46 % 1011,0 hPa 0,0 l/m 17,2 km/h (3 Bft) W-SW 244 2 min 0,000 mm 4,8 UV-I 566 W/m 16,7 C 28,8 C 35,4 km/h (5 Bft) 97,96 %
23.06.2017 13:26 29,6 C 27,2 C 47 % 1011,0 hPa 0,0 l/m 20,1 km/h (4 Bft) W-SW 239 2 min 0,000 mm 3,7 UV-I 493 W/m 17,1 C 28,6 C 27,4 km/h (4 Bft) 98,00 %
23.06.2017 13:28 29,4 C 27,2 C 48 % 1011,0 hPa 0,0 l/m 17,1 km/h (3 Bft) W-SW 257 0 min 0,000 mm 3,0 UV-I 366 W/m 17,2 C 28,5 C 29,0 km/h (5 Bft) 95,74 %
23.06.2017 13:30 29,4 C 27,2 C 47 % 1011,0 hPa 0,0 l/m 22,5 km/h (4 Bft) W 274 0 min 0,000 mm 2,8 UV-I 308 W/m 16,9 C 28,2 C 33,8 km/h (5 Bft) 95,74 %
23.06.2017 13:32 29,2 C 27,2 C 49 % 1010,9 hPa 0,0 l/m 13,1 km/h (3 Bft) W 278 0 min 0,000 mm 3,1 UV-I 361 W/m 17,4 C 28,5 C 20,9 km/h (4 Bft) 97,22 %
23.06.2017 13:34 29,2 C 27,2 C 48 % 1010,9 hPa 0,0 l/m 21,7 km/h (4 Bft) W 264 2 min 0,000 mm 5,2 UV-I 613 W/m 17,0 C 28,0 C 43,5 km/h (6 Bft) 98,08 %
23.06.2017 13:36 29,4 C 27,2 C 47 % 1010,8 hPa 0,0 l/m 20,5 km/h (4 Bft) W-SW 257 2 min 0,000 mm 6,0 UV-I 931 W/m 16,9 C 28,3 C 35,4 km/h (5 Bft) 95,74 %
23.06.2017 13:38 29,6 C 27,2 C 47 % 1010,8 hPa 0,0 l/m 15,0 km/h (3 Bft) SW 214 2 min 0,000 mm 5,8 UV-I 899 W/m 17,1 C 28,9 C 40,2 km/h (6 Bft) 97,87 %
23.06.2017 13:40 29,7 C 27,2 C 47 % 1010,9 hPa 0,0 l/m 21,8 km/h (4 Bft) SW 232 2 min 0,000 mm 4,2 UV-I 654 W/m 17,2 C 28,7 C 32,2 km/h (5 Bft) 100,00 %
23.06.2017 13:42 29,7 C 27,2 C 47 % 1010,8 hPa 0,0 l/m 19,1 km/h (3 Bft) W-SW 257 2 min 0,000 mm 5,2 UV-I 613 W/m 17,2 C 28,8 C 35,4 km/h (5 Bft) 95,74 %
23.06.2017 13:44 29,8 C 27,2 C 46 % 1010,8 hPa 0,0 l/m 24,5 km/h (4 Bft) W-NW 291 2 min 0,000 mm 4,7 UV-I 733 W/m 16,9 C 28,7 C 46,7 km/h (6 Bft) 98,00 %
23.06.2017 13:46 29,8 C 27,2 C 47 % 1010,8 hPa 0,0 l/m 25,9 km/h (4 Bft) W 264 2 min 0,000 mm 5,8 UV-I 830 W/m 17,2 C 28,6 C 43,5 km/h (6 Bft) 96,00 %
23.06.2017 13:48 29,9 C 27,2 C 46 % 1010,7 hPa 0,0 l/m 21,0 km/h (4 Bft) W 261 2 min 0,000 mm 6,0 UV-I 925 W/m 17,0 C 29,0 C 33,8 km/h (5 Bft) 94,74 %
23.06.2017 13:50 30,1 C 27,2 C 46 % 1010,8 hPa 0,0 l/m 26,3 km/h (4 Bft) S-SW 213 2 min 0,000 mm 5,8 UV-I 852 W/m 17,2 C 29,0 C 40,2 km/h (6 Bft) 100,00 %
23.06.2017 13:52 30,1 C 27,2 C 45 % 1010,8 hPa 0,0 l/m 20,4 km/h (4 Bft) SW 217 2 min 0,000 mm 6,1 UV-I 922 W/m 16,8 C 29,2 C 33,8 km/h (5 Bft) 93,62 %
23.06.2017 13:54 30,2 C 27,2 C 46 % 1010,8 hPa 0,0 l/m 23,7 km/h (4 Bft) W-SW 250 2 min 0,000 mm 6,1 UV-I 950 W/m 17,3 C 29,2 C 45,1 km/h (6 Bft) 100,00 %
23.06.2017 13:56 30,3 C 27,2 C 46 % 1010,7 hPa 0,0 l/m 22,6 km/h (4 Bft) W-SW 254 2 min 0,000 mm 6,0 UV-I 923 W/m 17,4 C 29,4 C 32,2 km/h (5 Bft) 97,87 %
23.06.2017 13:58 30,5 C 27,2 C 45 % 1010,6 hPa 0,0 l/m 30,9 km/h (5 Bft) W-NW 292 2 min 0,000 mm 6,1 UV-I 923 W/m 17,2 C 29,5 C 45,1 km/h (6 Bft) 95,74 %
23.06.2017 14:00 30,6 C 27,2 C 45 % 1010,6 hPa 0,0 l/m 30,1 km/h (5 Bft) NW 319 2 min 0,686 mm 6,0 UV-I 931 W/m 17,3 C 29,6 C 53,1 km/h (7 Bft) 93,62 %
23.06.2017 14:02 30,6 C 27,2 C 45 % 1010,6 hPa 0,0 l/m 23,2 km/h (4 Bft) W 269 2 min 0,000 mm 5,8 UV-I 930 W/m 17,3 C 29,8 C 43,5 km/h (6 Bft) 93,62 %
23.06.2017 14:04 30,4 C 27,2 C 44 % 1010,8 hPa 0,0 l/m 21,7 km/h (4 Bft) W-NW 294 2 min 0,000 mm 4,0 UV-I 888 W/m 16,7 C 29,6 C 40,2 km/h (6 Bft) 97,87 %
23.06.2017 14:06 30,2 C 27,2 C 45 % 1010,8 hPa 0,0 l/m 24,8 km/h (4 Bft) W-NW 302 0 min 0,000 mm 2,1 UV-I 238 W/m 16,9 C 29,2 C 41,8 km/h (6 Bft) 100,00 %
23.06.2017 14:08 29,9 C 27,2 C 45 % 1010,8 hPa 0,0 l/m 21,8 km/h (4 Bft) W 264 0 min 0,000 mm 1,7 UV-I 206 W/m 16,7 C 28,9 C 37,0 km/h (5 Bft) 89,36 %
23.06.2017 14:10 29,6 C 27,2 C 46 % 1010,8 hPa 0,0 l/m 27,9 km/h (4 Bft) W-SW 258 0 min 0,000 mm 1,7 UV-I 197 W/m 16,7 C 28,3 C 40,2 km/h (6 Bft) 94,00 %
23.06.2017 14:12 29,3 C 27,2 C 47 % 1010,8 hPa 0,0 l/m 22,7 km/h (4 Bft) W-SW 246 0 min 0,000 mm 2,3 UV-I 244 W/m 16,8 C 28,1 C 32,2 km/h (5 Bft) 96,30 %
23.06.2017 14:14 29,2 C 27,2 C 47 % 1010,6 hPa 0,0 l/m 14,6 km/h (3 Bft) W-SW 243 0 min 0,000 mm 4,5 UV-I 305 W/m 16,7 C 28,4 C 22,5 km/h (4 Bft) 89,23 %
23.06.2017 14:16 29,3 C 27,2 C 50 % 1010,6 hPa 0,0 l/m 13,0 km/h (3 Bft) SW 228 2 min 0,000 mm 5,9 UV-I 910 W/m 17,8 C 28,7 C 22,5 km/h (4 Bft) 95,74 %
23.06.2017 14:18 29,6 C 27,2 C 48 % 1010,6 hPa 0,0 l/m 21,7 km/h (4 Bft) W-SW 252 2 min 0,000 mm 5,9 UV-I 922 W/m 17,4 C 28,5 C 33,8 km/h (5 Bft) 97,87 %
23.06.2017 14:20 30,0 C 27,2 C 46 % 1010,6 hPa 0,0 l/m 29,9 km/h (5 Bft) W-SW 254 2 min 0,000 mm 5,8 UV-I 929 W/m 17,1 C 28,8 C 48,3 km/h (6 Bft) 96,00 %
23.06.2017 14:22 30,3 C 27,2 C 46 % 1010,6 hPa 0,0 l/m 23,6 km/h (4 Bft) W 260 2 min 0,000 mm 5,8 UV-I 959 W/m 17,4 C 29,4 C 43,5 km/h (6 Bft) 93,62 %
23.06.2017 14:24 30,5 C 27,2 C 46 % 1010,8 hPa 0,0 l/m 19,4 km/h (3 Bft) W 263 2 min 0,000 mm 5,7 UV-I 904 W/m 17,5 C 29,8 C 41,8 km/h (6 Bft) 97,37 %
23.06.2017 14:26 30,7 C 27,2 C 45 % 1010,7 hPa 0,0 l/m 18,6 km/h (3 Bft) W-SW 252 2 min 0,000 mm 5,8 UV-I 921 W/m 17,4 C 30,1 C 32,2 km/h (5 Bft) 93,62 %
23.06.2017 14:28 30,8 C 27,2 C 45 % 1010,5 hPa 0,0 l/m 24,1 km/h (4 Bft) S 187 2 min 0,000 mm 5,6 UV-I 930 W/m 17,5 C 30,0 C 35,4 km/h (5 Bft) 90,00 %
23.06.2017 14:30 30,8 C 27,2 C 44 % 1010,6 hPa 0,0 l/m 21,1 km/h (4 Bft) W-SW 242 2 min 0,000 mm 3,6 UV-I 918 W/m 17,1 C 30,1 C 33,8 km/h (5 Bft) 93,62 %
23.06.2017 14:32 30,5 C 27,2 C 44 % 1010,6 hPa 0,0 l/m 16,7 km/h (3 Bft) W 263 0 min 0,000 mm 2,0 UV-I 300 W/m 16,8 C 29,9 C 29,0 km/h (5 Bft) 95,74 %
23.06.2017 14:34 30,2 C 27,2 C 44 % 1010,6 hPa 0,0 l/m 20,3 km/h (4 Bft) W-SW 243 0 min 0,000 mm 1,6 UV-I 153 W/m 16,6 C 29,4 C 33,8 km/h (5 Bft) 94,00 %
23.06.2017 14:36 30,0 C 27,2 C 45 % 1010,7 hPa 0,0 l/m 15,4 km/h (3 Bft) W-SW 252 0 min 0,000 mm 1,5 UV-I 148 W/m 16,7 C 29,3 C 29,0 km/h (5 Bft) 91,49 %
23.06.2017 14:38 29,7 C 27,2 C 45 % 1010,6 hPa 0,0 l/m 15,8 km/h (3 Bft) SW 234 0 min 0,000 mm 1,6 UV-I 165 W/m 16,5 C 29,0 C 30,6 km/h (5 Bft) 98,00 %
23.06.2017 14:40 29,6 C 27,2 C 45 % 1010,7 hPa 0,0 l/m 11,2 km/h (2 Bft) W 281 0 min 0,000 mm 3,0 UV-I 321 W/m 16,4 C 29,1 C 27,4 km/h (4 Bft) 97,87 %
23.06.2017 14:42 29,8 C 27,2 C 49 % 1010,7 hPa 0,0 l/m 7,3 km/h (2 Bft) W 277 2 min 0,000 mm 5,0 UV-I 964 W/m 17,9 C 29,7 C 24,1 km/h (4 Bft) 95,74 %
23.06.2017 14:44 30,0 C 27,2 C 47 % 1010,6 hPa 0,0 l/m 11,7 km/h (2 Bft) N 355 2 min 0,000 mm 3,7 UV-I 969 W/m 17,4 C 29,6 C 22,5 km/h (4 Bft) 85,71 %
23.06.2017 14:46 30,1 C 27,2 C 48 % 1010,7 hPa 0,0 l/m 7,9 km/h (2 Bft) SW 233 2 min 0,000 mm 3,9 UV-I 990 W/m 17,9 C 30,0 C 17,7 km/h (3 Bft) 97,87 %
23.06.2017 14:48 30,1 C 27,2 C 47 % 1010,6 hPa 0,0 l/m 11,6 km/h (2 Bft) W-NW 286 2 min 0,000 mm 2,7 UV-I 493 W/m 17,5 C 29,7 C 25,7 km/h (4 Bft) 91,49 %
23.06.2017 14:50 29,9 C 27,2 C 48 % 1010,7 hPa 0,0 l/m 6,8 km/h (2 Bft) N 10 0 min 0,000 mm 2,5 UV-I 282 W/m 17,7 C 29,9 C 25,7 km/h (4 Bft) 95,83 %
23.06.2017 14:52 29,7 C 27,2 C 49 % 1010,7 hPa 0,0 l/m 4,6 km/h (1 Bft) NW 321 0 min 0,000 mm 2,2 UV-I 292 W/m 17,8 C 29,7 C 14,5 km/h (3 Bft) 95,74 %
23.06.2017 14:54 29,4 C 27,2 C 50 % 1010,7 hPa 0,0 l/m 7,5 km/h (2 Bft) NW 306 0 min 0,000 mm 2,3 UV-I 281 W/m 17,9 C 29,3 C 20,9 km/h (4 Bft) 97,87 %
23.06.2017 14:56 29,1 C 27,2 C 51 % 1010,8 hPa 0,0 l/m 8,5 km/h (2 Bft) W-NW 292 0 min 0,000 mm 2,6 UV-I 328 W/m 17,9 C 28,8 C 16,1 km/h (3 Bft) 98,00 %
23.06.2017 14:58 28,8 C 27,2 C 52 % 1010,8 hPa 0,0 l/m 9,1 km/h (2 Bft) W 276 0 min 0,000 mm 3,9 UV-I 334 W/m 17,9 C 28,5 C 16,1 km/h (3 Bft) 98,00 %
23.06.2017 15:00 28,8 C 27,2 C 53 % 1010,7 hPa 0,0 l/m 5,0 km/h (1 Bft) N 355 0 min 0,508 mm 2,8 UV-I 304 W/m 18,2 C 28,8 C 14,5 km/h (3 Bft) 94,00 %
23.06.2017 15:02 28,8 C 27,2 C 53 % 1010,7 hPa 0,0 l/m 5,0 km/h (1 Bft) N-NW 348 0 min 0,000 mm 3,6 UV-I 322 W/m 18,2 C 28,8 C 16,1 km/h (3 Bft) 97,87 %
23.06.2017 15:04 29,0 C 27,2 C 53 % 1010,6 hPa 0,0 l/m 6,6 km/h (2 Bft) SW 227 0 min 0,000 mm 4,2 UV-I 410 W/m 18,4 C 29,0 C 16,1 km/h (3 Bft) 100,00 %
23.06.2017 15:06 29,3 C 27,2 C 53 % 1010,6 hPa 0,0 l/m 5,5 km/h (1 Bft) W-NW 300 2 min 0,000 mm 4,9 UV-I 846 W/m 18,7 C 29,3 C 12,9 km/h (3 Bft) 100,00 %
23.06.2017 15:08 29,4 C 27,2 C 51 % 1010,6 hPa 0,0 l/m 7,8 km/h (2 Bft) W-SW 242 2 min 0,000 mm 4,1 UV-I 855 W/m 18,2 C 29,2 C 12,9 km/h (3 Bft) 91,49 %
23.06.2017 15:10 29,6 C 27,2 C 51 % 1010,6 hPa 0,0 l/m 7,3 km/h (2 Bft) W-NW 296 2 min 0,000 mm 4,8 UV-I 832 W/m 18,4 C 29,5 C 16,1 km/h (3 Bft) 91,43 %
23.06.2017 15:12 29,7 C 27,2 C 50 % 1010,6 hPa 0,0 l/m 10,1 km/h (2 Bft) N 9 2 min 0,000 mm 4,2 UV-I 828 W/m 18,1 C 29,3 C 19,3 km/h (3 Bft) 98,00 %
23.06.2017 15:14 29,8 C 27,2 C 50 % 1010,6 hPa 0,0 l/m 3,3 km/h (1 Bft) W 281 2 min 0,000 mm 3,7 UV-I 801 W/m 18,2 C 29,8 C 6,4 km/h (2 Bft) 94,34 %
23.06.2017 15:16 29,8 C 27,2 C 50 % 1010,5 hPa 0,0 l/m 6,6 km/h (2 Bft) W-NW 293 0 min 0,000 mm 3,9 UV-I 384 W/m 18,2 C 29,8 C 14,5 km/h (3 Bft) 95,74 %
23.06.2017 15:18 29,8 C 27,2 C 52 % 1010,5 hPa 0,0 l/m 5,2 km/h (1 Bft) W-SW 241 2 min 0,000 mm 4,6 UV-I 804 W/m 18,9 C 29,8 C 12,9 km/h (3 Bft) 95,74 %
23.06.2017 15:20 30,1 C 27,2 C 50 % 1010,5 hPa 0,0 l/m 5,3 km/h (1 Bft) W 272 2 min 0,000 mm 4,6 UV-I 793 W/m 18,5 C 30,1 C 11,3 km/h (2 Bft) 95,74 %
23.06.2017 15:22 30,2 C 27,2 C 50 % 1010,5 hPa 0,0 l/m 8,0 km/h (2 Bft) N-NW 329 2 min 0,000 mm 4,4 UV-I 787 W/m 18,6 C 30,1 C 16,1 km/h (3 Bft) 97,87 %
23.06.2017 15:24 30,3 C 27,2 C 47 % 1010,5 hPa 0,0 l/m 8,9 km/h (2 Bft) W-SW 258 2 min 0,000 mm 4,1 UV-I 819 W/m 17,7 C 30,1 C 22,5 km/h (4 Bft) 93,62 %
23.06.2017 15:26 30,3 C 27,2 C 47 % 1010,4 hPa 0,0 l/m 7,6 km/h (2 Bft) N-NW 335 2 min 0,000 mm 4,0 UV-I 807 W/m 17,7 C 30,2 C 17,7 km/h (3 Bft) 95,74 %
23.06.2017 15:28 30,4 C 27,2 C 46 % 1010,5 hPa 0,0 l/m 13,1 km/h (3 Bft) W 275 2 min 0,000 mm 4,1 UV-I 791 W/m 17,5 C 29,9 C 24,1 km/h (4 Bft) 97,37 %
23.06.2017 15:30 30,4 C 27,2 C 47 % 1010,4 hPa 0,0 l/m 14,7 km/h (3 Bft) W 259 2 min 0,000 mm 4,3 UV-I 788 W/m 17,8 C 29,9 C 30,6 km/h (5 Bft) 100,00 %
23.06.2017 15:32 30,5 C 27,2 C 45 % 1010,5 hPa 0,0 l/m 7,5 km/h (2 Bft) SW 220 2 min 0,000 mm 4,1 UV-I 759 W/m 17,2 C 30,4 C 16,1 km/h (3 Bft) 93,62 %
23.06.2017 15:34 30,6 C 27,2 C 45 % 1010,5 hPa 0,0 l/m 16,3 km/h (3 Bft) W 269 2 min 0,000 mm 3,1 UV-I 758 W/m 17,3 C 30,0 C 32,2 km/h (5 Bft) 93,62 %
23.06.2017 15:36 30,4 C 27,2 C 44 % 1010,5 hPa 0,0 l/m 13,7 km/h (3 Bft) SW 236 0 min 0,000 mm 2,3 UV-I 268 W/m 16,7 C 29,9 C 24,1 km/h (4 Bft) 92,00 %
23.06.2017 15:38 30,3 C 27,2 C 45 % 1010,6 hPa 0,0 l/m 16,7 km/h (3 Bft) SW 236 0 min 0,000 mm 2,4 UV-I 241 W/m 17,0 C 29,6 C 25,7 km/h (4 Bft) 96,00 %
23.06.2017 15:40 30,2 C 27,2 C 46 % 1010,6 hPa 0,0 l/m 8,2 km/h (2 Bft) W-SW 256 2 min 0,000 mm 3,5 UV-I 422 W/m 17,3 C 30,0 C 14,5 km/h (3 Bft) 95,74 %
23.06.2017 15:42 30,4 C 27,2 C 46 % 1010,6 hPa 0,0 l/m 8,8 km/h (2 Bft) SW 232 2 min 0,000 mm 4,2 UV-I 838 W/m 17,5 C 30,2 C 24,1 km/h (4 Bft) 91,49 %
23.06.2017 15:44 30,7 C 27,2 C 45 % 1010,5 hPa 0,0 l/m 14,4 km/h (3 Bft) W-NW 300 2 min 0,000 mm 4,0 UV-I 804 W/m 17,4 C 30,2 C 25,7 km/h (4 Bft) 97,37 %
23.06.2017 15:46 31,0 C 27,2 C 44 % 1010,6 hPa 0,0 l/m 9,9 km/h (2 Bft) SW 236 2 min 0,000 mm 4,0 UV-I 795 W/m 17,3 C 30,8 C 19,3 km/h (3 Bft) 97,87 %
23.06.2017 15:48 31,1 C 27,2 C 44 % 1010,5 hPa 0,0 l/m 12,6 km/h (3 Bft) SW 227 2 min 0,000 mm 3,7 UV-I 778 W/m 17,4 C 30,8 C 25,7 km/h (4 Bft) 93,62 %
23.06.2017 15:50 31,1 C 27,2 C 44 % 1010,4 hPa 0,0 l/m 13,2 km/h (3 Bft) W-SW 250 2 min 0,000 mm 3,2 UV-I 722 W/m 17,4 C 30,8 C 29,0 km/h (5 Bft) 93,62 %
23.06.2017 15:52 30,8 C 27,2 C 44 % 1010,4 hPa 0,0 l/m 12,4 km/h (3 Bft) W-SW 244 2 min 0,000 mm 3,4 UV-I 604 W/m 17,1 C 30,4 C 24,1 km/h (4 Bft) 100,00 %
23.06.2017 15:54 30,6 C 27,2 C 44 % 1010,5 hPa 0,0 l/m 9,8 km/h (2 Bft) W 269 0 min 0,000 mm 2,6 UV-I 304 W/m 16,9 C 30,4 C 20,9 km/h (4 Bft) 97,87 %
23.06.2017 15:56 30,4 C 27,2 C 45 % 1010,5 hPa 0,0 l/m 13,3 km/h (3 Bft) W 269 0 min 0,000 mm 3,5 UV-I 324 W/m 17,1 C 29,9 C 19,3 km/h (3 Bft) 100,00 %
23.06.2017 15:58 30,6 C 27,2 C 46 % 1010,5 hPa 0,0 l/m 10,0 km/h (2 Bft) W-SW 247 2 min 0,000 mm 3,1 UV-I 756 W/m 17,6 C 30,3 C 17,7 km/h (3 Bft) 97,87 %
23.06.2017 16:00 30,6 C 27,2 C 44 % 1010,5 hPa 0,0 l/m 11,9 km/h (2 Bft) W-NW 292 0 min 0,508 mm 2,6 UV-I 347 W/m 16,9 C 30,2 C 19,3 km/h (3 Bft) 95,74 %
23.06.2017 16:02 30,6 C 27,2 C 45 % 1010,5 hPa 0,0 l/m 9,9 km/h (2 Bft) W 259 2 min 0,000 mm 3,3 UV-I 703 W/m 17,3 C 30,4 C 16,1 km/h (3 Bft) 95,74 %
23.06.2017 16:04 30,7 C 27,8 C 45 % 1010,4 hPa 0,0 l/m 8,6 km/h (2 Bft) W-SW 244 2 min 0,000 mm 3,4 UV-I 663 W/m 17,4 C 30,5 C 14,5 km/h (3 Bft) 93,62 %
23.06.2017 16:06 30,8 C 27,8 C 45 % 1010,4 hPa 0,0 l/m 7,1 km/h (2 Bft) S 188 2 min 0,000 mm 3,5 UV-I 675 W/m 17,5 C 30,8 C 14,5 km/h (3 Bft) 97,22 %
23.06.2017 16:08 31,1 C 27,8 C 45 % 1010,4 hPa 0,0 l/m 7,8 km/h (2 Bft) W-NW 291 2 min 0,000 mm 3,6 UV-I 714 W/m 17,7 C 31,0 C 14,5 km/h (3 Bft) 92,00 %
23.06.2017 16:10 31,1 C 27,8 C 45 % 1010,3 hPa 0,0 l/m 7,6 km/h (2 Bft) N-NW 346 2 min 0,000 mm 3,4 UV-I 708 W/m 17,7 C 31,0 C 24,1 km/h (4 Bft) 93,62 %
23.06.2017 16:12 31,3 C 27,8 C 44 % 1010,3 hPa 0,0 l/m 6,2 km/h (2 Bft) W-SW 248 2 min 0,000 mm 3,2 UV-I 626 W/m 17,6 C 31,3 C 14,5 km/h (3 Bft) 93,62 %
23.06.2017 16:14 31,4 C 27,8 C 43 % 1010,3 hPa 0,0 l/m 6,0 km/h (2 Bft) W-NW 294 2 min 0,000 mm 3,3 UV-I 591 W/m 17,3 C 31,4 C 17,7 km/h (3 Bft) 93,62 %
23.06.2017 16:16 31,4 C 27,8 C 43 % 1010,3 hPa 0,0 l/m 12,4 km/h (3 Bft) W 278 2 min 0,000 mm 3,3 UV-I 700 W/m 17,3 C 31,1 C 20,9 km/h (4 Bft) 93,62 %
23.06.2017 16:18 31,3 C 27,8 C 43 % 1010,3 hPa 0,0 l/m 13,7 km/h (3 Bft) W 269 2 min 0,000 mm 3,1 UV-I 679 W/m 17,2 C 31,0 C 29,0 km/h (5 Bft) 93,62 %
23.06.2017 16:20 31,3 C 27,8 C 42 % 1010,3 hPa 0,0 l/m 18,8 km/h (3 Bft) W 277 2 min 0,000 mm 3,3 UV-I 690 W/m 16,8 C 30,8 C 37,0 km/h (5 Bft) 93,62 %
23.06.2017 16:22 31,3 C 27,8 C 42 % 1010,2 hPa 0,0 l/m 12,6 km/h (3 Bft) W 259 2 min 0,000 mm 3,3 UV-I 667 W/m 16,8 C 31,0 C 24,1 km/h (4 Bft) 95,74 %
23.06.2017 16:24 31,3 C 27,8 C 41 % 1010,3 hPa 0,0 l/m 16,5 km/h (3 Bft) N-NW 330 2 min 0,000 mm 3,2 UV-I 648 W/m 16,4 C 30,9 C 33,8 km/h (5 Bft) 94,00 %
23.06.2017 16:26 31,3 C 27,8 C 41 % 1010,2 hPa 0,0 l/m 14,3 km/h (3 Bft) W-NW 284 2 min 0,000 mm 3,1 UV-I 635 W/m 16,4 C 31,0 C 29,0 km/h (5 Bft) 90,00 %
23.06.2017 16:28 31,3 C 27,8 C 41 % 1010,3 hPa 0,0 l/m 15,0 km/h (3 Bft) W-SW 257 2 min 0,000 mm 2,7 UV-I 622 W/m 16,4 C 30,9 C 27,4 km/h (4 Bft) 89,36 %
23.06.2017 16:30 31,2 C 27,8 C 41 % 1010,2 hPa 0,0 l/m 11,1 km/h (2 Bft) S-SW 203 2 min 0,000 mm 3,0 UV-I 670 W/m 16,4 C 31,0 C 20,9 km/h (4 Bft) 95,74 %
23.06.2017 16:32 31,1 C 27,8 C 41 % 1010,2 hPa 0,0 l/m 16,6 km/h (3 Bft) W-SW 244 2 min 0,000 mm 3,0 UV-I 630 W/m 16,3 C 30,6 C 24,1 km/h (4 Bft) 93,62 %
23.06.2017 16:34 31,1 C 27,8 C 41 % 1010,2 hPa 0,0 l/m 14,3 km/h (3 Bft) W-SW 247 2 min 0,000 mm 2,9 UV-I 640 W/m 16,3 C 30,7 C 24,1 km/h (4 Bft) 92,11 %
23.06.2017 16:36 31,2 C 27,8 C 42 % 1010,3 hPa 0,0 l/m 6,7 km/h (2 Bft) W-NW 301 2 min 0,000 mm 2,8 UV-I 619 W/m 16,7 C 31,2 C 20,9 km/h (4 Bft) 97,87 %
23.06.2017 16:38 31,3 C 27,8 C 42 % 1010,2 hPa 0,0 l/m 7,5 km/h (2 Bft) W-SW 246 2 min 0,000 mm 2,9 UV-I 623 W/m 16,8 C 31,2 C 17,7 km/h (3 Bft) 95,74 %
23.06.2017 16:40 31,2 C 27,8 C 42 % 1010,2 hPa 0,0 l/m 10,2 km/h (2 Bft) W-NW 283 2 min 0,000 mm 2,9 UV-I 611 W/m 16,7 C 31,0 C 19,3 km/h (3 Bft) 98,08 %
23.06.2017 16:42 31,2 C 27,8 C 42 % 1010,2 hPa 0,0 l/m 10,1 km/h (2 Bft) W-SW 257 2 min 0,000 mm 2,8 UV-I 609 W/m 16,7 C 31,0 C 17,7 km/h (3 Bft) 95,74 %
23.06.2017 16:44 31,2 C 27,8 C 42 % 1010,3 hPa 0,0 l/m 13,9 km/h (3 Bft) NW 308 2 min 0,000 mm 2,8 UV-I 608 W/m 16,7 C 30,9 C 25,7 km/h (4 Bft) 93,62 %
23.06.2017 16:46 31,1 C 27,8 C 42 % 1010,2 hPa 0,0 l/m 12,9 km/h (3 Bft) W 259 2 min 0,000 mm 2,8 UV-I 603 W/m 16,6 C 30,8 C 25,7 km/h (4 Bft) 93,62 %
23.06.2017 16:48 31,1 C 27,8 C 42 % 1010,4 hPa 0,0 l/m 14,1 km/h (3 Bft) W 272 2 min 0,000 mm 2,6 UV-I 616 W/m 16,6 C 30,7 C 27,4 km/h (4 Bft) 91,49 %
23.06.2017 16:50 31,1 C 27,8 C 41 % 1010,4 hPa 0,0 l/m 13,1 km/h (3 Bft) W 269 2 min 0,000 mm 2,5 UV-I 617 W/m 16,3 C 30,8 C 24,1 km/h (4 Bft) 93,88 %
23.06.2017 16:52 31,1 C 27,8 C 42 % 1010,4 hPa 0,0 l/m 17,2 km/h (3 Bft) W-NW 284 2 min 0,000 mm 2,7 UV-I 662 W/m 16,6 C 30,6 C 27,4 km/h (4 Bft) 100,00 %
23.06.2017 16:54 31,2 C 27,8 C 43 % 1010,4 hPa 0,0 l/m 10,7 km/h (2 Bft) W-SW 248 2 min 0,000 mm 2,7 UV-I 676 W/m 17,1 C 31,0 C 20,9 km/h (4 Bft) 97,87 %
23.06.2017 16:56 31,4 C 27,8 C 41 % 1010,5 hPa 0,0 l/m 19,2 km/h (3 Bft) SW 234 2 min 0,000 mm 2,7 UV-I 667 W/m 16,5 C 31,0 C 37,0 km/h (5 Bft) 98,00 %
23.06.2017 16:58 31,4 C 27,8 C 40 % 1010,3 hPa 0,0 l/m 16,6 km/h (3 Bft) SW 232 2 min 0,000 mm 2,7 UV-I 666 W/m 16,1 C 31,0 C 27,4 km/h (4 Bft) 95,74 %
23.06.2017 17:00 31,6 C 27,8 C 41 % 1010,3 hPa 0,0 l/m 9,6 km/h (2 Bft) W 271 2 min 0,000 mm 2,6 UV-I 653 W/m 16,7 C 31,5 C 24,1 km/h (4 Bft) 97,87 %
23.06.2017 17:02 31,7 C 27,8 C 40 % 1010,2 hPa 0,0 l/m 11,6 km/h (2 Bft) W-SW 248 2 min 0,534 mm 2,4 UV-I 641 W/m 16,4 C 31,5 C 27,4 km/h (4 Bft) 100,00 %
23.06.2017 17:04 31,6 C 27,8 C 39 % 1010,4 hPa 0,0 l/m 18,0 km/h (3 Bft) W-SW 238 2 min 0,000 mm 2,2 UV-I 635 W/m 15,9 C 31,2 C 41,8 km/h (6 Bft) 93,62 %
23.06.2017 17:06 31,6 C 27,8 C 39 % 1010,2 hPa 0,0 l/m 12,4 km/h (3 Bft) S-SW 197 2 min 0,000 mm 2,4 UV-I 615 W/m 15,9 C 31,4 C 25,7 km/h (4 Bft) 100,00 %
23.06.2017 17:08 31,6 C 27,8 C 40 % 1010,2 hPa 0,0 l/m 10,4 km/h (2 Bft) W 271 2 min 0,000 mm 2,2 UV-I 601 W/m 16,3 C 31,4 C 24,1 km/h (4 Bft) 96,00 %
23.06.2017 17:10 31,6 C 27,8 C 38 % 1010,2 hPa 0,0 l/m 18,8 km/h (3 Bft) W-SW 244 2 min 0,000 mm 2,1 UV-I 591 W/m 15,5 C 31,2 C 37,0 km/h (5 Bft) 96,00 %
23.06.2017 17:12 31,6 C 27,8 C 38 % 1010,2 hPa 0,0 l/m 17,4 km/h (3 Bft) W-SW 246 2 min 0,000 mm 2,0 UV-I 602 W/m 15,5 C 31,2 C 29,0 km/h (5 Bft) 100,00 %
23.06.2017 17:14 31,4 C 27,8 C 38 % 1010,2 hPa 0,0 l/m 12,5 km/h (3 Bft) SW 235 2 min 0,000 mm 2,2 UV-I 517 W/m 15,3 C 31,1 C 22,5 km/h (4 Bft) 97,87 %
23.06.2017 17:16 31,4 C 27,8 C 39 % 1010,2 hPa 0,0 l/m 10,6 km/h (2 Bft) W-SW 253 2 min 0,000 mm 2,0 UV-I 573 W/m 15,7 C 31,2 C 19,3 km/h (3 Bft) 97,87 %
23.06.2017 17:18 31,5 C 27,8 C 39 % 1010,2 hPa 0,0 l/m 13,9 km/h (3 Bft) SW 232 2 min 0,000 mm 2,0 UV-I 574 W/m 15,8 C 31,2 C 25,7 km/h (4 Bft) 98,00 %
23.06.2017 17:20 31,5 C 27,8 C 38 % 1010,1 hPa 0,0 l/m 15,3 km/h (3 Bft) NW 308 2 min 0,000 mm 1,9 UV-I 453 W/m 15,4 C 31,2 C 32,2 km/h (5 Bft) 100,00 %
23.06.2017 17:22 31,4 C 27,8 C 37 % 1010,4 hPa 0,0 l/m 19,8 km/h (3 Bft) W 269 2 min 0,000 mm 2,0 UV-I 528 W/m 14,9 C 30,9 C 35,4 km/h (5 Bft) 98,00 %
23.06.2017 17:24 31,3 C 27,8 C 38 % 1010,2 hPa 0,0 l/m 16,2 km/h (3 Bft) W-SW 244 2 min 0,000 mm 1,6 UV-I 460 W/m 15,3 C 30,9 C 27,4 km/h (4 Bft) 93,62 %
23.06.2017 17:26 31,2 C 27,8 C 38 % 1010,1 hPa 0,0 l/m 13,4 km/h (3 Bft) W-SW 240 2 min 0,000 mm 1,7 UV-I 381 W/m 15,2 C 30,9 C 29,0 km/h (5 Bft) 97,92 %
23.06.2017 17:28 31,1 C 27,8 C 37 % 1010,1 hPa 0,0 l/m 21,6 km/h (4 Bft) W-SW 244 2 min 0,000 mm 1,7 UV-I 463 W/m 14,7 C 30,5 C 43,5 km/h (6 Bft) 97,87 %
23.06.2017 17:30 31,0 C 27,8 C 38 % 1010,2 hPa 0,0 l/m 17,6 km/h (3 Bft) W-NW 284 2 min 0,000 mm 1,8 UV-I 559 W/m 15,0 C 30,5 C 27,4 km/h (4 Bft) 100,00 %
23.06.2017 17:32 31,0 C 27,8 C 39 % 1010,1 hPa 0,0 l/m 13,4 km/h (3 Bft) W-SW 240 2 min 0,000 mm 1,5 UV-I 519 W/m 15,4 C 30,6 C 27,4 km/h (4 Bft) 97,87 %
23.06.2017 17:34 30,9 C 27,8 C 39 % 1010,0 hPa 0,0 l/m 15,0 km/h (3 Bft) W 262 0 min 0,000 mm 1,3 UV-I 265 W/m 15,3 C 30,5 C 33,8 km/h (5 Bft) 100,00 %
23.06.2017 17:36 30,8 C 27,8 C 39 % 1010,0 hPa 0,0 l/m 19,3 km/h (3 Bft) W 275 0 min 0,000 mm 1,3 UV-I 234 W/m 15,2 C 30,2 C 32,2 km/h (5 Bft) 100,00 %
23.06.2017 17:38 30,6 C 27,8 C 40 % 1010,1 hPa 0,0 l/m 17,5 km/h (3 Bft) N-NW 328 0 min 0,000 mm 1,1 UV-I 187 W/m 15,4 C 30,0 C 35,4 km/h (5 Bft) 100,00 %
23.06.2017 17:40 30,4 C 27,8 C 41 % 1010,2 hPa 0,0 l/m 13,5 km/h (3 Bft) NO 49 0 min 0,000 mm 1,1 UV-I 181 W/m 15,6 C 29,9 C 27,4 km/h (4 Bft) 97,87 %
23.06.2017 17:42 30,2 C 27,8 C 42 % 1010,1 hPa 0,0 l/m 2,7 km/h (1 Bft) NO 49 0 min 0,000 mm 1,0 UV-I 181 W/m 15,8 C 30,2 C 6,4 km/h (2 Bft) 97,87 %
23.06.2017 17:44 30,1 C 27,8 C 43 % 1010,1 hPa 0,0 l/m 4,2 km/h (1 Bft) S-SW 202 0 min 0,000 mm 1,0 UV-I 184 W/m 16,1 C 30,1 C 12,9 km/h (3 Bft) 97,87 %
23.06.2017 17:46 30,0 C 27,8 C 44 % 1010,2 hPa 0,0 l/m 8,2 km/h (2 Bft) W-SW 240 0 min 0,000 mm 1,0 UV-I 189 W/m 16,4 C 29,8 C 16,1 km/h (3 Bft) 97,87 %
23.06.2017 17:48 29,9 C 27,8 C 43 % 1010,2 hPa 0,0 l/m 9,4 km/h (2 Bft) W-NW 296 0 min 0,000 mm 1,0 UV-I 209 W/m 15,9 C 29,6 C 17,7 km/h (3 Bft) 100,00 %
23.06.2017 17:50 30,0 C 27,8 C 43 % 1010,1 hPa 0,0 l/m 6,4 km/h (2 Bft) SW 230 0 min 0,000 mm 1,2 UV-I 216 W/m 16,0 C 30,0 C 11,3 km/h (2 Bft) 97,87 %
23.06.2017 17:52 30,2 C 27,8 C 42 % 1010,1 hPa 0,0 l/m 6,3 km/h (2 Bft) W-SW 251 2 min 0,000 mm 1,1 UV-I 338 W/m 15,8 C 30,2 C 20,9 km/h (4 Bft) 97,87 %
23.06.2017 17:54 30,2 C 27,8 C 43 % 1010,1 hPa 0,0 l/m 9,9 km/h (2 Bft) N 11 2 min 0,000 mm 1,1 UV-I 354 W/m 16,2 C 29,9 C 20,9 km/h (4 Bft) 97,37 %
23.06.2017 17:56 30,2 C 27,8 C 43 % 1010,1 hPa 0,0 l/m 6,9 km/h (2 Bft) NW 307 2 min 0,000 mm 1,3 UV-I 301 W/m 16,2 C 30,2 C 14,5 km/h (3 Bft) 100,00 %
23.06.2017 17:58 30,1 C 27,8 C 44 % 1010,1 hPa 0,0 l/m 9,1 km/h (2 Bft) SW 224 2 min 0,000 mm 1,1 UV-I 341 W/m 16,5 C 29,9 C 17,7 km/h (3 Bft) 95,74 %
23.06.2017 18:00 30,0 C 27,8 C 43 % 1010,1 hPa 0,0 l/m 8,0 km/h (2 Bft) W 262 2 min 0,000 mm 1,1 UV-I 306 W/m 16,0 C 29,9 C 20,9 km/h (4 Bft) 93,62 %
23.06.2017 18:02 29,9 C 27,8 C 44 % 1010,2 hPa 0,0 l/m 6,9 km/h (2 Bft) NW 315 2 min 0,406 mm 1,1 UV-I 369 W/m 16,3 C 29,9 C 19,3 km/h (3 Bft) 97,87 %
23.06.2017 18:04 29,9 C 27,8 C 44 % 1010,2 hPa 0,0 l/m 6,4 km/h (2 Bft) N 349 2 min 0,000 mm 1,0 UV-I 298 W/m 16,3 C 29,9 C 14,5 km/h (3 Bft) 95,83 %
23.06.2017 18:06 29,9 C 27,8 C 43 % 1010,2 hPa 0,0 l/m 7,9 km/h (2 Bft) N-NW 343 0 min 0,000 mm 1,0 UV-I 232 W/m 15,9 C 29,8 C 25,7 km/h (4 Bft) 97,96 %
23.06.2017 18:08 29,8 C 27,8 C 44 % 1010,2 hPa 0,0 l/m 6,2 km/h (2 Bft) N-NW 332 0 min 0,000 mm 0,9 UV-I 190 W/m 16,2 C 29,8 C 14,5 km/h (3 Bft) 95,83 %
23.06.2017 18:10 29,7 C 27,8 C 44 % 1010,2 hPa 0,0 l/m 5,7 km/h (1 Bft) NO 40 0 min 0,000 mm 0,8 UV-I 166 W/m 16,1 C 29,7 C 11,3 km/h (2 Bft) 93,62 %
23.06.2017 18:12 29,6 C 27,8 C 44 % 1010,2 hPa 0,0 l/m 5,4 km/h (1 Bft) NW 318 0 min 0,000 mm 0,8 UV-I 166 W/m 16,0 C 29,6 C 14,5 km/h (3 Bft) 95,74 %
23.06.2017 18:14 29,5 C 27,8 C 45 % 1010,2 hPa 0,0 l/m 7,7 km/h (2 Bft) N-NO 20 0 min 0,000 mm 0,8 UV-I 169 W/m 16,3 C 29,4 C 19,3 km/h (3 Bft) 95,74 %
23.06.2017 18:16 29,4 C 27,8 C 46 % 1010,2 hPa 0,0 l/m 3,4 km/h (1 Bft) NW 317 0 min 0,000 mm 0,8 UV-I 176 W/m 16,5 C 29,4 C 11,3 km/h (2 Bft) 97,87 %
23.06.2017 18:18 29,3 C 27,8 C 45 % 1010,3 hPa 0,0 l/m 5,7 km/h (1 Bft) S-SW 196 0 min 0,000 mm 0,8 UV-I 168 W/m 16,1 C 29,3 C 14,5 km/h (3 Bft) 96,00 %
23.06.2017 18:20 29,3 C 27,8 C 44 % 1010,2 hPa 0,0 l/m 12,6 km/h (3 Bft) W 271 0 min 0,000 mm 0,8 UV-I 156 W/m 15,8 C 28,7 C 24,1 km/h (4 Bft) 97,87 %
23.06.2017 18:22 29,3 C 27,8 C 44 % 1010,2 hPa 0,0 l/m 7,7 km/h (2 Bft) N-NW 329 0 min 0,000 mm 0,8 UV-I 160 W/m 15,8 C 29,1 C 17,7 km/h (3 Bft) 95,74 %
23.06.2017 18:24 29,2 C 27,8 C 45 % 1010,3 hPa 0,0 l/m 2,5 km/h (1 Bft) NW 325 0 min 0,000 mm 0,7 UV-I 149 W/m 16,0 C 29,2 C 6,4 km/h (2 Bft) 97,87 %
23.06.2017 18:26 29,1 C 27,8 C 45 % 1010,3 hPa 0,0 l/m 4,1 km/h (1 Bft) N 350 0 min 0,000 mm 0,7 UV-I 125 W/m 15,9 C 29,1 C 8,0 km/h (2 Bft) 93,62 %
23.06.2017 18:28 29,1 C 27,8 C 46 % 1010,3 hPa 0,0 l/m 3,6 km/h (1 Bft) NO 44 0 min 0,000 mm 0,7 UV-I 123 W/m 16,3 C 29,1 C 12,9 km/h (3 Bft) 97,87 %
23.06.2017 18:30 28,9 C 27,8 C 45 % 1010,3 hPa 0,0 l/m 5,7 km/h (1 Bft) W 275 0 min 0,000 mm 0,8 UV-I 189 W/m 15,8 C 28,9 C 12,9 km/h (3 Bft) 97,87 %
23.06.2017 18:32 29,1 C 27,8 C 45 % 1010,3 hPa 0,0 l/m 4,2 km/h (1 Bft) N-NW 331 2 min 0,000 mm 0,8 UV-I 246 W/m 15,9 C 29,1 C 16,1 km/h (3 Bft) 100,00 %
23.06.2017 18:34 29,2 C 27,8 C 45 % 1010,3 hPa 0,0 l/m 4,0 km/h (1 Bft) W-SW 248 0 min 0,000 mm 0,8 UV-I 183 W/m 16,0 C 29,2 C 8,0 km/h (2 Bft) 96,00 %
23.06.2017 18:36 29,2 C 27,8 C 45 % 1010,3 hPa 0,0 l/m 5,6 km/h (1 Bft) NW 323 2 min 0,000 mm 0,7 UV-I 226 W/m 16,0 C 29,2 C 11,3 km/h (2 Bft) 98,00 %
23.06.2017 18:38 29,3 C 27,8 C 46 % 1010,3 hPa 0,0 l/m 4,1 km/h (1 Bft) W 278 2 min 0,000 mm 0,7 UV-I 280 W/m 16,5 C 29,3 C 9,7 km/h (2 Bft) 100,00 %
23.06.2017 18:40 29,3 C 27,8 C 44 % 1010,3 hPa 0,0 l/m 7,8 km/h (2 Bft) W-SW 249 2 min 0,000 mm 0,7 UV-I 235 W/m 15,8 C 29,1 C 14,5 km/h (3 Bft) 97,87 %
23.06.2017 18:42 29,3 C 27,8 C 45 % 1010,4 hPa 0,0 l/m 8,6 km/h (2 Bft) S-SW 213 2 min 0,000 mm 0,7 UV-I 271 W/m 16,1 C 29,1 C 24,1 km/h (4 Bft) 95,74 %
23.06.2017 18:44 29,4 C 27,8 C 42 % 1010,4 hPa 0,0 l/m 11,1 km/h (2 Bft) SW 224 2 min 0,000 mm 0,7 UV-I 268 W/m 15,1 C 28,9 C 29,0 km/h (5 Bft) 100,00 %
23.06.2017 18:46 29,5 C 27,8 C 42 % 1010,4 hPa 0,0 l/m 9,4 km/h (2 Bft) W-NW 284 2 min 0,000 mm 0,7 UV-I 259 W/m 15,2 C 29,2 C 20,9 km/h (4 Bft) 98,00 %
23.06.2017 18:48 29,6 C 27,8 C 41 % 1010,4 hPa 0,0 l/m 10,7 km/h (2 Bft) NW 306 2 min 0,000 mm 0,6 UV-I 250 W/m 14,9 C 29,2 C 20,9 km/h (4 Bft) 91,67 %
23.06.2017 18:50 29,6 C 27,8 C 41 % 1010,4 hPa 0,0 l/m 18,3 km/h (3 Bft) SW 226 2 min 0,000 mm 0,6 UV-I 241 W/m 14,9 C 28,7 C 30,6 km/h (5 Bft) 98,00 %
23.06.2017 18:52 29,6 C 27,8 C 41 % 1010,6 hPa 0,0 l/m 11,2 km/h (2 Bft) W 278 2 min 0,000 mm 0,6 UV-I 235 W/m 14,9 C 29,1 C 24,1 km/h (4 Bft) 100,00 %
23.06.2017 18:54 29,6 C 27,8 C 41 % 1010,7 hPa 0,0 l/m 7,8 km/h (2 Bft) W 269 2 min 0,000 mm 0,6 UV-I 232 W/m 14,9 C 29,5 C 17,7 km/h (3 Bft) 100,00 %
23.06.2017 18:56 29,6 C 27,8 C 40 % 1010,7 hPa 0,0 l/m 7,7 km/h (2 Bft) N-NW 329 2 min 0,000 mm 0,5 UV-I 228 W/m 14,5 C 29,5 C 14,5 km/h (3 Bft) 97,87 %
23.06.2017 18:58 29,6 C 27,8 C 40 % 1010,8 hPa 0,0 l/m 10,5 km/h (2 Bft) SW 221 2 min 0,000 mm 0,5 UV-I 217 W/m 14,5 C 29,2 C 19,3 km/h (3 Bft) 97,37 %
23.06.2017 19:00 29,6 C 27,8 C 40 % 1010,8 hPa 0,0 l/m 7,8 km/h (2 Bft) W-NW 301 2 min 0,229 mm 0,5 UV-I 210 W/m 14,5 C 29,5 C 12,9 km/h (3 Bft) 95,74 %
23.06.2017 19:02 29,6 C 27,8 C 41 % 1010,8 hPa 0,0 l/m 11,9 km/h (2 Bft) W-NW 296 2 min 0,000 mm 0,5 UV-I 208 W/m 14,9 C 29,1 C 22,5 km/h (4 Bft) 100,00 %
23.06.2017 19:04 29,6 C 27,8 C 41 % 1010,8 hPa 0,0 l/m 7,5 km/h (2 Bft) W 267 2 min 0,000 mm 0,5 UV-I 207 W/m 14,9 C 29,5 C 11,3 km/h (2 Bft) 97,87 %
23.06.2017 19:06 29,5 C 27,8 C 41 % 1010,9 hPa 0,0 l/m 9,7 km/h (2 Bft) NW 304 2 min 0,000 mm 0,4 UV-I 199 W/m 14,8 C 29,2 C 19,3 km/h (3 Bft) 95,74 %
23.06.2017 19:08 29,4 C 27,8 C 42 % 1010,9 hPa 0,0 l/m 5,9 km/h (2 Bft) N-NW 344 2 min 0,000 mm 0,0 UV-I 196 W/m 15,1 C 29,4 C 14,5 km/h (3 Bft) 95,74 %
23.06.2017 19:10 29,3 C 27,8 C 42 % 1010,9 hPa 0,0 l/m 6,9 km/h (2 Bft) W-SW 253 2 min 0,000 mm 0,0 UV-I 192 W/m 15,0 C 29,2 C 17,7 km/h (3 Bft) 95,74 %
23.06.2017 19:12 29,3 C 27,8 C 42 % 1011,0 hPa 0,0 l/m 8,2 km/h (2 Bft) SW 217 2 min 0,000 mm 0,0 UV-I 190 W/m 15,0 C 29,1 C 17,7 km/h (3 Bft) 93,62 %
23.06.2017 19:14 29,3 C 27,8 C 41 % 1010,9 hPa 0,0 l/m 6,9 km/h (2 Bft) O-NO 67 2 min 0,000 mm 0,0 UV-I 186 W/m 14,7 C 29,2 C 17,7 km/h (3 Bft) 97,87 %
23.06.2017 19:16 29,2 C 27,8 C 41 % 1010,9 hPa 0,0 l/m 7,8 km/h (2 Bft) NW 310 2 min 0,000 mm 0,0 UV-I 179 W/m 14,6 C 29,0 C 17,7 km/h (3 Bft) 97,87 %
23.06.2017 19:18 29,1 C 27,8 C 41 % 1011,0 hPa 0,0 l/m 4,7 km/h (1 Bft) NW 319 2 min 0,000 mm 0,0 UV-I 168 W/m 14,5 C 29,1 C 12,9 km/h (3 Bft) 96,00 %
23.06.2017 19:20 29,1 C 27,8 C 42 % 1010,9 hPa 0,0 l/m 7,0 km/h (2 Bft) W-NW 287 2 min 0,000 mm 0,0 UV-I 165 W/m 14,9 C 29,0 C 16,1 km/h (3 Bft) 100,00 %
23.06.2017 19:22 29,1 C 27,8 C 42 % 1011,0 hPa 0,0 l/m 5,0 km/h (1 Bft) W-NW 290 2 min 0,000 mm 0,0 UV-I 161 W/m 14,9 C 29,1 C 16,1 km/h (3 Bft) 97,87 %
23.06.2017 19:24 29,1 C 27,8 C 41 % 1011,1 hPa 0,0 l/m 6,4 km/h (2 Bft) W 270 2 min 0,000 mm 0,0 UV-I 154 W/m 14,5 C 29,1 C 16,1 km/h (3 Bft) 95,74 %
23.06.2017 19:26 29,0 C 27,8 C 42 % 1011,1 hPa 0,0 l/m 4,7 km/h (1 Bft) SW 226 2 min 0,000 mm 0,0 UV-I 146 W/m 14,8 C 29,0 C 9,7 km/h (2 Bft) 91,49 %
23.06.2017 19:28 28,9 C 27,8 C 41 % 1011,1 hPa 0,0 l/m 6,7 km/h (2 Bft) N-NW 331 2 min 0,000 mm 0,0 UV-I 146 W/m 14,3 C 28,9 C 16,1 km/h (3 Bft) 93,75 %
23.06.2017 19:30 28,9 C 27,8 C 42 % 1011,1 hPa 0,0 l/m 6,6 km/h (2 Bft) W-SW 238 2 min 0,000 mm 0,0 UV-I 143 W/m 14,7 C 28,9 C 11,3 km/h (2 Bft) 89,36 %
23.06.2017 19:32 28,9 C 27,8 C 41 % 1011,2 hPa 0,0 l/m 5,8 km/h (2 Bft) S-SW 209 2 min 0,000 mm 0,0 UV-I 139 W/m 14,3 C 28,9 C 16,1 km/h (3 Bft) 95,74 %
23.06.2017 19:34 28,9 C 27,8 C 42 % 1011,2 hPa 0,0 l/m 7,2 km/h (2 Bft) W 279 2 min 0,000 mm 0,0 UV-I 131 W/m 14,7 C 28,8 C 11,3 km/h (2 Bft) 97,56 %
23.06.2017 19:36 28,9 C 27,8 C 42 % 1011,2 hPa 0,0 l/m 6,1 km/h (2 Bft) W 276 0 min 0,000 mm 0,0 UV-I 115 W/m 14,7 C 28,9 C 11,3 km/h (2 Bft) 95,74 %
23.06.2017 19:38 28,8 C 27,8 C 42 % 1011,2 hPa 0,0 l/m 4,3 km/h (1 Bft) W-NW 300 0 min 0,000 mm 0,0 UV-I 112 W/m 14,6 C 28,8 C 8,0 km/h (2 Bft) 95,74 %
23.06.2017 19:40 28,8 C 27,8 C 43 % 1011,2 hPa 0,0 l/m 4,6 km/h (1 Bft) N-NW 346 2 min 0,000 mm 0,0 UV-I 118 W/m 15,0 C 28,8 C 14,5 km/h (3 Bft) 97,87 %
23.06.2017 19:42 28,7 C 27,8 C 42 % 1011,2 hPa 0,0 l/m 4,2 km/h (1 Bft) W-NW 289 2 min 0,000 mm 0,0 UV-I 116 W/m 14,5 C 28,7 C 11,3 km/h (2 Bft) 97,87 %
23.06.2017 19:44 28,6 C 27,8 C 42 % 1011,2 hPa 0,0 l/m 2,8 km/h (1 Bft) NW 315 0 min 0,000 mm 0,0 UV-I 98 W/m 14,4 C 28,6 C 6,4 km/h (2 Bft) 89,36 %
23.06.2017 19:46 28,6 C 27,8 C 43 % 1011,2 hPa 0,0 l/m 2,9 km/h (1 Bft) W-NW 284 0 min 0,000 mm 0,0 UV-I 96 W/m 14,8 C 28,6 C 6,4 km/h (2 Bft) 98,00 %
23.06.2017 19:48 28,4 C 27,8 C 44 % 1011,2 hPa 0,0 l/m 5,0 km/h (1 Bft) NW 306 0 min 0,000 mm 0,0 UV-I 90 W/m 14,9 C 28,4 C 14,5 km/h (3 Bft) 95,74 %
23.06.2017 19:50 28,4 C 27,8 C 43 % 1011,2 hPa 0,0 l/m 6,2 km/h (2 Bft) N-NW 334 0 min 0,000 mm 0,0 UV-I 95 W/m 14,6 C 28,4 C 12,9 km/h (3 Bft) 93,62 %
23.06.2017 19:52 28,3 C 27,8 C 42 % 1011,2 hPa 0,0 l/m 8,5 km/h (2 Bft) SW 232 0 min 0,000 mm 0,0 UV-I 89 W/m 14,1 C 28,0 C 20,9 km/h (4 Bft) 93,62 %
23.06.2017 19:54 28,3 C 27,8 C 41 % 1011,2 hPa 0,0 l/m 7,1 km/h (2 Bft) W-SW 250 2 min 0,000 mm 0,0 UV-I 91 W/m 13,8 C 28,2 C 14,5 km/h (3 Bft) 89,36 %
23.06.2017 19:56 28,3 C 27,8 C 42 % 1011,2 hPa 0,0 l/m 5,7 km/h (1 Bft) NW 309 0 min 0,000 mm 0,0 UV-I 87 W/m 14,1 C 28,3 C 11,3 km/h (2 Bft) 91,49 %
23.06.2017 19:58 28,2 C 27,8 C 42 % 1011,3 hPa 0,0 l/m 8,2 km/h (2 Bft) NW 311 0 min 0,000 mm 0,0 UV-I 78 W/m 14,0 C 27,9 C 20,9 km/h (4 Bft) 94,00 %
23.06.2017 20:00 28,1 C 27,8 C 42 % 1011,3 hPa 0,0 l/m 8,5 km/h (2 Bft) W 273 0 min 0,000 mm 0,0 UV-I 71 W/m 14,0 C 27,8 C 16,1 km/h (3 Bft) 94,44 %
23.06.2017 20:02 28,1 C 27,8 C 41 % 1011,3 hPa 0,0 l/m 9,6 km/h (2 Bft) N-NW 327 0 min 0,177 mm 0,0 UV-I 68 W/m 13,6 C 27,6 C 24,1 km/h (4 Bft) 93,62 %
23.06.2017 20:04 28,0 C 27,8 C 42 % 1011,3 hPa 0,0 l/m 11,2 km/h (2 Bft) W-SW 243 0 min 0,000 mm 0,0 UV-I 59 W/m 13,9 C 27,3 C 17,7 km/h (3 Bft) 93,62 %
23.06.2017 20:06 27,9 C 27,8 C 42 % 1011,4 hPa 0,0 l/m 4,7 km/h (1 Bft) W-SW 240 0 min 0,000 mm 0,0 UV-I 54 W/m 13,8 C 27,9 C 11,3 km/h (2 Bft) 92,00 %
23.06.2017 20:08 27,8 C 27,8 C 42 % 1011,4 hPa 0,0 l/m 6,9 km/h (2 Bft) N-NW 336 0 min 0,000 mm 0,0 UV-I 49 W/m 13,7 C 27,7 C 14,5 km/h (3 Bft) 95,74 %
23.06.2017 20:10 27,8 C 27,8 C 43 % 1011,4 hPa 0,0 l/m 9,9 km/h (2 Bft) W-SW 252 0 min 0,000 mm 0,0 UV-I 54 W/m 14,1 C 27,3 C 22,5 km/h (4 Bft) 93,62 %
23.06.2017 20:12 27,7 C 27,8 C 42 % 1011,5 hPa 0,0 l/m 8,1 km/h (2 Bft) W 281 0 min 0,000 mm 0,0 UV-I 54 W/m 13,6 C 27,4 C 12,9 km/h (3 Bft) 95,74 %
23.06.2017 20:14 27,7 C 27,8 C 43 % 1011,4 hPa 0,0 l/m 5,9 km/h (2 Bft) W-SW 246 0 min 0,000 mm 0,0 UV-I 53 W/m 14,0 C 27,7 C 12,9 km/h (3 Bft) 92,00 %
23.06.2017 20:16 27,6 C 27,8 C 42 % 1011,4 hPa 0,0 l/m 7,5 km/h (2 Bft) W 276 0 min 0,000 mm 0,0 UV-I 54 W/m 13,5 C 27,4 C 14,5 km/h (3 Bft) 97,87 %
23.06.2017 20:18 27,5 C 27,8 C 43 % 1011,4 hPa 0,0 l/m 8,8 km/h (2 Bft) W-NW 284 0 min 0,000 mm 0,0 UV-I 56 W/m 13,8 C 27,1 C 17,7 km/h (3 Bft) 93,62 %
23.06.2017 20:20 27,5 C 27,8 C 43 % 1011,5 hPa 0,0 l/m 6,9 km/h (2 Bft) W 259 0 min 0,000 mm 0,0 UV-I 54 W/m 13,8 C 27,4 C 11,3 km/h (2 Bft) 97,87 %
23.06.2017 20:22 27,4 C 27,8 C 42 % 1011,5 hPa 0,0 l/m 6,0 km/h (2 Bft) W-SW 250 0 min 0,000 mm 0,0 UV-I 49 W/m 13,3 C 27,4 C 11,3 km/h (2 Bft) 89,36 %
23.06.2017 20:24 27,4 C 27,8 C 42 % 1011,6 hPa 0,0 l/m 7,3 km/h (2 Bft) W-NW 291 0 min 0,000 mm 0,0 UV-I 42 W/m 13,3 C 27,2 C 12,9 km/h (3 Bft) 98,00 %
23.06.2017 20:26 27,4 C 27,8 C 42 % 1011,6 hPa 0,0 l/m 6,5 km/h (2 Bft) W 269 0 min 0,000 mm 0,0 UV-I 39 W/m 13,3 C 27,4 C 12,9 km/h (3 Bft) 92,11 %
23.06.2017 20:28 27,3 C 27,8 C 43 % 1011,6 hPa 0,0 l/m 5,5 km/h (1 Bft) W 270 0 min 0,000 mm 0,0 UV-I 37 W/m 13,6 C 27,3 C 11,3 km/h (2 Bft) 95,74 %
23.06.2017 20:30 27,3 C 27,8 C 43 % 1011,6 hPa 0,0 l/m 5,1 km/h (1 Bft) W-SW 252 0 min 0,000 mm 0,0 UV-I 35 W/m 13,6 C 27,3 C 8,0 km/h (2 Bft) 100,00 %
23.06.2017 20:32 27,3 C 27,8 C 42 % 1011,7 hPa 0,0 l/m 7,9 km/h (2 Bft) W-NW 288 0 min 0,000 mm 0,0 UV-I 32 W/m 13,2 C 27,0 C 17,7 km/h (3 Bft) 95,74 %
23.06.2017 20:34 27,3 C 27,8 C 42 % 1011,8 hPa 0,0 l/m 4,2 km/h (1 Bft) W-NW 297 0 min 0,000 mm 0,0 UV-I 26 W/m 13,2 C 27,3 C 6,4 km/h (2 Bft) 97,96 %
23.06.2017 20:36 27,2 C 27,8 C 43 % 1011,8 hPa 0,0 l/m 5,0 km/h (1 Bft) W-SW 240 0 min 0,000 mm 0,0 UV-I 24 W/m 13,5 C 27,2 C 9,7 km/h (2 Bft) 100,00 %
23.06.2017 20:38 27,2 C 27,8 C 43 % 1011,8 hPa 0,0 l/m 8,5 km/h (2 Bft) W 264 0 min 0,000 mm 0,0 UV-I 22 W/m 13,5 C 26,8 C 17,7 km/h (3 Bft) 97,22 %
23.06.2017 20:40 27,2 C 27,8 C 43 % 1011,8 hPa 0,0 l/m 7,5 km/h (2 Bft) W-SW 258 0 min 0,000 mm 0,0 UV-I 19 W/m 13,5 C 27,0 C 16,1 km/h (3 Bft) 100,00 %
23.06.2017 20:42 27,1 C 27,8 C 43 % 1011,8 hPa 0,0 l/m 6,7 km/h (2 Bft) W-SW 239 0 min 0,000 mm 0,0 UV-I 17 W/m 13,4 C 27,0 C 12,9 km/h (3 Bft) 100,00 %
23.06.2017 20:44 27,1 C 27,8 C 43 % 1011,8 hPa 0,0 l/m 9,7 km/h (2 Bft) W-SW 239 0 min 0,000 mm 0,0 UV-I 16 W/m 13,4 C 26,5 C 14,5 km/h (3 Bft) 100,00 %
23.06.2017 20:46 27,1 C 27,8 C 43 % 1011,9 hPa 0,0 l/m 9,0 km/h (2 Bft) SW 236 0 min 0,000 mm 0,0 UV-I 16 W/m 13,4 C 26,6 C 19,3 km/h (3 Bft) 100,00 %
23.06.2017 20:48 27,0 C 27,8 C 43 % 1011,8 hPa 0,0 l/m 8,5 km/h (2 Bft) W-SW 257 0 min 0,000 mm 0,0 UV-I 14 W/m 13,3 C 26,6 C 14,5 km/h (3 Bft) 95,74 %
23.06.2017 20:50 26,9 C 27,8 C 43 % 1011,8 hPa 0,0 l/m 4,6 km/h (1 Bft) W 280 0 min 0,000 mm 0,0 UV-I 13 W/m 13,2 C 26,9 C 8,0 km/h (2 Bft) 93,62 %
23.06.2017 20:52 26,9 C 27,8 C 43 % 1011,9 hPa 0,0 l/m 11,1 km/h (2 Bft) W-NW 283 0 min 0,000 mm 0,0 UV-I 12 W/m 13,2 C 26,1 C 17,7 km/h (3 Bft) 97,87 %
23.06.2017 20:54 26,8 C 27,8 C 44 % 1011,9 hPa 0,0 l/m 6,2 km/h (2 Bft) W-SW 239 2 min 0,000 mm 0,0 UV-I 11 W/m 13,5 C 26,8 C 11,3 km/h (2 Bft) 100,00 %
23.06.2017 20:56 26,8 C 27,8 C 43 % 1011,9 hPa 0,0 l/m 6,0 km/h (2 Bft) W-SW 242 0 min 0,000 mm 0,0 UV-I 10 W/m 13,2 C 26,8 C 12,9 km/h (3 Bft) 97,87 %
23.06.2017 20:58 26,7 C 27,8 C 44 % 1011,9 hPa 0,0 l/m 4,0 km/h (1 Bft) W-SW 244 0 min 0,000 mm 0,0 UV-I 9 W/m 13,4 C 26,7 C 8,0 km/h (2 Bft) 98,00 %
23.06.2017 21:00 26,6 C 27,8 C 44 % 1011,9 hPa 0,0 l/m 7,0 km/h (2 Bft) W-SW 254 0 min 0,000 mm 0,0 UV-I 9 W/m 13,3 C 26,5 C 11,3 km/h (2 Bft) 97,14 %
23.06.2017 21:02 26,5 C 27,8 C 44 % 1011,9 hPa 0,0 l/m 8,0 km/h (2 Bft) NW 313 0 min 0,102 mm 0,0 UV-I 8 W/m 13,2 C 26,2 C 17,7 km/h (3 Bft) 96,08 %
23.06.2017 21:04 26,4 C 27,8 C 45 % 1012,0 hPa 0,0 l/m 3,9 km/h (1 Bft) W-SW 254 0 min 0,000 mm 0,0 UV-I 7 W/m 13,5 C 26,4 C 11,3 km/h (2 Bft) 100,00 %
23.06.2017 21:06 26,4 C 27,8 C 45 % 1012,0 hPa 0,0 l/m 3,8 km/h (1 Bft) W-NW 283 0 min 0,000 mm 0,0 UV-I 7 W/m 13,5 C 26,4 C 6,4 km/h (2 Bft) 97,87 %
23.06.2017 21:08 26,3 C 27,8 C 45 % 1012,1 hPa 0,0 l/m 3,9 km/h (1 Bft) W-NW 294 0 min 0,000 mm 0,0 UV-I 7 W/m 13,4 C 26,3 C 9,7 km/h (2 Bft) 97,87 %
23.06.2017 21:10 26,2 C 27,8 C 45 % 1012,1 hPa 0,0 l/m 5,2 km/h (1 Bft) W-SW 244 0 min 0,000 mm 0,0 UV-I 6 W/m 13,3 C 26,2 C 11,3 km/h (2 Bft) 96,00 %
23.06.2017 21:12 26,1 C 27,8 C 45 % 1012,1 hPa 0,0 l/m 5,0 km/h (1 Bft) W 264 0 min 0,000 mm 0,0 UV-I 5 W/m 13,2 C 26,1 C 12,9 km/h (3 Bft) 96,00 %
23.06.2017 21:14 26,1 C 27,8 C 46 % 1012,1 hPa 0,0 l/m 4,3 km/h (1 Bft) W 269 0 min 0,000 mm 0,0 UV-I 5 W/m 13,6 C 26,1 C 9,7 km/h (2 Bft) 100,00 %
23.06.2017 21:16 25,9 C 27,8 C 46 % 1012,2 hPa 0,0 l/m 5,4 km/h (1 Bft) W-SW 254 0 min 0,000 mm 0,0 UV-I 5 W/m 13,4 C 25,9 C 11,3 km/h (2 Bft) 94,74 %
23.06.2017 21:18 25,9 C 27,8 C 46 % 1012,2 hPa 0,0 l/m 7,2 km/h (2 Bft) W-NW 290 0 min 0,000 mm 0,0 UV-I 5 W/m 13,4 C 25,7 C 14,5 km/h (3 Bft) 100,00 %
23.06.2017 21:20 25,9 C 27,8 C 46 % 1012,2 hPa 0,0 l/m 6,6 km/h (2 Bft) W-SW 257 0 min 0,000 mm 0,0 UV-I 5 W/m 13,4 C 25,9 C 11,3 km/h (2 Bft) 95,83 %
23.06.2017 21:22 25,9 C 27,8 C 46 % 1012,3 hPa 0,0 l/m 1,7 km/h (1 Bft) W 278 0 min 0,000 mm 0,0 UV-I 3 W/m 13,4 C 25,9 C 4,8 km/h (1 Bft) 97,96 %
23.06.2017 21:24 25,8 C 27,8 C 46 % 1012,3 hPa 0,0 l/m 3,4 km/h (1 Bft) W-SW 247 0 min 0,000 mm 0,0 UV-I 0 W/m 13,3 C 25,8 C 12,9 km/h (3 Bft) 95,83 %
23.06.2017 21:26 25,7 C 27,8 C 46 % 1012,4 hPa 0,0 l/m 2,3 km/h (1 Bft) W-SW 248 0 min 0,000 mm 0,0 UV-I 0 W/m 13,2 C 25,7 C 6,4 km/h (2 Bft) 94,00 %
23.06.2017 21:28 25,6 C 27,8 C 47 % 1012,4 hPa 0,0 l/m 2,1 km/h (1 Bft) W-SW 258 0 min 0,000 mm 0,0 UV-I 0 W/m 13,4 C 25,6 C 4,8 km/h (1 Bft) 100,00 %
23.06.2017 21:30 25,6 C 27,8 C 47 % 1012,4 hPa 0,0 l/m 1,9 km/h (1 Bft) W-SW 240 0 min 0,000 mm 0,0 UV-I 0 W/m 13,4 C 25,6 C 4,8 km/h (1 Bft) 100,00 %
23.06.2017 21:32 25,5 C 27,8 C 47 % 1012,5 hPa 0,0 l/m 1,0 km/h (0 Bft) W-SW 241 0 min 0,000 mm 0,0 UV-I 0 W/m 13,3 C 25,5 C 3,2 km/h (1 Bft) 98,00 %
23.06.2017 21:34 25,4 C 27,8 C 47 % 1012,5 hPa 0,0 l/m 6,1 km/h (2 Bft) W-NW 299 0 min 0,000 mm 0,0 UV-I 0 W/m 13,3 C 25,4 C 16,1 km/h (3 Bft) 100,00 %
23.06.2017 21:36 25,3 C 27,8 C 47 % 1012,5 hPa 0,0 l/m 8,0 km/h (2 Bft) W 277 0 min 0,000 mm 0,0 UV-I 0 W/m 13,2 C 24,9 C 16,1 km/h (3 Bft) 100,00 %
23.06.2017 21:38 25,3 C 27,8 C 46 % 1012,6 hPa 0,0 l/m 3,5 km/h (1 Bft) W 272 0 min 0,000 mm 0,0 UV-I 0 W/m 12,8 C 25,3 C 8,0 km/h (2 Bft) 97,87 %
23.06.2017 21:40 25,3 C 27,8 C 46 % 1012,5 hPa 0,0 l/m 2,6 km/h (1 Bft) W 271 0 min 0,000 mm 0,0 UV-I 0 W/m 12,8 C 25,3 C 9,7 km/h (2 Bft) 96,00 %
23.06.2017 21:42 25,3 C 27,8 C 46 % 1012,6 hPa 0,0 l/m 6,9 km/h (2 Bft) W 278 0 min 0,000 mm 0,0 UV-I 0 W/m 12,8 C 25,2 C 20,9 km/h (4 Bft) 92,68 %
23.06.2017 21:44 25,3 C 27,8 C 46 % 1012,6 hPa 0,0 l/m 5,3 km/h (1 Bft) W-NW 295 0 min 0,000 mm 0,0 UV-I 0 W/m 12,8 C 25,3 C 14,5 km/h (3 Bft) 97,87 %
23.06.2017 21:46 25,3 C 27,8 C 45 % 1012,6 hPa 0,0 l/m 4,8 km/h (1 Bft) W-NW 290 0 min 0,000 mm 0,0 UV-I 0 W/m 12,5 C 25,3 C 12,9 km/h (3 Bft) 95,74 %
23.06.2017 21:49 25,2 C 27,8 C 45 % 1012,7 hPa 0,0 l/m 5,8 km/h (2 Bft) W 270 0 min 0,000 mm 0,0 UV-I 0 W/m 12,4 C 25,2 C 11,3 km/h (2 Bft) 95,95 %
23.06.2017 21:50 25,2 C 27,8 C 46 % 1012,7 hPa 0,0 l/m 3,1 km/h (1 Bft) W 276 0 min 0,000 mm 0,0 UV-I 0 W/m 12,7 C 25,2 C 6,4 km/h (2 Bft) 100,00 %
23.06.2017 21:52 25,2 C 27,8 C 44 % 1012,7 hPa 0,0 l/m 5,8 km/h (2 Bft) W-SW 256 0 min 0,000 mm 0,0 UV-I 0 W/m 12,1 C 25,2 C 14,5 km/h (3 Bft) 93,62 %
23.06.2017 21:54 25,2 C 27,8 C 44 % 1012,8 hPa 0,0 l/m 4,4 km/h (1 Bft) W-SW 248 0 min 0,000 mm 0,0 UV-I 0 W/m 12,1 C 25,2 C 9,7 km/h (2 Bft) 91,49 %
23.06.2017 21:56 25,1 C 27,8 C 45 % 1012,7 hPa 0,0 l/m 4,3 km/h (1 Bft) W 271 0 min 0,000 mm 0,0 UV-I 0 W/m 12,3 C 25,1 C 9,7 km/h (2 Bft) 89,36 %
23.06.2017 21:58 25,1 C 27,8 C 44 % 1012,8 hPa 0,0 l/m 2,6 km/h (1 Bft) W-SW 244 0 min 0,000 mm 0,0 UV-I 0 W/m 12,0 C 25,1 C 6,4 km/h (2 Bft) 98,00 %
23.06.2017 22:00 25,1 C 27,8 C 44 % 1012,8 hPa 0,0 l/m 4,3 km/h (1 Bft) W 259 0 min 0,000 mm 0,0 UV-I 0 W/m 12,0 C 25,1 C 11,3 km/h (2 Bft) 93,62 %
23.06.2017 22:03 25,0 C 27,8 C 45 % 1012,8 hPa 0,0 l/m 3,6 km/h (1 Bft) W 263 0 min 0,051 mm 0,0 UV-I 0 W/m 12,2 C 25,0 C 6,4 km/h (2 Bft) 95,77 %
23.06.2017 22:04 24,9 C 27,8 C 44 % 1012,8 hPa 0,0 l/m 5,9 km/h (2 Bft) W 273 0 min 0,000 mm 0,0 UV-I 0 W/m 11,8 C 24,9 C 9,7 km/h (2 Bft) 100,00 %
23.06.2017 22:06 24,9 C 27,8 C 44 % 1012,9 hPa 0,0 l/m 5,4 km/h (1 Bft) W 263 0 min 0,000 mm 0,0 UV-I 0 W/m 11,8 C 24,9 C 11,3 km/h (2 Bft) 97,92 %
23.06.2017 22:08 24,9 C 27,8 C 44 % 1012,9 hPa 0,0 l/m 4,8 km/h (1 Bft) W 259 0 min 0,000 mm 0,0 UV-I 0 W/m 11,8 C 24,9 C 8,0 km/h (2 Bft) 97,87 %
23.06.2017 22:10 24,8 C 27,8 C 45 % 1012,9 hPa 0,0 l/m 3,4 km/h (1 Bft) W 273 0 min 0,000 mm 0,0 UV-I 0 W/m 12,0 C 24,8 C 6,4 km/h (2 Bft) 93,62 %
23.06.2017 22:12 24,8 C 27,8 C 45 % 1012,9 hPa 0,0 l/m 3,2 km/h (1 Bft) W 273 0 min 0,000 mm 0,0 UV-I 0 W/m 12,0 C 24,8 C 4,8 km/h (1 Bft) 97,87 %
23.06.2017 22:14 24,8 C 27,8 C 45 % 1012,9 hPa 0,0 l/m 4,0 km/h (1 Bft) W 266 0 min 0,000 mm 0,0 UV-I 0 W/m 12,0 C 24,8 C 9,7 km/h (2 Bft) 94,59 %
23.06.2017 22:16 24,7 C 27,8 C 46 % 1013,0 hPa 0,0 l/m 4,7 km/h (1 Bft) W-SW 254 0 min 0,000 mm 0,0 UV-I 0 W/m 12,3 C 24,7 C 6,4 km/h (2 Bft) 97,87 %
23.06.2017 22:18 24,7 C 27,8 C 46 % 1013,0 hPa 0,0 l/m 3,6 km/h (1 Bft) W 262 0 min 0,000 mm 0,0 UV-I 0 W/m 12,3 C 24,7 C 4,8 km/h (1 Bft) 97,87 %
23.06.2017 22:20 24,6 C 27,8 C 45 % 1013,0 hPa 0,0 l/m 3,4 km/h (1 Bft) W 261 0 min 0,000 mm 0,0 UV-I 0 W/m 11,9 C 24,6 C 4,8 km/h (1 Bft) 100,00 %
23.06.2017 22:22 24,6 C 27,8 C 46 % 1013,1 hPa 0,0 l/m 3,4 km/h (1 Bft) W 261 0 min 0,000 mm 0,0 UV-I 0 W/m 12,2 C 24,6 C 4,8 km/h (1 Bft) 100,00 %
23.06.2017 22:24 24,4 C 27,8 C 46 % 1013,1 hPa 0,0 l/m 4,9 km/h (1 Bft) W-SW 242 0 min 0,000 mm 0,0 UV-I 0 W/m 12,0 C 24,4 C 9,7 km/h (2 Bft) 97,87 %
23.06.2017 22:26 24,4 C 27,8 C 46 % 1013,1 hPa 0,0 l/m 4,1 km/h (1 Bft) W-SW 242 0 min 0,000 mm 0,0 UV-I 0 W/m 12,0 C 24,4 C 6,4 km/h (2 Bft) 97,87 %
23.06.2017 22:28 24,3 C 27,8 C 47 % 1013,1 hPa 0,0 l/m 3,4 km/h (1 Bft) W-SW 242 0 min 0,000 mm 0,0 UV-I 0 W/m 12,3 C 24,3 C 4,8 km/h (1 Bft) 100,00 %
23.06.2017 22:30 24,2 C 27,8 C 47 % 1013,1 hPa 0,0 l/m 4,0 km/h (1 Bft) W-SW 242 0 min 0,000 mm 0,0 UV-I 0 W/m 12,2 C 24,2 C 6,4 km/h (2 Bft) 97,87 %
23.06.2017 22:32 24,1 C 27,8 C 48 % 1013,2 hPa 0,0 l/m 4,4 km/h (1 Bft) W-SW 242 0 min 0,000 mm 0,0 UV-I 0 W/m 12,4 C 24,1 C 6,4 km/h (2 Bft) 97,87 %
23.06.2017 22:34 24,0 C 27,8 C 48 % 1013,2 hPa 0,0 l/m 4,2 km/h (1 Bft) W-SW 242 0 min 0,000 mm 0,0 UV-I 0 W/m 12,3 C 24,0 C 6,4 km/h (2 Bft) 97,87 %
23.06.2017 22:36 23,9 C 27,8 C 49 % 1013,2 hPa 0,0 l/m 5,2 km/h (1 Bft) W-SW 242 0 min 0,000 mm 0,0 UV-I 0 W/m 12,5 C 23,9 C 8,0 km/h (2 Bft) 97,87 %
23.06.2017 22:38 23,8 C 27,8 C 49 % 1013,2 hPa 0,0 l/m 5,7 km/h (1 Bft) W-SW 246 0 min 0,000 mm 0,0 UV-I 0 W/m 12,4 C 23,8 C 8,0 km/h (2 Bft) 95,74 %
23.06.2017 22:40 23,7 C 27,8 C 50 % 1013,3 hPa 0,0 l/m 5,1 km/h (1 Bft) W-SW 248 0 min 0,000 mm 0,0 UV-I 0 W/m 12,6 C 23,7 C 6,4 km/h (2 Bft) 100,00 %
23.06.2017 22:42 23,6 C 27,8 C 50 % 1013,2 hPa 0,0 l/m 5,8 km/h (2 Bft) W-SW 242 0 min 0,000 mm 0,0 UV-I 0 W/m 12,6 C 23,6 C 8,0 km/h (2 Bft) 100,00 %
23.06.2017 22:44 23,4 C 27,8 C 51 % 1013,3 hPa 0,0 l/m 4,6 km/h (1 Bft) W-SW 240 0 min 0,000 mm 0,0 UV-I 0 W/m 12,7 C 23,4 C 6,4 km/h (2 Bft) 97,92 %
23.06.2017 22:46 23,3 C 27,8 C 51 % 1013,3 hPa 0,0 l/m 4,8 km/h (1 Bft) SW 223 0 min 0,000 mm 0,0 UV-I 0 W/m 12,6 C 23,3 C 8,0 km/h (2 Bft) 95,74 %
23.06.2017 22:48 23,2 C 27,8 C 52 % 1013,4 hPa 0,0 l/m 5,0 km/h (1 Bft) SW 223 0 min 0,000 mm 0,0 UV-I 0 W/m 12,8 C 23,2 C 8,0 km/h (2 Bft) 100,00 %
23.06.2017 22:50 23,2 C 27,8 C 52 % 1013,4 hPa 0,0 l/m 5,6 km/h (1 Bft) SW 221 0 min 0,000 mm 0,0 UV-I 0 W/m 12,8 C 23,2 C 8,0 km/h (2 Bft) 95,74 %
23.06.2017 22:52 23,1 C 27,8 C 52 % 1013,4 hPa 0,0 l/m 5,7 km/h (1 Bft) SW 236 0 min 0,000 mm 0,0 UV-I 0 W/m 12,7 C 23,1 C 8,0 km/h (2 Bft) 100,00 %
23.06.2017 22:54 23,1 C 27,8 C 52 % 1013,4 hPa 0,0 l/m 5,2 km/h (1 Bft) SW 219 0 min 0,000 mm 0,0 UV-I 0 W/m 12,7 C 23,1 C 8,0 km/h (2 Bft) 97,87 %
23.06.2017 22:56 23,1 C 27,8 C 52 % 1013,4 hPa 0,0 l/m 5,7 km/h (1 Bft) SW 219 0 min 0,000 mm 0,0 UV-I 0 W/m 12,7 C 23,1 C 8,0 km/h (2 Bft) 97,87 %
23.06.2017 22:58 23,0 C 27,8 C 53 % 1013,4 hPa 0,0 l/m 4,0 km/h (1 Bft) SW 219 0 min 0,000 mm 0,0 UV-I 0 W/m 12,9 C 23,0 C 6,4 km/h (2 Bft) 95,74 %
23.06.2017 23:00 22,9 C 27,8 C 53 % 1013,5 hPa 0,0 l/m 2,4 km/h (1 Bft) SW 219 0 min 0,000 mm 0,0 UV-I 0 W/m 12,8 C 22,9 C 6,4 km/h (2 Bft) 97,87 %
23.06.2017 23:02 22,9 C 27,8 C 54 % 1013,5 hPa 0,0 l/m 4,5 km/h (1 Bft) SW 219 0 min 0,051 mm 0,0 UV-I 0 W/m 13,1 C 22,9 C 8,0 km/h (2 Bft) 97,87 %
23.06.2017 23:04 22,8 C 27,8 C 54 % 1013,5 hPa 0,0 l/m 4,7 km/h (1 Bft) SW 219 0 min 0,000 mm 0,0 UV-I 0 W/m 13,0 C 22,8 C 6,4 km/h (2 Bft) 97,87 %
23.06.2017 23:06 22,7 C 27,8 C 54 % 1013,5 hPa 0,0 l/m 4,1 km/h (1 Bft) SW 219 0 min 0,000 mm 0,0 UV-I 0 W/m 12,9 C 22,7 C 6,4 km/h (2 Bft) 97,87 %
23.06.2017 23:08 22,7 C 27,8 C 55 % 1013,5 hPa 0,0 l/m 3,8 km/h (1 Bft) SW 219 0 min 0,000 mm 0,0 UV-I 0 W/m 13,2 C 22,7 C 6,4 km/h (2 Bft) 100,00 %
23.06.2017 23:10 22,6 C 27,8 C 55 % 1013,6 hPa 0,0 l/m 4,1 km/h (1 Bft) SW 219 0 min 0,000 mm 0,0 UV-I 0 W/m 13,1 C 22,6 C 8,0 km/h (2 Bft) 98,00 %
23.06.2017 23:12 22,4 C 27,8 C 55 % 1013,6 hPa 0,0 l/m 4,7 km/h (1 Bft) SW 221 0 min 0,000 mm 0,0 UV-I 0 W/m 12,9 C 22,4 C 8,0 km/h (2 Bft) 97,87 %
23.06.2017 23:14 22,4 C 27,8 C 56 % 1013,6 hPa 0,0 l/m 4,7 km/h (1 Bft) SW 227 0 min 0,000 mm 0,0 UV-I 0 W/m 13,2 C 22,4 C 8,0 km/h (2 Bft) 97,87 %
23.06.2017 23:16 22,4 C 27,8 C 56 % 1013,7 hPa 0,0 l/m 3,7 km/h (1 Bft) SW 227 0 min 0,000 mm 0,0 UV-I 0 W/m 13,2 C 22,4 C 6,4 km/h (2 Bft) 95,74 %
23.06.2017 23:18 22,3 C 27,8 C 56 % 1013,7 hPa 0,0 l/m 5,4 km/h (1 Bft) SW 221 0 min 0,000 mm 0,0 UV-I 0 W/m 13,1 C 22,3 C 8,0 km/h (2 Bft) 97,44 %
23.06.2017 23:20 22,3 C 27,8 C 56 % 1013,7 hPa 0,0 l/m 5,5 km/h (1 Bft) SW 216 0 min 0,000 mm 0,0 UV-I 0 W/m 13,1 C 22,3 C 9,7 km/h (2 Bft) 95,92 %
23.06.2017 23:22 22,3 C 27,8 C 56 % 1013,7 hPa 0,0 l/m 5,8 km/h (2 Bft) S-SW 213 0 min 0,000 mm 0,0 UV-I 0 W/m 13,1 C 22,3 C 8,0 km/h (2 Bft) 96,00 %
23.06.2017 23:24 22,3 C 27,8 C 55 % 1013,7 hPa 0,0 l/m 5,8 km/h (2 Bft) S-SW 198 0 min 0,000 mm 0,0 UV-I 0 W/m 12,8 C 22,3 C 9,7 km/h (2 Bft) 97,87 %
23.06.2017 23:26 22,3 C 27,8 C 55 % 1013,7 hPa 0,0 l/m 5,7 km/h (1 Bft) SW 223 0 min 0,000 mm 0,0 UV-I 0 W/m 12,8 C 22,3 C 8,0 km/h (2 Bft) 95,74 %
23.06.2017 23:28 22,3 C 27,8 C 56 % 1013,7 hPa 0,0 l/m 6,4 km/h (2 Bft) SW 223 0 min 0,000 mm 0,0 UV-I 0 W/m 13,1 C 22,3 C 9,7 km/h (2 Bft) 96,00 %
23.06.2017 23:30 22,3 C 27,8 C 56 % 1013,7 hPa 0,0 l/m 5,7 km/h (1 Bft) S-SW 198 0 min 0,000 mm 0,0 UV-I 0 W/m 13,1 C 22,3 C 8,0 km/h (2 Bft) 93,62 %
23.06.2017 23:32 22,2 C 27,8 C 56 % 1013,7 hPa 0,0 l/m 3,8 km/h (1 Bft) S-SW 198 0 min 0,000 mm 0,0 UV-I 0 W/m 13,0 C 22,2 C 8,0 km/h (2 Bft) 93,62 %
23.06.2017 23:34 22,1 C 27,8 C 57 % 1013,7 hPa 0,0 l/m 3,8 km/h (1 Bft) S-SW 198 0 min 0,000 mm 0,0 UV-I 0 W/m 13,2 C 22,1 C 6,4 km/h (2 Bft) 97,87 %
23.06.2017 23:36 22,0 C 27,8 C 57 % 1013,7 hPa 0,0 l/m 2,4 km/h (1 Bft) S-SW 198 0 min 0,000 mm 0,0 UV-I 0 W/m 13,1 C 22,0 C 4,8 km/h (1 Bft) 95,74 %
23.06.2017 23:38 21,8 C 27,8 C 58 % 1013,8 hPa 0,0 l/m 3,0 km/h (1 Bft) S-SW 198 0 min 0,000 mm 0,0 UV-I 0 W/m 13,2 C 21,8 C 4,8 km/h (1 Bft) 94,74 %
23.06.2017 23:40 21,5 C 27,8 C 59 % 1013,9 hPa 0,0 l/m 3,2 km/h (1 Bft) S-SW 198 0 min 0,000 mm 0,0 UV-I 0 W/m 13,1 C 21,5 C 4,8 km/h (1 Bft) 93,62 %
23.06.2017 23:42 21,3 C 27,8 C 60 % 1013,9 hPa 0,0 l/m 3,4 km/h (1 Bft) S-SW 198 0 min 0,000 mm 0,0 UV-I 0 W/m 13,2 C 21,3 C 6,4 km/h (2 Bft) 89,36 %
23.06.2017 23:44 21,1 C 27,8 C 60 % 1013,9 hPa 0,0 l/m 3,7 km/h (1 Bft) S-SW 198 0 min 0,000 mm 0,0 UV-I 0 W/m 13,0 C 21,1 C 6,4 km/h (2 Bft) 95,74 %
23.06.2017 23:46 20,9 C 27,8 C 61 % 1013,9 hPa 0,0 l/m 3,3 km/h (1 Bft) S-SW 198 0 min 0,000 mm 0,0 UV-I 0 W/m 13,1 C 20,9 C 6,4 km/h (2 Bft) 93,62 %
23.06.2017 23:48 20,8 C 27,8 C 61 % 1013,9 hPa 0,0 l/m 4,1 km/h (1 Bft) S-SW 198 0 min 0,000 mm 0,0 UV-I 0 W/m 13,0 C 20,8 C 8,0 km/h (2 Bft) 93,62 %
23.06.2017 23:50 20,7 C 27,8 C 62 % 1013,9 hPa 0,0 l/m 4,0 km/h (1 Bft) S-SW 198 0 min 0,000 mm 0,0 UV-I 0 W/m 13,2 C 20,7 C 6,4 km/h (2 Bft) 91,49 %
23.06.2017 23:52 20,7 C 27,8 C 62 % 1014,0 hPa 0,0 l/m 4,8 km/h (1 Bft) S-SW 198 0 min 0,000 mm 0,0 UV-I 0 W/m 13,2 C 20,7 C 6,4 km/h (2 Bft) 96,00 %
23.06.2017 23:54 20,6 C 27,8 C 62 % 1014,0 hPa 0,0 l/m 5,5 km/h (1 Bft) S-SW 209 0 min 0,000 mm 0,0 UV-I 0 W/m 13,1 C 20,6 C 8,0 km/h (2 Bft) 92,00 %
23.06.2017 23:56 20,7 C 27,8 C 62 % 1014,1 hPa 0,0 l/m 6,0 km/h (2 Bft) S-SW 211 0 min 0,000 mm 0,0 UV-I 0 W/m 13,2 C 20,7 C 8,0 km/h (2 Bft) 91,49 %
23.06.2017 23:58 20,8 C 27,8 C 61 % 1014,1 hPa 0,0 l/m 6,9 km/h (2 Bft) SW 217 0 min 0,000 mm 0,0 UV-I 0 W/m 13,0 C 20,6 C 9,7 km/h (2 Bft) 93,62 %
_ Min-Zeit 05:06 02:52 17:22 02:54 - 03:48 - - - - - - 22:04 05:06 03:48 09:10
Minimum _ 19,1 C 26,7 C 37 % 1008,1 hPa - 0,0 km/h (0 Bft) - - - - - - 11,8 C 19,1 C 0,0 km/h (0 Bft) 84,21 %
_ Max-Zeit 17:02 16:04 06:50 23:56 02:50 13:00 - - 07:40 13:02 12:36 13:06 08:12 17:02 13:00 00:06
Maximum _ 31,7 C 27,8 C 89 % 1014,1 hPa 0,2 l/m 32,8 km/h
W (5 Bft)
- - 2 min 0,711 mm 6,1 UV-I 992 W/m 19,5 C 31,5 C 54,7 km/h
W-SW (7 Bft)
100,00 %
Durchschnitt _ 25,5 C 27,2 C 59 % 1010,7 hPa #1,6 l/m 9,1 km/h (2 Bft) W-SW - #8:06 h #5,817 mm 2,9 UV-I 382 W/m 16,2 C 25,1 C 16,5 km/h (3 Bft) 96,27 %